<?xml version='1.0' encoding='UTF-8'?><gpx version="1.1" creator="JPX - https://github.com/jenetics/jpx" xmlns="http://www.topografix.com/GPX/1/1"><trk><trkseg><trkpt lat="45.660497" lon="8.2285455"><ele>617.0</ele><time>2026-04-19T08:20:13.616Z</time></trkpt><trkpt lat="45.6605678" lon="8.2285297"><ele>617.0</ele><time>2026-04-19T08:20:15.615Z</time></trkpt><trkpt lat="45.6606193" lon="8.2284335"><ele>617.0</ele><time>2026-04-19T08:20:17.615Z</time></trkpt><trkpt lat="45.6606712" lon="8.2282761"><ele>617.0</ele><time>2026-04-19T08:20:19.616Z</time></trkpt><trkpt lat="45.6607339" lon="8.22815"><ele>617.0</ele><time>2026-04-19T08:20:21.614Z</time></trkpt><trkpt lat="45.6608153" lon="8.2280835"><ele>617.0</ele><time>2026-04-19T08:20:23.614Z</time></trkpt><trkpt lat="45.6609006" lon="8.2281295"><ele>617.0</ele><time>2026-04-19T08:20:25.614Z</time></trkpt><trkpt lat="45.6609502" lon="8.2282383"><ele>617.0</ele><time>2026-04-19T08:20:27.616Z</time></trkpt><trkpt lat="45.6609666" lon="8.2283959"><ele>617.0</ele><time>2026-04-19T08:20:29.615Z</time></trkpt><trkpt lat="45.6609734" lon="8.2285192"><ele>617.0</ele><time>2026-04-19T08:20:30.616Z</time></trkpt><trkpt lat="45.6609761" lon="8.2286451"><ele>617.0</ele><time>2026-04-19T08:20:31.616Z</time></trkpt><trkpt lat="45.660996" lon="8.2287717"><ele>617.0</ele><time>2026-04-19T08:20:32.614Z</time></trkpt><trkpt lat="45.6610234" lon="8.2288988"><ele>617.0</ele><time>2026-04-19T08:20:33.614Z</time></trkpt><trkpt lat="45.6610707" lon="8.2290105"><ele>617.0</ele><time>2026-04-19T08:20:34.615Z</time></trkpt><trkpt lat="45.6611183" lon="8.2291211"><ele>617.0</ele><time>2026-04-19T08:20:35.615Z</time></trkpt><trkpt lat="45.6611457" lon="8.229222"><ele>617.0</ele><time>2026-04-19T08:20:36.615Z</time></trkpt><trkpt lat="45.6611601" lon="8.2293135"><ele>621.5</ele><time>2026-04-19T08:20:37.615Z</time></trkpt><trkpt lat="45.6611452" lon="8.2294035"><ele>626.0</ele><time>2026-04-19T08:20:38.615Z</time></trkpt><trkpt lat="45.6611181" lon="8.2295519"><ele>630.5</ele><time>2026-04-19T08:20:40.615Z</time></trkpt><trkpt lat="45.6611894" lon="8.2295916"><ele>635.0</ele><time>2026-04-19T08:20:43.614Z</time></trkpt><trkpt lat="45.6612272" lon="8.2294722"><ele>639.5</ele><time>2026-04-19T08:20:45.615Z</time></trkpt><trkpt lat="45.6612862" lon="8.2294124"><ele>644.0</ele><time>2026-04-19T08:20:47.616Z</time></trkpt><trkpt lat="45.6613105" lon="8.2295357"><ele>644.0</ele><time>2026-04-19T08:20:51.614Z</time></trkpt><trkpt lat="45.6612716" lon="8.2296624"><ele>644.0</ele><time>2026-04-19T08:20:53.614Z</time></trkpt><trkpt lat="45.661286" lon="8.2298196"><ele>644.0</ele><time>2026-04-19T08:20:55.616Z</time></trkpt><trkpt lat="45.6613677" lon="8.2297402"><ele>644.0</ele><time>2026-04-19T08:20:58.615Z</time></trkpt><trkpt lat="45.6614046" lon="8.229654"><ele>644.0</ele><time>2026-04-19T08:21:00.615Z</time></trkpt><trkpt lat="45.6614825" lon="8.2296031"><ele>644.0</ele><time>2026-04-19T08:21:02.615Z</time></trkpt><trkpt lat="45.6615451" lon="8.2295768"><ele>644.0</ele><time>2026-04-19T08:21:03.613Z</time></trkpt><trkpt lat="45.6616083" lon="8.2295818"><ele>644.0</ele><time>2026-04-19T08:21:04.615Z</time></trkpt><trkpt lat="45.6616741" lon="8.2296248"><ele>644.0</ele><time>2026-04-19T08:21:05.614Z</time></trkpt><trkpt lat="45.6617549" lon="8.2296659"><ele>644.0</ele><time>2026-04-19T08:21:06.614Z</time></trkpt><trkpt lat="45.6618436" lon="8.2296927"><ele>644.0</ele><time>2026-04-19T08:21:07.614Z</time></trkpt><trkpt lat="45.6619279" lon="8.2297197"><ele>645.4000000000001</ele><time>2026-04-19T08:21:08.616Z</time></trkpt><trkpt lat="45.6620207" lon="8.2297378"><ele>646.8</ele><time>2026-04-19T08:21:09.615Z</time></trkpt><trkpt lat="45.6620938" lon="8.2297523"><ele>648.2</ele><time>2026-04-19T08:21:10.615Z</time></trkpt><trkpt lat="45.6621669" lon="8.229778"><ele>649.5999999999999</ele><time>2026-04-19T08:21:11.615Z</time></trkpt><trkpt lat="45.6622758" lon="8.2298802"><ele>651.0</ele><time>2026-04-19T08:21:13.615Z</time></trkpt><trkpt lat="45.6623302" lon="8.2299574"><ele>655.5999999999999</ele><time>2026-04-19T08:21:14.616Z</time></trkpt><trkpt lat="45.6623964" lon="8.2300534"><ele>660.2</ele><time>2026-04-19T08:21:15.616Z</time></trkpt><trkpt lat="45.6624651" lon="8.2301416"><ele>664.8</ele><time>2026-04-19T08:21:16.614Z</time></trkpt><trkpt lat="45.6625236" lon="8.2302365"><ele>669.4000000000001</ele><time>2026-04-19T08:21:17.615Z</time></trkpt><trkpt lat="45.6625502" lon="8.2303869"><ele>674.0</ele><time>2026-04-19T08:21:19.614Z</time></trkpt><trkpt lat="45.6625619" lon="8.2304874"><ele>676.2</ele><time>2026-04-19T08:21:20.614Z</time></trkpt><trkpt lat="45.6625969" lon="8.230658"><ele>678.4000000000001</ele><time>2026-04-19T08:21:22.615Z</time></trkpt><trkpt lat="45.6626523" lon="8.2307742"><ele>680.6</ele><time>2026-04-19T08:21:24.615Z</time></trkpt><trkpt lat="45.6626532" lon="8.2308816"><ele>682.8</ele><time>2026-04-19T08:21:26.615Z</time></trkpt><trkpt lat="45.6625534" lon="8.2308307"><ele>685.0</ele><time>2026-04-19T08:21:29.616Z</time></trkpt><trkpt lat="45.6625018" lon="8.2307576"><ele>685.0</ele><time>2026-04-19T08:21:30.615Z</time></trkpt><trkpt lat="45.6624588" lon="8.2306636"><ele>685.0</ele><time>2026-04-19T08:21:31.614Z</time></trkpt><trkpt lat="45.6623787" lon="8.2305109"><ele>685.0</ele><time>2026-04-19T08:21:33.615Z</time></trkpt><trkpt lat="45.6623216" lon="8.2304576"><ele>685.0</ele><time>2026-04-19T08:21:34.615Z</time></trkpt><trkpt lat="45.6621975" lon="8.2303989"><ele>685.0</ele><time>2026-04-19T08:21:36.615Z</time></trkpt><trkpt lat="45.6621239" lon="8.230412"><ele>685.6666666666667</ele><time>2026-04-19T08:21:37.615Z</time></trkpt><trkpt lat="45.6620549" lon="8.2304344"><ele>686.3333333333334</ele><time>2026-04-19T08:21:38.615Z</time></trkpt><trkpt lat="45.6619669" lon="8.2305308"><ele>687.0</ele><time>2026-04-19T08:21:40.614Z</time></trkpt><trkpt lat="45.6619347" lon="8.2306336"><ele>687.6666666666666</ele><time>2026-04-19T08:21:41.615Z</time></trkpt><trkpt lat="45.6619077" lon="8.2307284"><ele>688.3333333333333</ele><time>2026-04-19T08:21:42.614Z</time></trkpt><trkpt lat="45.6618879" lon="8.2308733"><ele>689.0</ele><time>2026-04-19T08:21:43.614Z</time></trkpt><trkpt lat="45.6618589" lon="8.2310061"><ele>689.0</ele><time>2026-04-19T08:21:44.615Z</time></trkpt><trkpt lat="45.6618203" lon="8.2311314"><ele>689.0</ele><time>2026-04-19T08:21:45.615Z</time></trkpt><trkpt lat="45.6617601" lon="8.2312781"><ele>689.0</ele><time>2026-04-19T08:21:46.614Z</time></trkpt><trkpt lat="45.661704" lon="8.2314273"><ele>689.0</ele><time>2026-04-19T08:21:47.614Z</time></trkpt><trkpt lat="45.6616434" lon="8.2315617"><ele>689.0</ele><time>2026-04-19T08:21:48.616Z</time></trkpt><trkpt lat="45.661593" lon="8.2316731"><ele>691.0</ele><time>2026-04-19T08:21:49.615Z</time></trkpt><trkpt lat="45.6615372" lon="8.2317667"><ele>693.0</ele><time>2026-04-19T08:21:50.615Z</time></trkpt><trkpt lat="45.6614808" lon="8.2318246"><ele>695.0</ele><time>2026-04-19T08:21:51.615Z</time></trkpt><trkpt lat="45.6614069" lon="8.2318694"><ele>697.0</ele><time>2026-04-19T08:21:52.614Z</time></trkpt><trkpt lat="45.6613239" lon="8.2318854"><ele>699.0</ele><time>2026-04-19T08:21:53.614Z</time></trkpt><trkpt lat="45.6612486" lon="8.2318958"><ele>701.0</ele><time>2026-04-19T08:21:54.615Z</time></trkpt><trkpt lat="45.6611766" lon="8.2319169"><ele>701.5999999999999</ele><time>2026-04-19T08:21:55.614Z</time></trkpt><trkpt lat="45.6611111" lon="8.2319637"><ele>702.2</ele><time>2026-04-19T08:21:56.614Z</time></trkpt><trkpt lat="45.6610276" lon="8.2320115"><ele>702.8</ele><time>2026-04-19T08:21:57.614Z</time></trkpt><trkpt lat="45.6609402" lon="8.2320646"><ele>703.4000000000001</ele><time>2026-04-19T08:21:58.614Z</time></trkpt><trkpt lat="45.6608454" lon="8.2321118"><ele>704.0</ele><time>2026-04-19T08:21:59.615Z</time></trkpt><trkpt lat="45.6607238" lon="8.2321754"><ele>704.0</ele><time>2026-04-19T08:22:00.616Z</time></trkpt><trkpt lat="45.6606225" lon="8.2322298"><ele>704.0</ele><time>2026-04-19T08:22:01.614Z</time></trkpt><trkpt lat="45.6605439" lon="8.232287"><ele>704.0</ele><time>2026-04-19T08:22:02.614Z</time></trkpt><trkpt lat="45.660462" lon="8.2323555"><ele>704.0</ele><time>2026-04-19T08:22:03.615Z</time></trkpt><trkpt lat="45.6603806" lon="8.2324248"><ele>704.0</ele><time>2026-04-19T08:22:04.614Z</time></trkpt><trkpt lat="45.6603085" lon="8.2325063"><ele>702.8000000000001</ele><time>2026-04-19T08:22:05.614Z</time></trkpt><trkpt lat="45.6602388" lon="8.232593"><ele>701.6</ele><time>2026-04-19T08:22:06.614Z</time></trkpt><trkpt lat="45.6601663" lon="8.232683"><ele>700.4</ele><time>2026-04-19T08:22:07.614Z</time></trkpt><trkpt lat="45.6600875" lon="8.2327886"><ele>699.2</ele><time>2026-04-19T08:22:08.615Z</time></trkpt><trkpt lat="45.6600153" lon="8.2329004"><ele>698.0</ele><time>2026-04-19T08:22:09.616Z</time></trkpt><trkpt lat="45.6599428" lon="8.2330014"><ele>698.0</ele><time>2026-04-19T08:22:10.616Z</time></trkpt><trkpt lat="45.6598702" lon="8.2330976"><ele>698.0</ele><time>2026-04-19T08:22:11.615Z</time></trkpt><trkpt lat="45.6598083" lon="8.2331991"><ele>698.0</ele><time>2026-04-19T08:22:12.615Z</time></trkpt><trkpt lat="45.6597517" lon="8.233308"><ele>698.0</ele><time>2026-04-19T08:22:13.615Z</time></trkpt><trkpt lat="45.6596915" lon="8.2334243"><ele>698.0</ele><time>2026-04-19T08:22:14.614Z</time></trkpt><trkpt lat="45.6596446" lon="8.23353"><ele>697.6666666666666</ele><time>2026-04-19T08:22:15.614Z</time></trkpt><trkpt lat="45.6596011" lon="8.2336276"><ele>697.3333333333333</ele><time>2026-04-19T08:22:16.614Z</time></trkpt><trkpt lat="45.6595642" lon="8.2337171"><ele>697.0</ele><time>2026-04-19T08:22:17.615Z</time></trkpt><trkpt lat="45.6595228" lon="8.2337904"><ele>696.6666666666666</ele><time>2026-04-19T08:22:18.615Z</time></trkpt><trkpt lat="45.6594664" lon="8.2338585"><ele>696.3333333333334</ele><time>2026-04-19T08:22:19.614Z</time></trkpt><trkpt lat="45.6594144" lon="8.2339334"><ele>696.0</ele><time>2026-04-19T08:22:20.615Z</time></trkpt><trkpt lat="45.659327" lon="8.2340705"><ele>691.6666666666666</ele><time>2026-04-19T08:22:22.614Z</time></trkpt><trkpt lat="45.6592824" lon="8.2341507"><ele>687.3333333333334</ele><time>2026-04-19T08:22:23.615Z</time></trkpt><trkpt lat="45.6592255" lon="8.2342281"><ele>683.0</ele><time>2026-04-19T08:22:24.614Z</time></trkpt><trkpt lat="45.6591711" lon="8.2343011"><ele>678.6666666666667</ele><time>2026-04-19T08:22:25.615Z</time></trkpt><trkpt lat="45.6591214" lon="8.234375"><ele>674.3333333333334</ele><time>2026-04-19T08:22:26.616Z</time></trkpt><trkpt lat="45.6590672" lon="8.2345298"><ele>670.0</ele><time>2026-04-19T08:22:28.615Z</time></trkpt><trkpt lat="45.6590415" lon="8.2346484"><ele>670.0</ele><time>2026-04-19T08:22:29.616Z</time></trkpt><trkpt lat="45.6590233" lon="8.2347668"><ele>670.0</ele><time>2026-04-19T08:22:30.615Z</time></trkpt><trkpt lat="45.6589857" lon="8.2349042"><ele>670.0</ele><time>2026-04-19T08:22:31.614Z</time></trkpt><trkpt lat="45.6589603" lon="8.235026"><ele>670.0</ele><time>2026-04-19T08:22:32.615Z</time></trkpt><trkpt lat="45.6589444" lon="8.2351249"><ele>670.0</ele><time>2026-04-19T08:22:33.615Z</time></trkpt><trkpt lat="45.6589502" lon="8.2352203"><ele>670.0</ele><time>2026-04-19T08:22:35.614Z</time></trkpt><trkpt lat="45.6590137" lon="8.235153"><ele>670.0</ele><time>2026-04-19T08:22:39.614Z</time></trkpt><trkpt lat="45.6590584" lon="8.2350426"><ele>670.0</ele><time>2026-04-19T08:22:41.615Z</time></trkpt><trkpt lat="45.6591161" lon="8.2349157"><ele>670.0</ele><time>2026-04-19T08:22:43.615Z</time></trkpt><trkpt lat="45.6591739" lon="8.2347916"><ele>670.0</ele><time>2026-04-19T08:22:45.615Z</time></trkpt><trkpt lat="45.6592516" lon="8.2347242"><ele>670.0</ele><time>2026-04-19T08:22:47.616Z</time></trkpt><trkpt lat="45.6593255" lon="8.2346632"><ele>669.9999999999999</ele><time>2026-04-19T08:22:49.615Z</time></trkpt><trkpt lat="45.6593986" lon="8.2346005"><ele>670.0</ele><time>2026-04-19T08:23:06.614Z</time></trkpt><trkpt lat="45.6594613" lon="8.2345618"><ele>670.0</ele><time>2026-04-19T08:23:07.616Z</time></trkpt><trkpt lat="45.6595246" lon="8.2345236"><ele>670.0</ele><time>2026-04-19T08:23:08.613Z</time></trkpt><trkpt lat="45.6595882" lon="8.2344847"><ele>670.0</ele><time>2026-04-19T08:23:09.615Z</time></trkpt><trkpt lat="45.6596473" lon="8.2344246"><ele>669.9999999999999</ele><time>2026-04-19T08:23:10.615Z</time></trkpt><trkpt lat="45.6597118" lon="8.2343928"><ele>670.0</ele><time>2026-04-19T08:23:11.616Z</time></trkpt><trkpt lat="45.659778" lon="8.2343493"><ele>670.4</ele><time>2026-04-19T08:23:12.616Z</time></trkpt><trkpt lat="45.659861" lon="8.2343315"><ele>670.8</ele><time>2026-04-19T08:23:13.614Z</time></trkpt><trkpt lat="45.659945" lon="8.2343211"><ele>671.2</ele><time>2026-04-19T08:23:14.615Z</time></trkpt><trkpt lat="45.6600472" lon="8.234315"><ele>671.6</ele><time>2026-04-19T08:23:15.614Z</time></trkpt><trkpt lat="45.6601495" lon="8.2343206"><ele>672.0</ele><time>2026-04-19T08:23:16.616Z</time></trkpt><trkpt lat="45.6602377" lon="8.2343152"><ele>674.8</ele><time>2026-04-19T08:23:17.615Z</time></trkpt><trkpt lat="45.660312" lon="8.2342903"><ele>677.6</ele><time>2026-04-19T08:23:18.615Z</time></trkpt><trkpt lat="45.6603716" lon="8.234226"><ele>680.4</ele><time>2026-04-19T08:23:19.615Z</time></trkpt><trkpt lat="45.6604528" lon="8.2340576"><ele>683.1999999999999</ele><time>2026-04-19T08:23:21.615Z</time></trkpt><trkpt lat="45.6605086" lon="8.2339574"><ele>686.0</ele><time>2026-04-19T08:23:22.614Z</time></trkpt><trkpt lat="45.660576" lon="8.2338801"><ele>686.0</ele><time>2026-04-19T08:23:23.614Z</time></trkpt><trkpt lat="45.660629" lon="8.2337948"><ele>686.0</ele><time>2026-04-19T08:23:24.614Z</time></trkpt><trkpt lat="45.6606845" lon="8.2337122"><ele>686.0</ele><time>2026-04-19T08:23:25.615Z</time></trkpt><trkpt lat="45.6607567" lon="8.2336511"><ele>686.0</ele><time>2026-04-19T08:23:26.615Z</time></trkpt><trkpt lat="45.6608139" lon="8.2336096"><ele>686.0</ele><time>2026-04-19T08:23:27.615Z</time></trkpt><trkpt lat="45.6609365" lon="8.2336571"><ele>686.0</ele><time>2026-04-19T08:23:29.615Z</time></trkpt><trkpt lat="45.6609971" lon="8.2337248"><ele>686.0</ele><time>2026-04-19T08:23:30.615Z</time></trkpt><trkpt lat="45.6610592" lon="8.2337786"><ele>686.0</ele><time>2026-04-19T08:23:31.615Z</time></trkpt><trkpt lat="45.661103" lon="8.2338613"><ele>686.0</ele><time>2026-04-19T08:23:32.614Z</time></trkpt><trkpt lat="45.6611497" lon="8.2339339"><ele>686.0</ele><time>2026-04-19T08:23:33.615Z</time></trkpt><trkpt lat="45.6612072" lon="8.2339796"><ele>686.0</ele><time>2026-04-19T08:23:34.614Z</time></trkpt><trkpt lat="45.6613223" lon="8.2340247"><ele>686.0</ele><time>2026-04-19T08:23:36.615Z</time></trkpt><trkpt lat="45.6614036" lon="8.2340143"><ele>675.0</ele><time>2026-04-19T08:23:37.613Z</time></trkpt><trkpt lat="45.6614834" lon="8.2340058"><ele>664.0</ele><time>2026-04-19T08:23:38.615Z</time></trkpt><trkpt lat="45.6615896" lon="8.2339948"><ele>653.0</ele><time>2026-04-19T08:23:39.615Z</time></trkpt><trkpt lat="45.661744" lon="8.2340095"><ele>642.0</ele><time>2026-04-19T08:23:40.614Z</time></trkpt><trkpt lat="45.6618821" lon="8.234027"><ele>642.0</ele><time>2026-04-19T08:23:41.615Z</time></trkpt><trkpt lat="45.6620307" lon="8.2340548"><ele>642.0</ele><time>2026-04-19T08:23:42.616Z</time></trkpt><trkpt lat="45.6621306" lon="8.2340943"><ele>642.0</ele><time>2026-04-19T08:23:43.615Z</time></trkpt><trkpt lat="45.662211" lon="8.2341387"><ele>642.0</ele><time>2026-04-19T08:23:44.615Z</time></trkpt><trkpt lat="45.6622665" lon="8.2342159"><ele>642.0</ele><time>2026-04-19T08:23:45.615Z</time></trkpt><trkpt lat="45.662296" lon="8.234309"><ele>642.0</ele><time>2026-04-19T08:23:46.615Z</time></trkpt><trkpt lat="45.6623173" lon="8.2344247"><ele>642.0</ele><time>2026-04-19T08:23:47.615Z</time></trkpt><trkpt lat="45.6623394" lon="8.234549"><ele>642.0</ele><time>2026-04-19T08:23:48.615Z</time></trkpt><trkpt lat="45.6623655" lon="8.2346528"><ele>642.0</ele><time>2026-04-19T08:23:49.615Z</time></trkpt><trkpt lat="45.6623945" lon="8.2347422"><ele>642.0</ele><time>2026-04-19T08:23:50.615Z</time></trkpt><trkpt lat="45.6624629" lon="8.2348113"><ele>642.0</ele><time>2026-04-19T08:23:51.615Z</time></trkpt><trkpt lat="45.662536" lon="8.2348703"><ele>641.0</ele><time>2026-04-19T08:23:52.615Z</time></trkpt><trkpt lat="45.6626136" lon="8.2349182"><ele>640.0</ele><time>2026-04-19T08:23:53.615Z</time></trkpt><trkpt lat="45.6626949" lon="8.2349243"><ele>639.0</ele><time>2026-04-19T08:23:54.615Z</time></trkpt><trkpt lat="45.6627903" lon="8.2349306"><ele>638.0</ele><time>2026-04-19T08:23:55.615Z</time></trkpt><trkpt lat="45.6628831" lon="8.2349424"><ele>637.0</ele><time>2026-04-19T08:23:56.616Z</time></trkpt><trkpt lat="45.662968" lon="8.2349663"><ele>636.0</ele><time>2026-04-19T08:23:57.616Z</time></trkpt><trkpt lat="45.6630512" lon="8.2350272"><ele>636.0</ele><time>2026-04-19T08:23:58.615Z</time></trkpt><trkpt lat="45.6631393" lon="8.2350974"><ele>636.0</ele><time>2026-04-19T08:23:59.615Z</time></trkpt><trkpt lat="45.6632289" lon="8.2351859"><ele>636.0</ele><time>2026-04-19T08:24:00.614Z</time></trkpt><trkpt lat="45.6633061" lon="8.2352796"><ele>636.0</ele><time>2026-04-19T08:24:01.615Z</time></trkpt><trkpt lat="45.6633567" lon="8.2353645"><ele>636.0</ele><time>2026-04-19T08:24:02.614Z</time></trkpt><trkpt lat="45.6633963" lon="8.2354544"><ele>636.0</ele><time>2026-04-19T08:24:03.615Z</time></trkpt><trkpt lat="45.6634114" lon="8.2355484"><ele>636.0</ele><time>2026-04-19T08:24:04.614Z</time></trkpt><trkpt lat="45.6634329" lon="8.2356519"><ele>636.0</ele><time>2026-04-19T08:24:05.616Z</time></trkpt><trkpt lat="45.6634534" lon="8.235741"><ele>636.0</ele><time>2026-04-19T08:24:06.613Z</time></trkpt><trkpt lat="45.6634846" lon="8.2358431"><ele>636.0</ele><time>2026-04-19T08:24:07.616Z</time></trkpt><trkpt lat="45.6635198" lon="8.2359386"><ele>636.0</ele><time>2026-04-19T08:24:08.615Z</time></trkpt><trkpt lat="45.6636205" lon="8.2360476"><ele>638.0</ele><time>2026-04-19T08:24:10.616Z</time></trkpt><trkpt lat="45.663675" lon="8.2361061"><ele>640.0</ele><time>2026-04-19T08:24:11.615Z</time></trkpt><trkpt lat="45.6637141" lon="8.2361768"><ele>642.0</ele><time>2026-04-19T08:24:12.614Z</time></trkpt><trkpt lat="45.6637434" lon="8.23636"><ele>644.0</ele><time>2026-04-19T08:24:14.615Z</time></trkpt><trkpt lat="45.6637473" lon="8.2364814"><ele>646.0</ele><time>2026-04-19T08:24:15.615Z</time></trkpt><trkpt lat="45.6637477" lon="8.2366023"><ele>648.0</ele><time>2026-04-19T08:24:16.615Z</time></trkpt><trkpt lat="45.6637374" lon="8.2367107"><ele>650.5</ele><time>2026-04-19T08:24:17.615Z</time></trkpt><trkpt lat="45.6637112" lon="8.2368048"><ele>653.0</ele><time>2026-04-19T08:24:18.615Z</time></trkpt><trkpt lat="45.6636781" lon="8.2369048"><ele>655.5</ele><time>2026-04-19T08:24:19.615Z</time></trkpt><trkpt lat="45.6636552" lon="8.2370007"><ele>658.0</ele><time>2026-04-19T08:24:20.615Z</time></trkpt><trkpt lat="45.6636447" lon="8.2370924"><ele>660.5</ele><time>2026-04-19T08:24:21.615Z</time></trkpt><trkpt lat="45.6636861" lon="8.2372589"><ele>663.0</ele><time>2026-04-19T08:24:23.615Z</time></trkpt><trkpt lat="45.6637368" lon="8.237336"><ele>665.1666666666666</ele><time>2026-04-19T08:24:24.615Z</time></trkpt><trkpt lat="45.6637869" lon="8.2374083"><ele>667.3333333333334</ele><time>2026-04-19T08:24:25.615Z</time></trkpt><trkpt lat="45.6638184" lon="8.2374932"><ele>669.5</ele><time>2026-04-19T08:24:26.615Z</time></trkpt><trkpt lat="45.6638267" lon="8.237587"><ele>671.6666666666667</ele><time>2026-04-19T08:24:27.615Z</time></trkpt><trkpt lat="45.6638192" lon="8.2377121"><ele>673.8333333333334</ele><time>2026-04-19T08:24:28.614Z</time></trkpt><trkpt lat="45.6638103" lon="8.2378667"><ele>676.0</ele><time>2026-04-19T08:24:29.616Z</time></trkpt><trkpt lat="45.663806" lon="8.2380436"><ele>675.5</ele><time>2026-04-19T08:24:30.615Z</time></trkpt><trkpt lat="45.6637924" lon="8.2382098"><ele>675.0</ele><time>2026-04-19T08:24:31.615Z</time></trkpt><trkpt lat="45.6637769" lon="8.2383367"><ele>674.5</ele><time>2026-04-19T08:24:32.615Z</time></trkpt><trkpt lat="45.6637808" lon="8.2384596"><ele>674.0</ele><time>2026-04-19T08:24:33.615Z</time></trkpt><trkpt lat="45.6638" lon="8.2385682"><ele>673.5</ele><time>2026-04-19T08:24:34.615Z</time></trkpt><trkpt lat="45.6638354" lon="8.2386545"><ele>673.0</ele><time>2026-04-19T08:24:35.616Z</time></trkpt><trkpt lat="45.6638875" lon="8.2387149"><ele>673.0</ele><time>2026-04-19T08:24:36.615Z</time></trkpt><trkpt lat="45.6639478" lon="8.2387528"><ele>673.0</ele><time>2026-04-19T08:24:37.616Z</time></trkpt><trkpt lat="45.6640218" lon="8.2387588"><ele>673.0</ele><time>2026-04-19T08:24:38.615Z</time></trkpt><trkpt lat="45.6640876" lon="8.2387864"><ele>673.0</ele><time>2026-04-19T08:24:39.615Z</time></trkpt><trkpt lat="45.6641363" lon="8.2388437"><ele>673.0</ele><time>2026-04-19T08:24:40.615Z</time></trkpt><trkpt lat="45.6642451" lon="8.2388989"><ele>673.0</ele><time>2026-04-19T08:24:42.615Z</time></trkpt><trkpt lat="45.6643409" lon="8.2388745"><ele>671.2</ele><time>2026-04-19T08:24:44.615Z</time></trkpt><trkpt lat="45.6644515" lon="8.2388139"><ele>669.4</ele><time>2026-04-19T08:24:46.616Z</time></trkpt><trkpt lat="45.6645689" lon="8.2388201"><ele>667.6</ele><time>2026-04-19T08:24:48.615Z</time></trkpt><trkpt lat="45.6646737" lon="8.2388146"><ele>665.8000000000001</ele><time>2026-04-19T08:24:50.614Z</time></trkpt><trkpt lat="45.6647646" lon="8.2388903"><ele>664.0</ele><time>2026-04-19T08:24:52.615Z</time></trkpt><trkpt lat="45.6648438" lon="8.2390052"><ele>664.0</ele><time>2026-04-19T08:24:54.615Z</time></trkpt><trkpt lat="45.6648779" lon="8.2390958"><ele>664.0</ele><time>2026-04-19T08:24:55.615Z</time></trkpt><trkpt lat="45.6649094" lon="8.2391799"><ele>664.0</ele><time>2026-04-19T08:24:56.616Z</time></trkpt><trkpt lat="45.6649672" lon="8.2392602"><ele>664.0</ele><time>2026-04-19T08:24:57.614Z</time></trkpt><trkpt lat="45.6650188" lon="8.239327"><ele>664.0</ele><time>2026-04-19T08:24:58.614Z</time></trkpt><trkpt lat="45.6650799" lon="8.2393898"><ele>664.0</ele><time>2026-04-19T08:24:59.616Z</time></trkpt><trkpt lat="45.6651257" lon="8.2394611"><ele>664.0</ele><time>2026-04-19T08:25:00.615Z</time></trkpt><trkpt lat="45.6651689" lon="8.2395448"><ele>664.0</ele><time>2026-04-19T08:25:01.614Z</time></trkpt><trkpt lat="45.6651839" lon="8.2396635"><ele>664.0</ele><time>2026-04-19T08:25:02.615Z</time></trkpt><trkpt lat="45.6652226" lon="8.2397868"><ele>664.0</ele><time>2026-04-19T08:25:03.614Z</time></trkpt><trkpt lat="45.6652413" lon="8.2399524"><ele>664.0</ele><time>2026-04-19T08:25:04.615Z</time></trkpt><trkpt lat="45.6652899" lon="8.2401145"><ele>664.0</ele><time>2026-04-19T08:25:05.616Z</time></trkpt><trkpt lat="45.6653404" lon="8.240275"><ele>663.8000000000001</ele><time>2026-04-19T08:25:06.615Z</time></trkpt><trkpt lat="45.6653602" lon="8.2404236"><ele>663.6</ele><time>2026-04-19T08:25:07.615Z</time></trkpt><trkpt lat="45.6653671" lon="8.2405767"><ele>663.4</ele><time>2026-04-19T08:25:08.615Z</time></trkpt><trkpt lat="45.6653599" lon="8.2407238"><ele>663.2</ele><time>2026-04-19T08:25:09.616Z</time></trkpt><trkpt lat="45.6653289" lon="8.2408542"><ele>663.0</ele><time>2026-04-19T08:25:10.614Z</time></trkpt><trkpt lat="45.6653281" lon="8.2409539"><ele>661.3333333333334</ele><time>2026-04-19T08:25:11.615Z</time></trkpt><trkpt lat="45.6653276" lon="8.2410676"><ele>659.6666666666666</ele><time>2026-04-19T08:25:12.615Z</time></trkpt><trkpt lat="45.665347" lon="8.2411745"><ele>658.0</ele><time>2026-04-19T08:25:13.615Z</time></trkpt><trkpt lat="45.6653845" lon="8.2412866"><ele>656.3333333333333</ele><time>2026-04-19T08:25:14.616Z</time></trkpt><trkpt lat="45.665418" lon="8.2413866"><ele>654.6666666666666</ele><time>2026-04-19T08:25:15.615Z</time></trkpt><trkpt lat="45.6654697" lon="8.2414607"><ele>653.0</ele><time>2026-04-19T08:25:16.615Z</time></trkpt><trkpt lat="45.6655676" lon="8.2415108"><ele>653.0</ele><time>2026-04-19T08:25:18.615Z</time></trkpt><trkpt lat="45.66568" lon="8.241468"><ele>653.0</ele><time>2026-04-19T08:25:20.614Z</time></trkpt><trkpt lat="45.6657374" lon="8.2414304"><ele>653.0</ele><time>2026-04-19T08:25:21.614Z</time></trkpt><trkpt lat="45.6658003" lon="8.2414007"><ele>653.0</ele><time>2026-04-19T08:25:22.614Z</time></trkpt><trkpt lat="45.6659124" lon="8.2413261"><ele>653.0</ele><time>2026-04-19T08:25:24.615Z</time></trkpt><trkpt lat="45.6660187" lon="8.241261"><ele>653.0</ele><time>2026-04-19T08:25:26.615Z</time></trkpt><trkpt lat="45.6660864" lon="8.2412577"><ele>653.0</ele><time>2026-04-19T08:25:27.616Z</time></trkpt><trkpt lat="45.6661653" lon="8.2412542"><ele>653.0</ele><time>2026-04-19T08:25:28.614Z</time></trkpt><trkpt lat="45.6662394" lon="8.2412807"><ele>653.0</ele><time>2026-04-19T08:25:29.615Z</time></trkpt><trkpt lat="45.6663301" lon="8.2413117"><ele>653.0</ele><time>2026-04-19T08:25:30.615Z</time></trkpt><trkpt lat="45.6664051" lon="8.2413403"><ele>653.0</ele><time>2026-04-19T08:25:31.615Z</time></trkpt><trkpt lat="45.6664862" lon="8.2413514"><ele>649.5</ele><time>2026-04-19T08:25:32.616Z</time></trkpt><trkpt lat="45.6665624" lon="8.2413595"><ele>646.0</ele><time>2026-04-19T08:25:33.614Z</time></trkpt><trkpt lat="45.6666393" lon="8.2413623"><ele>642.5</ele><time>2026-04-19T08:25:34.614Z</time></trkpt><trkpt lat="45.6667296" lon="8.2413466"><ele>639.0</ele><time>2026-04-19T08:25:35.615Z</time></trkpt><trkpt lat="45.6668126" lon="8.2413423"><ele>635.5</ele><time>2026-04-19T08:25:36.615Z</time></trkpt><trkpt lat="45.6669088" lon="8.2413543"><ele>632.0</ele><time>2026-04-19T08:25:37.615Z</time></trkpt><trkpt lat="45.6669963" lon="8.2413881"><ele>628.0</ele><time>2026-04-19T08:25:38.615Z</time></trkpt><trkpt lat="45.6670732" lon="8.2414379"><ele>624.0</ele><time>2026-04-19T08:25:39.615Z</time></trkpt><trkpt lat="45.667137" lon="8.2415236"><ele>620.0</ele><time>2026-04-19T08:25:40.615Z</time></trkpt><trkpt lat="45.6671818" lon="8.2416207"><ele>616.0</ele><time>2026-04-19T08:25:41.614Z</time></trkpt><trkpt lat="45.667221" lon="8.2417227"><ele>612.0</ele><time>2026-04-19T08:25:42.615Z</time></trkpt><trkpt lat="45.6672463" lon="8.241821"><ele>608.0</ele><time>2026-04-19T08:25:43.615Z</time></trkpt><trkpt lat="45.667276" lon="8.2419018"><ele>608.0</ele><time>2026-04-19T08:25:44.615Z</time></trkpt><trkpt lat="45.6672977" lon="8.242005"><ele>608.0</ele><time>2026-04-19T08:25:45.615Z</time></trkpt><trkpt lat="45.6673181" lon="8.2421248"><ele>608.0</ele><time>2026-04-19T08:25:46.615Z</time></trkpt><trkpt lat="45.6673266" lon="8.2423101"><ele>608.0</ele><time>2026-04-19T08:25:47.615Z</time></trkpt><trkpt lat="45.6673449" lon="8.2424926"><ele>608.0</ele><time>2026-04-19T08:25:48.615Z</time></trkpt><trkpt lat="45.6673687" lon="8.2426627"><ele>605.8</ele><time>2026-04-19T08:25:49.614Z</time></trkpt><trkpt lat="45.6673869" lon="8.2428338"><ele>603.5999999999999</ele><time>2026-04-19T08:25:50.615Z</time></trkpt><trkpt lat="45.6674013" lon="8.2429814"><ele>601.4000000000001</ele><time>2026-04-19T08:25:51.616Z</time></trkpt><trkpt lat="45.6674336" lon="8.2431261"><ele>599.2</ele><time>2026-04-19T08:25:52.615Z</time></trkpt><trkpt lat="45.6674826" lon="8.2432777"><ele>597.0</ele><time>2026-04-19T08:25:53.615Z</time></trkpt><trkpt lat="45.667548" lon="8.2434322"><ele>596.0</ele><time>2026-04-19T08:25:54.616Z</time></trkpt><trkpt lat="45.6676133" lon="8.2435832"><ele>595.0</ele><time>2026-04-19T08:25:55.615Z</time></trkpt><trkpt lat="45.6676684" lon="8.2437172"><ele>594.0</ele><time>2026-04-19T08:25:56.615Z</time></trkpt><trkpt lat="45.6677137" lon="8.243829"><ele>593.0</ele><time>2026-04-19T08:25:57.615Z</time></trkpt><trkpt lat="45.667745" lon="8.2439312"><ele>592.0</ele><time>2026-04-19T08:25:58.614Z</time></trkpt><trkpt lat="45.6677567" lon="8.2440382"><ele>591.3333333333334</ele><time>2026-04-19T08:25:59.615Z</time></trkpt><trkpt lat="45.6677656" lon="8.2441392"><ele>590.6666666666667</ele><time>2026-04-19T08:26:00.615Z</time></trkpt><trkpt lat="45.6677661" lon="8.2442372"><ele>590.0</ele><time>2026-04-19T08:26:01.614Z</time></trkpt><trkpt lat="45.6677624" lon="8.244328"><ele>589.3333333333334</ele><time>2026-04-19T08:26:02.614Z</time></trkpt><trkpt lat="45.6677481" lon="8.2444926"><ele>588.6666666666666</ele><time>2026-04-19T08:26:04.614Z</time></trkpt><trkpt lat="45.6677357" lon="8.2446314"><ele>588.0</ele><time>2026-04-19T08:26:06.614Z</time></trkpt><trkpt lat="45.6677297" lon="8.2447652"><ele>588.0</ele><time>2026-04-19T08:26:08.615Z</time></trkpt><trkpt lat="45.6677397" lon="8.2448958"><ele>588.0</ele><time>2026-04-19T08:26:10.614Z</time></trkpt><trkpt lat="45.6677404" lon="8.2449997"><ele>588.0</ele><time>2026-04-19T08:26:12.614Z</time></trkpt><trkpt lat="45.6676775" lon="8.2450491"><ele>588.0</ele><time>2026-04-19T08:26:16.616Z</time></trkpt><trkpt lat="45.6676119" lon="8.2449685"><ele>588.0</ele><time>2026-04-19T08:26:19.615Z</time></trkpt><trkpt lat="45.6675674" lon="8.2448691"><ele>588.0</ele><time>2026-04-19T08:26:21.615Z</time></trkpt><trkpt lat="45.6675045" lon="8.244767"><ele>588.0</ele><time>2026-04-19T08:26:23.614Z</time></trkpt><trkpt lat="45.6674325" lon="8.2447248"><ele>588.0</ele><time>2026-04-19T08:26:25.614Z</time></trkpt><trkpt lat="45.6673764" lon="8.2447933"><ele>588.0</ele><time>2026-04-19T08:26:27.615Z</time></trkpt><trkpt lat="45.6673557" lon="8.2449106"><ele>588.0</ele><time>2026-04-19T08:26:29.616Z</time></trkpt><trkpt lat="45.6673296" lon="8.2450258"><ele>588.0</ele><time>2026-04-19T08:26:31.615Z</time></trkpt><trkpt lat="45.6672996" lon="8.2451321"><ele>588.0</ele><time>2026-04-19T08:26:33.614Z</time></trkpt><trkpt lat="45.6672837" lon="8.2452417"><ele>586.0</ele><time>2026-04-19T08:26:35.615Z</time></trkpt><trkpt lat="45.6672825" lon="8.2453475"><ele>584.0</ele><time>2026-04-19T08:26:37.614Z</time></trkpt><trkpt lat="45.6672635" lon="8.2454615"><ele>582.0</ele><time>2026-04-19T08:26:39.614Z</time></trkpt><trkpt lat="45.6671869" lon="8.2455403"><ele>580.0</ele><time>2026-04-19T08:26:41.614Z</time></trkpt><trkpt lat="45.6670956" lon="8.2456278"><ele>578.0</ele><time>2026-04-19T08:26:43.615Z</time></trkpt><trkpt lat="45.6670159" lon="8.2457247"><ele>574.4</ele><time>2026-04-19T08:26:45.615Z</time></trkpt><trkpt lat="45.6669827" lon="8.245827"><ele>570.8</ele><time>2026-04-19T08:26:47.616Z</time></trkpt><trkpt lat="45.6670034" lon="8.2459699"><ele>567.2</ele><time>2026-04-19T08:26:50.616Z</time></trkpt><trkpt lat="45.6670702" lon="8.2460957"><ele>563.6</ele><time>2026-04-19T08:26:52.614Z</time></trkpt><trkpt lat="45.6671694" lon="8.2462023"><ele>560.0</ele><time>2026-04-19T08:26:54.615Z</time></trkpt><trkpt lat="45.6672692" lon="8.2462671"><ele>560.0</ele><time>2026-04-19T08:26:56.616Z</time></trkpt><trkpt lat="45.6673605" lon="8.2462147"><ele>560.0</ele><time>2026-04-19T08:26:58.614Z</time></trkpt><trkpt lat="45.6674076" lon="8.2461531"><ele>560.0</ele><time>2026-04-19T08:26:59.615Z</time></trkpt><trkpt lat="45.6674677" lon="8.2461048"><ele>560.0</ele><time>2026-04-19T08:27:00.613Z</time></trkpt><trkpt lat="45.6675752" lon="8.246058"><ele>560.0</ele><time>2026-04-19T08:27:01.613Z</time></trkpt><trkpt lat="45.6676575" lon="8.2460288"><ele>560.0</ele><time>2026-04-19T08:27:02.614Z</time></trkpt><trkpt lat="45.6677358" lon="8.2460102"><ele>557.0</ele><time>2026-04-19T08:27:03.613Z</time></trkpt><trkpt lat="45.6678346" lon="8.2459981"><ele>554.0</ele><time>2026-04-19T08:27:05.616Z</time></trkpt><trkpt lat="45.6679109" lon="8.2461493"><ele>551.0</ele><time>2026-04-19T08:27:07.615Z</time></trkpt><trkpt lat="45.6679593" lon="8.2462336"><ele>548.0</ele><time>2026-04-19T08:27:08.614Z</time></trkpt><trkpt lat="45.6680423" lon="8.246344"><ele>545.0</ele><time>2026-04-19T08:27:09.614Z</time></trkpt><trkpt lat="45.6681186" lon="8.2464441"><ele>543.0</ele><time>2026-04-19T08:27:10.616Z</time></trkpt><trkpt lat="45.6681827" lon="8.2465658"><ele>541.0</ele><time>2026-04-19T08:27:11.614Z</time></trkpt><trkpt lat="45.668245" lon="8.2466964"><ele>539.0</ele><time>2026-04-19T08:27:12.615Z</time></trkpt><trkpt lat="45.6683237" lon="8.2468357"><ele>537.0</ele><time>2026-04-19T08:27:13.615Z</time></trkpt><trkpt lat="45.6683864" lon="8.2469707"><ele>537.0</ele><time>2026-04-19T08:27:14.615Z</time></trkpt><trkpt lat="45.6684401" lon="8.2470868"><ele>537.0</ele><time>2026-04-19T08:27:15.614Z</time></trkpt><trkpt lat="45.6684932" lon="8.2472018"><ele>537.0</ele><time>2026-04-19T08:27:16.614Z</time></trkpt><trkpt lat="45.6685453" lon="8.2473159"><ele>537.0</ele><time>2026-04-19T08:27:17.615Z</time></trkpt><trkpt lat="45.6686105" lon="8.2474129"><ele>537.0</ele><time>2026-04-19T08:27:18.615Z</time></trkpt><trkpt lat="45.6686614" lon="8.2475189"><ele>532.8000000000001</ele><time>2026-04-19T08:27:19.615Z</time></trkpt><trkpt lat="45.6686952" lon="8.2476398"><ele>528.6</ele><time>2026-04-19T08:27:20.613Z</time></trkpt><trkpt lat="45.6687203" lon="8.2477554"><ele>524.4000000000001</ele><time>2026-04-19T08:27:21.615Z</time></trkpt><trkpt lat="45.6687308" lon="8.2479217"><ele>520.2</ele><time>2026-04-19T08:27:22.616Z</time></trkpt><trkpt lat="45.6687335" lon="8.2480652"><ele>516.0</ele><time>2026-04-19T08:27:23.616Z</time></trkpt><trkpt lat="45.6687125" lon="8.2482034"><ele>515.6666666666666</ele><time>2026-04-19T08:27:24.615Z</time></trkpt><trkpt lat="45.6686797" lon="8.248324"><ele>515.3333333333334</ele><time>2026-04-19T08:27:25.614Z</time></trkpt><trkpt lat="45.6686358" lon="8.2484205"><ele>515.0</ele><time>2026-04-19T08:27:26.615Z</time></trkpt><trkpt lat="45.6685263" lon="8.2485144"><ele>514.6666666666667</ele><time>2026-04-19T08:27:28.615Z</time></trkpt><trkpt lat="45.6684766" lon="8.2485767"><ele>514.3333333333334</ele><time>2026-04-19T08:27:29.615Z</time></trkpt><trkpt lat="45.6684417" lon="8.2486558"><ele>514.0</ele><time>2026-04-19T08:27:30.615Z</time></trkpt><trkpt lat="45.6684192" lon="8.2487409"><ele>517.0</ele><time>2026-04-19T08:27:31.615Z</time></trkpt><trkpt lat="45.6684392" lon="8.2488356"><ele>520.0</ele><time>2026-04-19T08:27:32.614Z</time></trkpt><trkpt lat="45.6684577" lon="8.248938"><ele>523.0</ele><time>2026-04-19T08:27:33.614Z</time></trkpt><trkpt lat="45.6684829" lon="8.2490382"><ele>526.0</ele><time>2026-04-19T08:27:34.615Z</time></trkpt><trkpt lat="45.6685018" lon="8.2491935"><ele>529.0</ele><time>2026-04-19T08:27:35.614Z</time></trkpt><trkpt lat="45.6685071" lon="8.249325"><ele>532.0</ele><time>2026-04-19T08:27:36.614Z</time></trkpt><trkpt lat="45.6685189" lon="8.2494347"><ele>532.6</ele><time>2026-04-19T08:27:37.614Z</time></trkpt><trkpt lat="45.6685524" lon="8.2496001"><ele>533.2</ele><time>2026-04-19T08:27:39.615Z</time></trkpt><trkpt lat="45.66861" lon="8.2496791"><ele>533.8</ele><time>2026-04-19T08:27:40.616Z</time></trkpt><trkpt lat="45.6686511" lon="8.2497854"><ele>534.4</ele><time>2026-04-19T08:27:41.615Z</time></trkpt><trkpt lat="45.6686795" lon="8.2499169"><ele>535.0</ele><time>2026-04-19T08:27:42.616Z</time></trkpt><trkpt lat="45.6687039" lon="8.2500643"><ele>532.4</ele><time>2026-04-19T08:27:43.615Z</time></trkpt><trkpt lat="45.6687383" lon="8.2501984"><ele>529.8</ele><time>2026-04-19T08:27:44.615Z</time></trkpt><trkpt lat="45.6687838" lon="8.2503181"><ele>527.2</ele><time>2026-04-19T08:27:45.614Z</time></trkpt><trkpt lat="45.6688514" lon="8.2504162"><ele>524.6</ele><time>2026-04-19T08:27:46.614Z</time></trkpt><trkpt lat="45.668925" lon="8.2505069"><ele>522.0</ele><time>2026-04-19T08:27:47.615Z</time></trkpt><trkpt lat="45.668979" lon="8.2506003"><ele>523.0</ele><time>2026-04-19T08:27:48.615Z</time></trkpt><trkpt lat="45.6690236" lon="8.2506702"><ele>524.0</ele><time>2026-04-19T08:27:49.615Z</time></trkpt><trkpt lat="45.6690662" lon="8.2507401"><ele>525.0</ele><time>2026-04-19T08:27:50.615Z</time></trkpt><trkpt lat="45.6691076" lon="8.2508184"><ele>526.0</ele><time>2026-04-19T08:27:51.614Z</time></trkpt><trkpt lat="45.6691282" lon="8.2509176"><ele>527.0</ele><time>2026-04-19T08:27:52.616Z</time></trkpt><trkpt lat="45.669157" lon="8.2510159"><ele>528.0</ele><time>2026-04-19T08:27:53.615Z</time></trkpt><trkpt lat="45.6691703" lon="8.2511123"><ele>529.0</ele><time>2026-04-19T08:27:54.614Z</time></trkpt><trkpt lat="45.6691631" lon="8.2512039"><ele>529.0</ele><time>2026-04-19T08:27:55.615Z</time></trkpt><trkpt lat="45.6690914" lon="8.2513528"><ele>529.0</ele><time>2026-04-19T08:27:57.614Z</time></trkpt><trkpt lat="45.6690199" lon="8.2514334"><ele>529.0</ele><time>2026-04-19T08:27:58.615Z</time></trkpt><trkpt lat="45.6689485" lon="8.2515191"><ele>529.0</ele><time>2026-04-19T08:27:59.615Z</time></trkpt><trkpt lat="45.6688646" lon="8.251614"><ele>529.0</ele><time>2026-04-19T08:28:00.615Z</time></trkpt><trkpt lat="45.6687927" lon="8.2517076"><ele>529.0</ele><time>2026-04-19T08:28:01.615Z</time></trkpt><trkpt lat="45.6687262" lon="8.2517809"><ele>529.0</ele><time>2026-04-19T08:28:02.614Z</time></trkpt><trkpt lat="45.66866" lon="8.2518304"><ele>529.0</ele><time>2026-04-19T08:28:03.615Z</time></trkpt><trkpt lat="45.6685939" lon="8.2518612"><ele>529.0</ele><time>2026-04-19T08:28:04.614Z</time></trkpt><trkpt lat="45.6685206" lon="8.2518645"><ele>529.0</ele><time>2026-04-19T08:28:05.614Z</time></trkpt><trkpt lat="45.6684277" lon="8.2518443"><ele>529.0</ele><time>2026-04-19T08:28:06.615Z</time></trkpt><trkpt lat="45.66832" lon="8.2518348"><ele>530.8</ele><time>2026-04-19T08:28:07.615Z</time></trkpt><trkpt lat="45.6682091" lon="8.2518257"><ele>532.5999999999999</ele><time>2026-04-19T08:28:08.615Z</time></trkpt><trkpt lat="45.6681166" lon="8.2518238"><ele>534.4</ele><time>2026-04-19T08:28:09.615Z</time></trkpt><trkpt lat="45.6680422" lon="8.2518334"><ele>536.1999999999999</ele><time>2026-04-19T08:28:10.614Z</time></trkpt><trkpt lat="45.6679673" lon="8.2519045"><ele>538.0</ele><time>2026-04-19T08:28:12.615Z</time></trkpt><trkpt lat="45.667953" lon="8.2520342"><ele>538.0</ele><time>2026-04-19T08:28:14.615Z</time></trkpt><trkpt lat="45.6679363" lon="8.2521977"><ele>538.0</ele><time>2026-04-19T08:28:16.615Z</time></trkpt><trkpt lat="45.6679187" lon="8.2522842"><ele>538.0</ele><time>2026-04-19T08:28:17.614Z</time></trkpt><trkpt lat="45.6678978" lon="8.2523751"><ele>538.0</ele><time>2026-04-19T08:28:18.615Z</time></trkpt><trkpt lat="45.667846" lon="8.2524757"><ele>538.0</ele><time>2026-04-19T08:28:19.615Z</time></trkpt><trkpt lat="45.6678049" lon="8.2525907"><ele>538.0</ele><time>2026-04-19T08:28:20.614Z</time></trkpt><trkpt lat="45.6677599" lon="8.2527479"><ele>534.25</ele><time>2026-04-19T08:28:21.615Z</time></trkpt><trkpt lat="45.6676979" lon="8.2529198"><ele>530.5</ele><time>2026-04-19T08:28:22.615Z</time></trkpt><trkpt lat="45.6676427" lon="8.2530784"><ele>526.75</ele><time>2026-04-19T08:28:23.614Z</time></trkpt><trkpt lat="45.6675841" lon="8.253247"><ele>523.0</ele><time>2026-04-19T08:28:24.614Z</time></trkpt><trkpt lat="45.667592" lon="8.2533698"><ele>523.0</ele><time>2026-04-19T08:28:25.614Z</time></trkpt><trkpt lat="45.667583" lon="8.2534903"><ele>523.0</ele><time>2026-04-19T08:28:26.616Z</time></trkpt><trkpt lat="45.6675055" lon="8.2536206"><ele>523.0</ele><time>2026-04-19T08:28:28.615Z</time></trkpt><trkpt lat="45.6674327" lon="8.2536859"><ele>523.0</ele><time>2026-04-19T08:28:29.614Z</time></trkpt><trkpt lat="45.6673528" lon="8.2537354"><ele>523.0</ele><time>2026-04-19T08:28:30.615Z</time></trkpt><trkpt lat="45.667264" lon="8.2537784"><ele>523.0</ele><time>2026-04-19T08:28:31.615Z</time></trkpt><trkpt lat="45.6671795" lon="8.2538153"><ele>523.0</ele><time>2026-04-19T08:28:32.614Z</time></trkpt><trkpt lat="45.6671037" lon="8.2538529"><ele>523.0</ele><time>2026-04-19T08:28:33.615Z</time></trkpt><trkpt lat="45.6670283" lon="8.2538843"><ele>523.0</ele><time>2026-04-19T08:28:34.616Z</time></trkpt><trkpt lat="45.6669411" lon="8.253893"><ele>523.0</ele><time>2026-04-19T08:28:35.615Z</time></trkpt><trkpt lat="45.6668622" lon="8.2538882"><ele>523.0</ele><time>2026-04-19T08:28:36.615Z</time></trkpt><trkpt lat="45.6667816" lon="8.2538656"><ele>523.6666666666667</ele><time>2026-04-19T08:28:37.615Z</time></trkpt><trkpt lat="45.6667131" lon="8.2538356"><ele>524.3333333333334</ele><time>2026-04-19T08:28:38.615Z</time></trkpt><trkpt lat="45.6666131" lon="8.253818"><ele>525.0</ele><time>2026-04-19T08:28:40.615Z</time></trkpt><trkpt lat="45.6665502" lon="8.2538922"><ele>525.6666666666666</ele><time>2026-04-19T08:28:42.616Z</time></trkpt><trkpt lat="45.6664786" lon="8.2540309"><ele>526.3333333333333</ele><time>2026-04-19T08:28:44.615Z</time></trkpt><trkpt lat="45.666423" lon="8.2541019"><ele>527.0</ele><time>2026-04-19T08:28:45.616Z</time></trkpt><trkpt lat="45.6663552" lon="8.2541693"><ele>528.6</ele><time>2026-04-19T08:28:46.614Z</time></trkpt><trkpt lat="45.6662659" lon="8.2542306"><ele>530.2</ele><time>2026-04-19T08:28:47.615Z</time></trkpt><trkpt lat="45.6661613" lon="8.2542683"><ele>531.8</ele><time>2026-04-19T08:28:48.615Z</time></trkpt><trkpt lat="45.6660486" lon="8.2543125"><ele>533.4</ele><time>2026-04-19T08:28:49.614Z</time></trkpt><trkpt lat="45.6659406" lon="8.2543511"><ele>535.0</ele><time>2026-04-19T08:28:50.615Z</time></trkpt><trkpt lat="45.6658327" lon="8.2544111"><ele>535.4</ele><time>2026-04-19T08:28:51.615Z</time></trkpt><trkpt lat="45.6657271" lon="8.2544702"><ele>535.8</ele><time>2026-04-19T08:28:52.615Z</time></trkpt><trkpt lat="45.6656248" lon="8.2545052"><ele>536.2</ele><time>2026-04-19T08:28:53.615Z</time></trkpt><trkpt lat="45.6655332" lon="8.2545267"><ele>536.6</ele><time>2026-04-19T08:28:54.615Z</time></trkpt><trkpt lat="45.6654599" lon="8.2545607"><ele>537.0</ele><time>2026-04-19T08:28:55.616Z</time></trkpt><trkpt lat="45.665405" lon="8.2546087"><ele>537.0</ele><time>2026-04-19T08:28:56.615Z</time></trkpt><trkpt lat="45.6653861" lon="8.2547313"><ele>537.0</ele><time>2026-04-19T08:28:58.614Z</time></trkpt><trkpt lat="45.6654537" lon="8.2548926"><ele>537.0</ele><time>2026-04-19T08:29:00.614Z</time></trkpt><trkpt lat="45.6654941" lon="8.255003"><ele>537.0</ele><time>2026-04-19T08:29:01.616Z</time></trkpt><trkpt lat="45.6655285" lon="8.2551229"><ele>537.0</ele><time>2026-04-19T08:29:02.615Z</time></trkpt><trkpt lat="45.6655637" lon="8.2552268"><ele>537.6666666666666</ele><time>2026-04-19T08:29:03.615Z</time></trkpt><trkpt lat="45.6656097" lon="8.2553113"><ele>538.3333333333334</ele><time>2026-04-19T08:29:04.615Z</time></trkpt><trkpt lat="45.66567" lon="8.2554122"><ele>539.0</ele><time>2026-04-19T08:29:05.615Z</time></trkpt><trkpt lat="45.6657461" lon="8.2555041"><ele>539.6666666666667</ele><time>2026-04-19T08:29:06.616Z</time></trkpt><trkpt lat="45.6658003" lon="8.2555868"><ele>540.3333333333334</ele><time>2026-04-19T08:29:07.614Z</time></trkpt><trkpt lat="45.6658548" lon="8.2556807"><ele>541.0</ele><time>2026-04-19T08:29:08.616Z</time></trkpt><trkpt lat="45.6658594" lon="8.2558029"><ele>541.0</ele><time>2026-04-19T08:29:09.613Z</time></trkpt><trkpt lat="45.6658642" lon="8.2559205"><ele>541.0</ele><time>2026-04-19T08:29:10.614Z</time></trkpt><trkpt lat="45.6658444" lon="8.2560504"><ele>541.0</ele><time>2026-04-19T08:29:11.615Z</time></trkpt><trkpt lat="45.665789" lon="8.2561696"><ele>541.0</ele><time>2026-04-19T08:29:12.615Z</time></trkpt><trkpt lat="45.665748" lon="8.2563003"><ele>541.0</ele><time>2026-04-19T08:29:13.614Z</time></trkpt><trkpt lat="45.6656995" lon="8.2564189"><ele>543.0</ele><time>2026-04-19T08:29:14.615Z</time></trkpt><trkpt lat="45.6656422" lon="8.2565157"><ele>545.0</ele><time>2026-04-19T08:29:15.614Z</time></trkpt><trkpt lat="45.665569" lon="8.2565923"><ele>547.0</ele><time>2026-04-19T08:29:16.613Z</time></trkpt><trkpt lat="45.6655007" lon="8.2566874"><ele>549.0</ele><time>2026-04-19T08:29:17.616Z</time></trkpt><trkpt lat="45.665419" lon="8.2568048"><ele>551.0</ele><time>2026-04-19T08:29:18.615Z</time></trkpt><trkpt lat="45.6653377" lon="8.2569033"><ele>549.1666666666666</ele><time>2026-04-19T08:29:19.616Z</time></trkpt><trkpt lat="45.6652592" lon="8.2569984"><ele>547.3333333333333</ele><time>2026-04-19T08:29:20.614Z</time></trkpt><trkpt lat="45.6652013" lon="8.2570471"><ele>545.5</ele><time>2026-04-19T08:29:21.616Z</time></trkpt><trkpt lat="45.6651255" lon="8.2570833"><ele>543.6666666666666</ele><time>2026-04-19T08:29:22.614Z</time></trkpt><trkpt lat="45.6650366" lon="8.2570852"><ele>541.8333333333334</ele><time>2026-04-19T08:29:23.616Z</time></trkpt><trkpt lat="45.6649374" lon="8.2570701"><ele>540.0</ele><time>2026-04-19T08:29:24.614Z</time></trkpt><trkpt lat="45.6648536" lon="8.2570564"><ele>540.0</ele><time>2026-04-19T08:29:25.616Z</time></trkpt><trkpt lat="45.6647757" lon="8.2570651"><ele>540.0</ele><time>2026-04-19T08:29:26.615Z</time></trkpt><trkpt lat="45.6646906" lon="8.2571012"><ele>540.0</ele><time>2026-04-19T08:29:27.613Z</time></trkpt><trkpt lat="45.6645972" lon="8.257168"><ele>540.0</ele><time>2026-04-19T08:29:28.615Z</time></trkpt><trkpt lat="45.6645034" lon="8.2572361"><ele>540.0</ele><time>2026-04-19T08:29:29.615Z</time></trkpt><trkpt lat="45.664424" lon="8.2572984"><ele>540.0</ele><time>2026-04-19T08:29:30.614Z</time></trkpt><trkpt lat="45.6643726" lon="8.2573544"><ele>540.0</ele><time>2026-04-19T08:29:31.615Z</time></trkpt><trkpt lat="45.6643506" lon="8.2574677"><ele>540.0</ele><time>2026-04-19T08:29:33.615Z</time></trkpt><trkpt lat="45.6644192" lon="8.2575634"><ele>540.0</ele><time>2026-04-19T08:29:35.615Z</time></trkpt><trkpt lat="45.6644813" lon="8.2575987"><ele>540.0</ele><time>2026-04-19T08:29:36.614Z</time></trkpt><trkpt lat="45.6645512" lon="8.2576349"><ele>540.0</ele><time>2026-04-19T08:29:37.615Z</time></trkpt><trkpt lat="45.6646482" lon="8.2576697"><ele>543.4</ele><time>2026-04-19T08:29:38.614Z</time></trkpt><trkpt lat="45.6647387" lon="8.2576952"><ele>546.8</ele><time>2026-04-19T08:29:39.614Z</time></trkpt><trkpt lat="45.6648117" lon="8.2577271"><ele>550.2</ele><time>2026-04-19T08:29:40.615Z</time></trkpt><trkpt lat="45.6649103" lon="8.2578355"><ele>553.6</ele><time>2026-04-19T08:29:42.615Z</time></trkpt><trkpt lat="45.6649436" lon="8.2579275"><ele>557.0</ele><time>2026-04-19T08:29:43.614Z</time></trkpt><trkpt lat="45.6649575" lon="8.2580559"><ele>555.75</ele><time>2026-04-19T08:29:44.615Z</time></trkpt><trkpt lat="45.6649621" lon="8.2581976"><ele>554.5</ele><time>2026-04-19T08:29:45.613Z</time></trkpt><trkpt lat="45.6649469" lon="8.2583807"><ele>553.25</ele><time>2026-04-19T08:29:46.615Z</time></trkpt><trkpt lat="45.6649471" lon="8.2585595"><ele>552.0</ele><time>2026-04-19T08:29:47.614Z</time></trkpt><trkpt lat="45.6649529" lon="8.258728"><ele>552.0</ele><time>2026-04-19T08:29:48.615Z</time></trkpt><trkpt lat="45.6649402" lon="8.2588377"><ele>552.0</ele><time>2026-04-19T08:29:49.614Z</time></trkpt><trkpt lat="45.6649199" lon="8.2589701"><ele>552.0</ele><time>2026-04-19T08:29:50.615Z</time></trkpt><trkpt lat="45.6648827" lon="8.2590629"><ele>552.0</ele><time>2026-04-19T08:29:51.615Z</time></trkpt><trkpt lat="45.6648006" lon="8.259181"><ele>552.0</ele><time>2026-04-19T08:29:53.615Z</time></trkpt><trkpt lat="45.6646846" lon="8.2592707"><ele>551.6666666666666</ele><time>2026-04-19T08:29:55.615Z</time></trkpt><trkpt lat="45.6646141" lon="8.2593239"><ele>551.3333333333334</ele><time>2026-04-19T08:29:56.614Z</time></trkpt><trkpt lat="45.6645437" lon="8.2593834"><ele>551.0</ele><time>2026-04-19T08:29:57.615Z</time></trkpt><trkpt lat="45.6644754" lon="8.2594224"><ele>550.6666666666667</ele><time>2026-04-19T08:29:58.615Z</time></trkpt><trkpt lat="45.6644018" lon="8.2594356"><ele>550.3333333333334</ele><time>2026-04-19T08:29:59.615Z</time></trkpt><trkpt lat="45.6643334" lon="8.2594353"><ele>550.0</ele><time>2026-04-19T08:30:00.615Z</time></trkpt><trkpt lat="45.6642108" lon="8.2594673"><ele>549.0</ele><time>2026-04-19T08:30:02.614Z</time></trkpt><trkpt lat="45.6641314" lon="8.2595211"><ele>548.0</ele><time>2026-04-19T08:30:03.614Z</time></trkpt><trkpt lat="45.6640519" lon="8.2595676"><ele>547.0</ele><time>2026-04-19T08:30:04.615Z</time></trkpt><trkpt lat="45.6639794" lon="8.2595993"><ele>546.0</ele><time>2026-04-19T08:30:05.614Z</time></trkpt><trkpt lat="45.6639185" lon="8.2596278"><ele>545.0</ele><time>2026-04-19T08:30:06.614Z</time></trkpt><trkpt lat="45.6638307" lon="8.2597295"><ele>544.0</ele><time>2026-04-19T08:30:08.615Z</time></trkpt><trkpt lat="45.663777" lon="8.2597945"><ele>544.0</ele><time>2026-04-19T08:30:09.614Z</time></trkpt><trkpt lat="45.6637049" lon="8.2598543"><ele>544.0</ele><time>2026-04-19T08:30:10.615Z</time></trkpt><trkpt lat="45.6636138" lon="8.2598943"><ele>544.0</ele><time>2026-04-19T08:30:11.615Z</time></trkpt><trkpt lat="45.6635067" lon="8.2599241"><ele>544.0</ele><time>2026-04-19T08:30:12.615Z</time></trkpt><trkpt lat="45.6633773" lon="8.2599764"><ele>544.0</ele><time>2026-04-19T08:30:13.614Z</time></trkpt><trkpt lat="45.6632464" lon="8.2600219"><ele>542.5</ele><time>2026-04-19T08:30:14.616Z</time></trkpt><trkpt lat="45.6631141" lon="8.260069"><ele>541.0</ele><time>2026-04-19T08:30:15.614Z</time></trkpt><trkpt lat="45.6629886" lon="8.2601284"><ele>539.5</ele><time>2026-04-19T08:30:16.615Z</time></trkpt><trkpt lat="45.6628774" lon="8.2601738"><ele>538.0</ele><time>2026-04-19T08:30:17.615Z</time></trkpt><trkpt lat="45.6627781" lon="8.2602105"><ele>537.8333333333334</ele><time>2026-04-19T08:30:18.615Z</time></trkpt><trkpt lat="45.6626862" lon="8.260243"><ele>537.6666666666667</ele><time>2026-04-19T08:30:19.614Z</time></trkpt><trkpt lat="45.6626173" lon="8.2602667"><ele>537.5</ele><time>2026-04-19T08:30:20.614Z</time></trkpt><trkpt lat="45.6625376" lon="8.2603195"><ele>537.3333333333334</ele><time>2026-04-19T08:30:22.615Z</time></trkpt><trkpt lat="45.6624661" lon="8.2604335"><ele>537.1666666666666</ele><time>2026-04-19T08:30:24.615Z</time></trkpt><trkpt lat="45.6624221" lon="8.2605116"><ele>537.0</ele><time>2026-04-19T08:30:25.614Z</time></trkpt><trkpt lat="45.6623744" lon="8.2606027"><ele>536.9999999999999</ele><time>2026-04-19T08:30:26.613Z</time></trkpt><trkpt lat="45.6623248" lon="8.2606672"><ele>537.0</ele><time>2026-04-19T08:30:27.615Z</time></trkpt><trkpt lat="45.6622775" lon="8.2607328"><ele>537.0</ele><time>2026-04-19T08:30:28.616Z</time></trkpt><trkpt lat="45.6622362" lon="8.2608023"><ele>537.0</ele><time>2026-04-19T08:30:29.615Z</time></trkpt><trkpt lat="45.6621971" lon="8.2608806"><ele>537.0</ele><time>2026-04-19T08:30:30.616Z</time></trkpt><trkpt lat="45.6621518" lon="8.2609586"><ele>536.9999999999999</ele><time>2026-04-19T08:30:31.615Z</time></trkpt><trkpt lat="45.6621026" lon="8.2610349"><ele>537.0</ele><time>2026-04-19T08:30:32.614Z</time></trkpt><trkpt lat="45.6620424" lon="8.2611137"><ele>537.0</ele><time>2026-04-19T08:30:33.615Z</time></trkpt><trkpt lat="45.6619873" lon="8.2611892"><ele>537.0</ele><time>2026-04-19T08:30:34.615Z</time></trkpt><trkpt lat="45.6619245" lon="8.2612578"><ele>537.0</ele><time>2026-04-19T08:30:35.615Z</time></trkpt><trkpt lat="45.6618506" lon="8.2613166"><ele>537.0</ele><time>2026-04-19T08:30:36.615Z</time></trkpt><trkpt lat="45.6617732" lon="8.2613616"><ele>537.0</ele><time>2026-04-19T08:30:37.614Z</time></trkpt><trkpt lat="45.6616911" lon="8.2614138"><ele>537.0</ele><time>2026-04-19T08:30:38.615Z</time></trkpt><trkpt lat="45.6616108" lon="8.2614799"><ele>535.5</ele><time>2026-04-19T08:30:39.615Z</time></trkpt><trkpt lat="45.6615303" lon="8.2615512"><ele>534.0</ele><time>2026-04-19T08:30:40.615Z</time></trkpt><trkpt lat="45.6614515" lon="8.2616171"><ele>532.5</ele><time>2026-04-19T08:30:41.614Z</time></trkpt><trkpt lat="45.6613763" lon="8.2616822"><ele>531.0</ele><time>2026-04-19T08:30:42.614Z</time></trkpt><trkpt lat="45.661307" lon="8.2617161"><ele>529.5</ele><time>2026-04-19T08:30:43.615Z</time></trkpt><trkpt lat="45.661237" lon="8.2617427"><ele>528.0</ele><time>2026-04-19T08:30:44.615Z</time></trkpt><trkpt lat="45.6611704" lon="8.261766"><ele>525.8</ele><time>2026-04-19T08:30:45.613Z</time></trkpt><trkpt lat="45.6610557" lon="8.2618341"><ele>523.5999999999999</ele><time>2026-04-19T08:30:47.615Z</time></trkpt><trkpt lat="45.6610013" lon="8.2618872"><ele>521.4000000000001</ele><time>2026-04-19T08:30:48.614Z</time></trkpt><trkpt lat="45.6608997" lon="8.2619503"><ele>519.2</ele><time>2026-04-19T08:30:50.615Z</time></trkpt><trkpt lat="45.6608038" lon="8.2620039"><ele>517.0</ele><time>2026-04-19T08:30:52.616Z</time></trkpt><trkpt lat="45.6607282" lon="8.2620554"><ele>517.0</ele><time>2026-04-19T08:30:54.614Z</time></trkpt><trkpt lat="45.660685" lon="8.2621497"><ele>517.0</ele><time>2026-04-19T08:30:56.614Z</time></trkpt><trkpt lat="45.6606769" lon="8.2622518"><ele>517.0</ele><time>2026-04-19T08:30:58.615Z</time></trkpt><trkpt lat="45.6606765" lon="8.2623734"><ele>517.0</ele><time>2026-04-19T08:31:00.614Z</time></trkpt><trkpt lat="45.6606245" lon="8.2624982"><ele>517.0</ele><time>2026-04-19T08:31:02.615Z</time></trkpt><trkpt lat="45.6605349" lon="8.2625544"><ele>517.0</ele><time>2026-04-19T08:31:04.614Z</time></trkpt><trkpt lat="45.6604603" lon="8.2625759"><ele>517.6</ele><time>2026-04-19T08:31:06.614Z</time></trkpt><trkpt lat="45.6603981" lon="8.2625921"><ele>518.2</ele><time>2026-04-19T08:31:08.615Z</time></trkpt><trkpt lat="45.6603063" lon="8.2625454"><ele>518.8</ele><time>2026-04-19T08:31:10.614Z</time></trkpt><trkpt lat="45.6602069" lon="8.2624669"><ele>519.4</ele><time>2026-04-19T08:31:12.616Z</time></trkpt><trkpt lat="45.6600896" lon="8.2623901"><ele>520.0</ele><time>2026-04-19T08:31:14.615Z</time></trkpt><trkpt lat="45.6600364" lon="8.2623296"><ele>518.3333333333334</ele><time>2026-04-19T08:31:15.615Z</time></trkpt><trkpt lat="45.6599925" lon="8.2622603"><ele>516.6666666666667</ele><time>2026-04-19T08:31:16.615Z</time></trkpt><trkpt lat="45.659954" lon="8.2621801"><ele>515.0</ele><time>2026-04-19T08:31:17.615Z</time></trkpt><trkpt lat="45.65992" lon="8.262093"><ele>513.3333333333334</ele><time>2026-04-19T08:31:18.615Z</time></trkpt><trkpt lat="45.6599187" lon="8.2619267"><ele>511.6666666666667</ele><time>2026-04-19T08:31:20.614Z</time></trkpt><trkpt lat="45.6599283" lon="8.2618355"><ele>510.0</ele><time>2026-04-19T08:31:21.615Z</time></trkpt><trkpt lat="45.6599142" lon="8.2616821"><ele>510.0</ele><time>2026-04-19T08:31:23.615Z</time></trkpt><trkpt lat="45.6598527" lon="8.2615811"><ele>510.0</ele><time>2026-04-19T08:31:25.615Z</time></trkpt><trkpt lat="45.6597737" lon="8.2615871"><ele>510.0</ele><time>2026-04-19T08:31:27.616Z</time></trkpt><trkpt lat="45.6597181" lon="8.261667"><ele>510.0</ele><time>2026-04-19T08:31:29.615Z</time></trkpt><trkpt lat="45.6596426" lon="8.2617514"><ele>510.0</ele><time>2026-04-19T08:31:31.614Z</time></trkpt><trkpt lat="45.6595767" lon="8.2617759"><ele>510.0</ele><time>2026-04-19T08:31:32.615Z</time></trkpt><trkpt lat="45.659508" lon="8.2617755"><ele>509.6666666666667</ele><time>2026-04-19T08:31:33.616Z</time></trkpt><trkpt lat="45.6594336" lon="8.2617631"><ele>509.33333333333337</ele><time>2026-04-19T08:31:34.614Z</time></trkpt><trkpt lat="45.6593716" lon="8.2617347"><ele>509.0</ele><time>2026-04-19T08:31:35.615Z</time></trkpt><trkpt lat="45.659285" lon="8.2616444"><ele>508.6666666666667</ele><time>2026-04-19T08:31:37.614Z</time></trkpt><trkpt lat="45.6592103" lon="8.2615486"><ele>508.33333333333337</ele><time>2026-04-19T08:31:39.615Z</time></trkpt><trkpt lat="45.6591175" lon="8.2615478"><ele>508.0</ele><time>2026-04-19T08:31:41.615Z</time></trkpt><trkpt lat="45.6590437" lon="8.2615536"><ele>508.00000000000006</ele><time>2026-04-19T08:31:42.615Z</time></trkpt><trkpt lat="45.6589699" lon="8.2615394"><ele>508.0</ele><time>2026-04-19T08:31:43.615Z</time></trkpt><trkpt lat="45.6589001" lon="8.2614968"><ele>508.0</ele><time>2026-04-19T08:31:44.615Z</time></trkpt><trkpt lat="45.6588319" lon="8.2614325"><ele>508.0</ele><time>2026-04-19T08:31:45.614Z</time></trkpt><trkpt lat="45.6587762" lon="8.2613522"><ele>508.00000000000006</ele><time>2026-04-19T08:31:46.614Z</time></trkpt><trkpt lat="45.6587321" lon="8.2612638"><ele>508.0</ele><time>2026-04-19T08:31:47.615Z</time></trkpt><trkpt lat="45.6586888" lon="8.2611841"><ele>508.00000000000006</ele><time>2026-04-19T08:31:48.615Z</time></trkpt><trkpt lat="45.6586191" lon="8.2610667"><ele>508.0</ele><time>2026-04-19T08:31:50.613Z</time></trkpt><trkpt lat="45.6585979" lon="8.2609658"><ele>508.0</ele><time>2026-04-19T08:31:52.616Z</time></trkpt><trkpt lat="45.6586076" lon="8.2608504"><ele>508.0</ele><time>2026-04-19T08:31:54.615Z</time></trkpt><trkpt lat="45.6586153" lon="8.2606983"><ele>508.00000000000006</ele><time>2026-04-19T08:31:56.614Z</time></trkpt><trkpt lat="45.6586091" lon="8.2606006"><ele>508.0</ele><time>2026-04-19T08:31:57.615Z</time></trkpt><trkpt lat="45.6585837" lon="8.2604323"><ele>508.00000000000006</ele><time>2026-04-19T08:31:59.615Z</time></trkpt><trkpt lat="45.6585307" lon="8.2602782"><ele>508.0</ele><time>2026-04-19T08:32:01.615Z</time></trkpt><trkpt lat="45.65849" lon="8.2602052"><ele>508.0</ele><time>2026-04-19T08:32:02.615Z</time></trkpt><trkpt lat="45.6584423" lon="8.2601313"><ele>508.0</ele><time>2026-04-19T08:32:03.615Z</time></trkpt><trkpt lat="45.6583996" lon="8.2600583"><ele>508.00000000000006</ele><time>2026-04-19T08:32:04.615Z</time></trkpt><trkpt lat="45.6583517" lon="8.2599827"><ele>508.0</ele><time>2026-04-19T08:32:05.616Z</time></trkpt><trkpt lat="45.6582941" lon="8.259911"><ele>508.00000000000006</ele><time>2026-04-19T08:32:06.615Z</time></trkpt><trkpt lat="45.6582397" lon="8.2598512"><ele>508.0</ele><time>2026-04-19T08:32:07.615Z</time></trkpt><trkpt lat="45.6581812" lon="8.2598099"><ele>508.0</ele><time>2026-04-19T08:32:08.615Z</time></trkpt><trkpt lat="45.6580697" lon="8.259754"><ele>508.0</ele><time>2026-04-19T08:32:10.615Z</time></trkpt><trkpt lat="45.6580022" lon="8.2597399"><ele>508.00000000000006</ele><time>2026-04-19T08:32:11.615Z</time></trkpt><trkpt lat="45.6579347" lon="8.259715"><ele>508.0</ele><time>2026-04-19T08:32:12.615Z</time></trkpt><trkpt lat="45.6578633" lon="8.2596914"><ele>509.50000000000006</ele><time>2026-04-19T08:32:13.615Z</time></trkpt><trkpt lat="45.6577918" lon="8.259671"><ele>511.0</ele><time>2026-04-19T08:32:14.615Z</time></trkpt><trkpt lat="45.6577139" lon="8.2596553"><ele>512.5</ele><time>2026-04-19T08:32:15.616Z</time></trkpt><trkpt lat="45.6576462" lon="8.259627"><ele>514.0</ele><time>2026-04-19T08:32:16.615Z</time></trkpt><trkpt lat="45.6575794" lon="8.2596002"><ele>515.5</ele><time>2026-04-19T08:32:17.614Z</time></trkpt><trkpt lat="45.657477" lon="8.2595352"><ele>517.0</ele><time>2026-04-19T08:32:19.615Z</time></trkpt><trkpt lat="45.6573869" lon="8.2594692"><ele>514.0</ele><time>2026-04-19T08:32:21.615Z</time></trkpt><trkpt lat="45.6572814" lon="8.2594415"><ele>511.0</ele><time>2026-04-19T08:32:23.614Z</time></trkpt><trkpt lat="45.657211" lon="8.2594618"><ele>508.0</ele><time>2026-04-19T08:32:24.614Z</time></trkpt><trkpt lat="45.6571363" lon="8.2594731"><ele>505.0</ele><time>2026-04-19T08:32:25.615Z</time></trkpt><trkpt lat="45.6570587" lon="8.259454"><ele>502.00000000000006</ele><time>2026-04-19T08:32:26.615Z</time></trkpt><trkpt lat="45.6569794" lon="8.2594163"><ele>499.0</ele><time>2026-04-19T08:32:27.614Z</time></trkpt><trkpt lat="45.6569075" lon="8.2593712"><ele>497.4</ele><time>2026-04-19T08:32:28.614Z</time></trkpt><trkpt lat="45.6568475" lon="8.2593271"><ele>495.79999999999995</ele><time>2026-04-19T08:32:29.614Z</time></trkpt><trkpt lat="45.6567802" lon="8.2591965"><ele>494.20000000000005</ele><time>2026-04-19T08:32:31.615Z</time></trkpt><trkpt lat="45.6567241" lon="8.2590378"><ele>492.6</ele><time>2026-04-19T08:32:33.614Z</time></trkpt><trkpt lat="45.6566325" lon="8.2589158"><ele>491.0</ele><time>2026-04-19T08:32:35.616Z</time></trkpt><trkpt lat="45.6565792" lon="8.2588589"><ele>487.6</ele><time>2026-04-19T08:32:36.615Z</time></trkpt><trkpt lat="45.6565064" lon="8.2587767"><ele>484.20000000000005</ele><time>2026-04-19T08:32:37.614Z</time></trkpt><trkpt lat="45.656421" lon="8.2587046"><ele>480.79999999999995</ele><time>2026-04-19T08:32:38.615Z</time></trkpt><trkpt lat="45.6563479" lon="8.2586191"><ele>477.4</ele><time>2026-04-19T08:32:39.615Z</time></trkpt><trkpt lat="45.6562537" lon="8.2585039"><ele>474.0</ele><time>2026-04-19T08:32:40.614Z</time></trkpt><trkpt lat="45.6561396" lon="8.2583773"><ele>474.6</ele><time>2026-04-19T08:32:41.615Z</time></trkpt><trkpt lat="45.6560404" lon="8.2582509"><ele>475.2</ele><time>2026-04-19T08:32:42.615Z</time></trkpt><trkpt lat="45.6559565" lon="8.2581328"><ele>475.80000000000007</ele><time>2026-04-19T08:32:43.614Z</time></trkpt><trkpt lat="45.6558762" lon="8.258039"><ele>476.40000000000003</ele><time>2026-04-19T08:32:44.615Z</time></trkpt><trkpt lat="45.655796" lon="8.2579977"><ele>477.0</ele><time>2026-04-19T08:32:46.613Z</time></trkpt><trkpt lat="45.6557046" lon="8.2580574"><ele>477.0</ele><time>2026-04-19T08:32:48.614Z</time></trkpt><trkpt lat="45.6556634" lon="8.2581419"><ele>477.0</ele><time>2026-04-19T08:32:50.615Z</time></trkpt><trkpt lat="45.6556266" lon="8.2582193"><ele>477.0</ele><time>2026-04-19T08:32:52.616Z</time></trkpt><trkpt lat="45.655563" lon="8.2582816"><ele>477.0</ele><time>2026-04-19T08:32:54.615Z</time></trkpt><trkpt lat="45.6555043" lon="8.2583737"><ele>477.0</ele><time>2026-04-19T08:32:57.614Z</time></trkpt><trkpt lat="45.6554899" lon="8.2584957"><ele>477.0</ele><time>2026-04-19T08:32:59.615Z</time></trkpt><trkpt lat="45.6554764" lon="8.2586162"><ele>477.0</ele><time>2026-04-19T08:33:01.614Z</time></trkpt><trkpt lat="45.6554691" lon="8.258727"><ele>477.0</ele><time>2026-04-19T08:33:03.615Z</time></trkpt><trkpt lat="45.6554462" lon="8.258868"><ele>477.0</ele><time>2026-04-19T08:33:05.615Z</time></trkpt><trkpt lat="45.6554741" lon="8.2589759"><ele>477.0</ele><time>2026-04-19T08:33:07.615Z</time></trkpt><trkpt lat="45.6555343" lon="8.2590494"><ele>477.0</ele><time>2026-04-19T08:33:10.615Z</time></trkpt><trkpt lat="45.6555651" lon="8.2591386"><ele>477.0</ele><time>2026-04-19T08:33:12.615Z</time></trkpt><trkpt lat="45.6555377" lon="8.2592511"><ele>477.3333333333333</ele><time>2026-04-19T08:33:14.615Z</time></trkpt><trkpt lat="45.6554854" lon="8.2593438"><ele>477.66666666666663</ele><time>2026-04-19T08:33:17.615Z</time></trkpt><trkpt lat="45.655428" lon="8.2594147"><ele>478.0</ele><time>2026-04-19T08:33:19.615Z</time></trkpt><trkpt lat="45.655331" lon="8.259472"><ele>478.3333333333333</ele><time>2026-04-19T08:33:21.614Z</time></trkpt><trkpt lat="45.6552458" lon="8.2594732"><ele>478.66666666666663</ele><time>2026-04-19T08:33:23.614Z</time></trkpt><trkpt lat="45.6551574" lon="8.2594824"><ele>479.0</ele><time>2026-04-19T08:33:25.615Z</time></trkpt><trkpt lat="45.6550847" lon="8.2595024"><ele>472.4</ele><time>2026-04-19T08:33:27.615Z</time></trkpt><trkpt lat="45.6550163" lon="8.2595385"><ele>465.79999999999995</ele><time>2026-04-19T08:33:30.613Z</time></trkpt><trkpt lat="45.6549165" lon="8.259579"><ele>459.20000000000005</ele><time>2026-04-19T08:35:23.615Z</time></trkpt><trkpt lat="45.6549044" lon="8.2594825"><ele>452.6</ele><time>2026-04-19T08:35:37.615Z</time></trkpt><trkpt lat="45.654927" lon="8.2593459"><ele>446.0</ele><time>2026-04-19T08:35:40.615Z</time></trkpt><trkpt lat="45.654902" lon="8.2591979"><ele>446.0</ele><time>2026-04-19T08:35:42.614Z</time></trkpt><trkpt lat="45.654904" lon="8.2590382"><ele>446.0</ele><time>2026-04-19T08:35:44.615Z</time></trkpt><trkpt lat="45.6549157" lon="8.2589444"><ele>446.0</ele><time>2026-04-19T08:35:46.613Z</time></trkpt><trkpt lat="45.654904" lon="8.259058"><ele>446.0</ele><time>2026-04-19T08:36:16.615Z</time></trkpt><trkpt lat="45.6549231" lon="8.2592261"><ele>446.0</ele><time>2026-04-19T08:36:18.615Z</time></trkpt><trkpt lat="45.6549287" lon="8.2593751"><ele>445.99999999999994</ele><time>2026-04-19T08:36:20.615Z</time></trkpt><trkpt lat="45.6548955" lon="8.2594739"><ele>446.0</ele><time>2026-04-19T08:36:22.614Z</time></trkpt><trkpt lat="45.6548267" lon="8.2594876"><ele>446.0</ele><time>2026-04-19T08:36:24.614Z</time></trkpt><trkpt lat="45.6547493" lon="8.2594526"><ele>446.0</ele><time>2026-04-19T08:36:26.615Z</time></trkpt><trkpt lat="45.6546688" lon="8.2594019"><ele>445.99999999999994</ele><time>2026-04-19T08:36:28.615Z</time></trkpt><trkpt lat="45.6545852" lon="8.2593999"><ele>446.0</ele><time>2026-04-19T08:36:30.615Z</time></trkpt><trkpt lat="45.6545134" lon="8.259435"><ele>442.8333333333333</ele><time>2026-04-19T08:36:32.615Z</time></trkpt><trkpt lat="45.6544384" lon="8.2594764"><ele>439.66666666666663</ele><time>2026-04-19T08:36:35.615Z</time></trkpt><trkpt lat="45.6543678" lon="8.2594519"><ele>436.5</ele><time>2026-04-19T08:36:39.615Z</time></trkpt><trkpt lat="45.654308" lon="8.2593569"><ele>433.33333333333337</ele><time>2026-04-19T08:36:42.613Z</time></trkpt><trkpt lat="45.6542367" lon="8.2592862"><ele>430.1666666666667</ele><time>2026-04-19T08:36:44.614Z</time></trkpt><trkpt lat="45.6541527" lon="8.2592331"><ele>427.0</ele><time>2026-04-19T08:36:46.615Z</time></trkpt><trkpt lat="45.6541154" lon="8.259143"><ele>427.0</ele><time>2026-04-19T08:36:49.615Z</time></trkpt><trkpt lat="45.6541951" lon="8.2591362"><ele>427.00000000000006</ele><time>2026-04-19T08:36:52.615Z</time></trkpt><trkpt lat="45.6542626" lon="8.2591836"><ele>427.00000000000006</ele><time>2026-04-19T08:36:54.614Z</time></trkpt><trkpt lat="45.6543561" lon="8.2592193"><ele>427.0</ele><time>2026-04-19T08:36:56.615Z</time></trkpt><trkpt lat="45.6544497" lon="8.2591667"><ele>427.0</ele><time>2026-04-19T08:36:58.615Z</time></trkpt><trkpt lat="45.6545255" lon="8.2590755"><ele>426.8</ele><time>2026-04-19T08:37:00.615Z</time></trkpt><trkpt lat="45.6545387" lon="8.258952"><ele>426.6</ele><time>2026-04-19T08:37:02.615Z</time></trkpt><trkpt lat="45.654459" lon="8.2588473"><ele>426.40000000000003</ele><time>2026-04-19T08:37:04.614Z</time></trkpt><trkpt lat="45.6543636" lon="8.2587462"><ele>426.20000000000005</ele><time>2026-04-19T08:37:06.615Z</time></trkpt><trkpt lat="45.654316" lon="8.2586862"><ele>426.0</ele><time>2026-04-19T08:37:07.614Z</time></trkpt><trkpt lat="45.65422" lon="8.2585962"><ele>426.0</ele><time>2026-04-19T08:37:09.613Z</time></trkpt><trkpt lat="45.6541519" lon="8.2585161"><ele>426.0</ele><time>2026-04-19T08:37:11.613Z</time></trkpt><trkpt lat="45.6540796" lon="8.2584011"><ele>426.0</ele><time>2026-04-19T08:37:13.615Z</time></trkpt><trkpt lat="45.6540303" lon="8.2583348"><ele>426.0</ele><time>2026-04-19T08:37:14.615Z</time></trkpt><trkpt lat="45.6539802" lon="8.2582728"><ele>426.0</ele><time>2026-04-19T08:37:15.614Z</time></trkpt><trkpt lat="45.6539301" lon="8.2582161"><ele>426.0</ele><time>2026-04-19T08:37:16.614Z</time></trkpt><trkpt lat="45.6538818" lon="8.2581544"><ele>425.8333333333333</ele><time>2026-04-19T08:37:17.614Z</time></trkpt><trkpt lat="45.6538368" lon="8.258063"><ele>425.66666666666663</ele><time>2026-04-19T08:37:18.614Z</time></trkpt><trkpt lat="45.6537969" lon="8.257964"><ele>425.5</ele><time>2026-04-19T08:37:19.615Z</time></trkpt><trkpt lat="45.6537595" lon="8.2578638"><ele>425.3333333333333</ele><time>2026-04-19T08:37:20.615Z</time></trkpt><trkpt lat="45.6537187" lon="8.257755"><ele>425.16666666666663</ele><time>2026-04-19T08:37:21.615Z</time></trkpt><trkpt lat="45.6536756" lon="8.2576615"><ele>425.0</ele><time>2026-04-19T08:37:22.614Z</time></trkpt><trkpt lat="45.6536136" lon="8.257553"><ele>422.99999999999994</ele><time>2026-04-19T08:37:23.613Z</time></trkpt><trkpt lat="45.6535543" lon="8.2574448"><ele>421.0</ele><time>2026-04-19T08:37:24.615Z</time></trkpt><trkpt lat="45.6535096" lon="8.2573431"><ele>419.0</ele><time>2026-04-19T08:37:25.613Z</time></trkpt><trkpt lat="45.6534582" lon="8.2572451"><ele>417.0</ele><time>2026-04-19T08:37:26.614Z</time></trkpt><trkpt lat="45.6534141" lon="8.2571454"><ele>414.99999999999994</ele><time>2026-04-19T08:37:27.615Z</time></trkpt><trkpt lat="45.6533684" lon="8.2570577"><ele>413.0</ele><time>2026-04-19T08:37:28.614Z</time></trkpt><trkpt lat="45.6533189" lon="8.2569767"><ele>411.85714285714283</ele><time>2026-04-19T08:37:29.614Z</time></trkpt><trkpt lat="45.6532657" lon="8.2569006"><ele>410.7142857142857</ele><time>2026-04-19T08:37:30.615Z</time></trkpt><trkpt lat="45.6532133" lon="8.2568354"><ele>409.57142857142856</ele><time>2026-04-19T08:37:31.613Z</time></trkpt><trkpt lat="45.6531523" lon="8.2567861"><ele>408.42857142857144</ele><time>2026-04-19T08:37:32.614Z</time></trkpt><trkpt lat="45.653099" lon="8.256719"><ele>407.2857142857143</ele><time>2026-04-19T08:37:33.615Z</time></trkpt><trkpt lat="45.6530468" lon="8.2566483"><ele>406.1428571428571</ele><time>2026-04-19T08:37:34.614Z</time></trkpt><trkpt lat="45.6529992" lon="8.2565723"><ele>405.0</ele><time>2026-04-19T08:37:35.614Z</time></trkpt><trkpt lat="45.6529534" lon="8.2564927"><ele>403.1428571428571</ele><time>2026-04-19T08:37:36.615Z</time></trkpt><trkpt lat="45.6529085" lon="8.2564174"><ele>401.2857142857143</ele><time>2026-04-19T08:37:37.613Z</time></trkpt><trkpt lat="45.652827" lon="8.2563171"><ele>399.42857142857144</ele><time>2026-04-19T08:37:39.615Z</time></trkpt><trkpt lat="45.6527919" lon="8.25624"><ele>397.57142857142856</ele><time>2026-04-19T08:37:41.615Z</time></trkpt><trkpt lat="45.652765" lon="8.256146"><ele>395.7142857142857</ele><time>2026-04-19T08:37:44.614Z</time></trkpt><trkpt lat="45.6527443" lon="8.2560555"><ele>393.85714285714283</ele><time>2026-04-19T08:37:48.615Z</time></trkpt><trkpt lat="45.6527283" lon="8.2559627"><ele>392.0</ele><time>2026-04-19T08:37:51.614Z</time></trkpt><trkpt lat="45.6526972" lon="8.2558368"><ele>390.8</ele><time>2026-04-19T08:37:54.613Z</time></trkpt><trkpt lat="45.6526684" lon="8.2557194"><ele>389.6</ele><time>2026-04-19T08:37:56.615Z</time></trkpt><trkpt lat="45.652637" lon="8.2555638"><ele>388.40000000000003</ele><time>2026-04-19T08:37:58.614Z</time></trkpt><trkpt lat="45.6526056" lon="8.2554112"><ele>387.20000000000005</ele><time>2026-04-19T08:38:00.615Z</time></trkpt><trkpt lat="45.6525694" lon="8.2552763"><ele>386.0</ele><time>2026-04-19T08:38:02.615Z</time></trkpt><trkpt lat="45.6525471" lon="8.2551772"><ele>385.99999999999994</ele><time>2026-04-19T08:38:04.614Z</time></trkpt><trkpt lat="45.6525006" lon="8.2551101"><ele>386.0</ele><time>2026-04-19T08:38:24.614Z</time></trkpt><trkpt lat="45.6524355" lon="8.2550421"><ele>386.0</ele><time>2026-04-19T08:38:26.615Z</time></trkpt><trkpt lat="45.6523489" lon="8.2549583"><ele>386.0</ele><time>2026-04-19T08:38:28.614Z</time></trkpt><trkpt lat="45.6522666" lon="8.2549116"><ele>385.99999999999994</ele><time>2026-04-19T08:38:30.613Z</time></trkpt><trkpt lat="45.6521999" lon="8.2548687"><ele>386.0</ele><time>2026-04-19T08:38:33.614Z</time></trkpt><trkpt lat="45.6521406" lon="8.2548066"><ele>386.16666666666663</ele><time>2026-04-19T08:38:36.614Z</time></trkpt><trkpt lat="45.6520698" lon="8.2547455"><ele>386.3333333333333</ele><time>2026-04-19T08:38:38.614Z</time></trkpt><trkpt lat="45.6519857" lon="8.2547553"><ele>386.5</ele><time>2026-04-19T08:38:41.614Z</time></trkpt><trkpt lat="45.6519222" lon="8.2547894"><ele>386.66666666666663</ele><time>2026-04-19T08:38:43.615Z</time></trkpt><trkpt lat="45.6518372" lon="8.2548224"><ele>386.8333333333333</ele><time>2026-04-19T08:38:45.615Z</time></trkpt><trkpt lat="45.6517748" lon="8.2548366"><ele>387.0</ele><time>2026-04-19T08:38:46.614Z</time></trkpt><trkpt lat="45.6516561" lon="8.2548615"><ele>387.0</ele><time>2026-04-19T08:38:48.614Z</time></trkpt><trkpt lat="45.6515917" lon="8.254877"><ele>387.0</ele><time>2026-04-19T08:38:49.615Z</time></trkpt><trkpt lat="45.6515205" lon="8.2548956"><ele>387.0</ele><time>2026-04-19T08:38:50.615Z</time></trkpt><trkpt lat="45.651424" lon="8.254928"><ele>387.0</ele><time>2026-04-19T08:38:52.614Z</time></trkpt><trkpt lat="45.6513449" lon="8.2549741"><ele>387.0</ele><time>2026-04-19T08:38:54.613Z</time></trkpt><trkpt lat="45.6512754" lon="8.2550502"><ele>387.0</ele><time>2026-04-19T08:38:56.613Z</time></trkpt><trkpt lat="45.6512181" lon="8.2551481"><ele>387.0</ele><time>2026-04-19T08:38:58.614Z</time></trkpt><trkpt lat="45.651166" lon="8.2552508"><ele>387.0</ele><time>2026-04-19T08:39:00.614Z</time></trkpt><trkpt lat="45.6510903" lon="8.2553582"><ele>387.0</ele><time>2026-04-19T08:39:02.615Z</time></trkpt><trkpt lat="45.6510159" lon="8.2553831"><ele>387.0</ele><time>2026-04-19T08:39:04.614Z</time></trkpt><trkpt lat="45.6509542" lon="8.2553495"><ele>387.0</ele><time>2026-04-19T08:39:06.614Z</time></trkpt><trkpt lat="45.6508942" lon="8.2553945"><ele>387.0</ele><time>2026-04-19T08:39:08.614Z</time></trkpt><trkpt lat="45.6508403" lon="8.2554708"><ele>386.6</ele><time>2026-04-19T08:39:10.615Z</time></trkpt><trkpt lat="45.6507643" lon="8.2555722"><ele>386.20000000000005</ele><time>2026-04-19T08:39:12.615Z</time></trkpt><trkpt lat="45.650666" lon="8.2556511"><ele>385.8</ele><time>2026-04-19T08:39:14.613Z</time></trkpt><trkpt lat="45.650555" lon="8.2556988"><ele>385.4</ele><time>2026-04-19T08:39:16.614Z</time></trkpt><trkpt lat="45.6504721" lon="8.255782"><ele>385.0</ele><time>2026-04-19T08:39:18.615Z</time></trkpt><trkpt lat="45.6503657" lon="8.2558256"><ele>385.00000000000006</ele><time>2026-04-19T08:39:20.614Z</time></trkpt><trkpt lat="45.650299" lon="8.2558451"><ele>385.0</ele><time>2026-04-19T08:39:21.613Z</time></trkpt><trkpt lat="45.6502376" lon="8.25588"><ele>385.0</ele><time>2026-04-19T08:39:22.614Z</time></trkpt><trkpt lat="45.6501871" lon="8.2559384"><ele>385.0</ele><time>2026-04-19T08:39:23.614Z</time></trkpt><trkpt lat="45.6500871" lon="8.2560355"><ele>385.00000000000006</ele><time>2026-04-19T08:39:25.612Z</time></trkpt><trkpt lat="45.6499915" lon="8.2560999"><ele>385.0</ele><time>2026-04-19T08:39:27.615Z</time></trkpt><trkpt lat="45.6498859" lon="8.2561666"><ele>384.4</ele><time>2026-04-19T08:39:29.615Z</time></trkpt><trkpt lat="45.6497855" lon="8.2562428"><ele>383.8</ele><time>2026-04-19T08:39:31.614Z</time></trkpt><trkpt lat="45.6496944" lon="8.2562926"><ele>383.20000000000005</ele><time>2026-04-19T08:39:33.614Z</time></trkpt><trkpt lat="45.6495984" lon="8.2563611"><ele>382.6</ele><time>2026-04-19T08:39:35.614Z</time></trkpt><trkpt lat="45.6495067" lon="8.2564402"><ele>382.0</ele><time>2026-04-19T08:39:37.614Z</time></trkpt><trkpt lat="45.6494471" lon="8.2564976"><ele>382.0</ele><time>2026-04-19T08:39:39.615Z</time></trkpt><trkpt lat="45.6493875" lon="8.2565703"><ele>382.0</ele><time>2026-04-19T08:39:42.615Z</time></trkpt><trkpt lat="45.6493412" lon="8.2566373"><ele>382.0</ele><time>2026-04-19T08:40:04.613Z</time></trkpt><trkpt lat="45.6492666" lon="8.2566577"><ele>382.0</ele><time>2026-04-19T08:40:42.614Z</time></trkpt><trkpt lat="45.6491747" lon="8.2566569"><ele>382.0</ele><time>2026-04-19T08:41:06.614Z</time></trkpt><trkpt lat="45.6491043" lon="8.2566736"><ele>382.0</ele><time>2026-04-19T08:41:08.615Z</time></trkpt><trkpt lat="45.649034" lon="8.2566836"><ele>382.0</ele><time>2026-04-19T08:41:12.613Z</time></trkpt><trkpt lat="45.6490704" lon="8.2565882"><ele>382.0</ele><time>2026-04-19T08:41:57.615Z</time></trkpt><trkpt lat="45.6490239" lon="8.2565012"><ele>382.0</ele><time>2026-04-19T08:42:05.615Z</time></trkpt><trkpt lat="45.6489595" lon="8.2564332"><ele>382.0</ele><time>2026-04-19T08:42:09.613Z</time></trkpt><trkpt lat="45.6489156" lon="8.2563673"><ele>382.0</ele><time>2026-04-19T08:42:12.613Z</time></trkpt><trkpt lat="45.6488653" lon="8.2562973"><ele>382.0</ele><time>2026-04-19T08:42:15.615Z</time></trkpt><trkpt lat="45.6489307" lon="8.2563617"><ele>382.0</ele><time>2026-04-19T08:42:49.614Z</time></trkpt><trkpt lat="45.6489939" lon="8.2564315"><ele>382.0</ele><time>2026-04-19T08:42:52.615Z</time></trkpt><trkpt lat="45.6490564" lon="8.2565219"><ele>382.0</ele><time>2026-04-19T08:42:55.614Z</time></trkpt><trkpt lat="45.649091" lon="8.256598"><ele>382.0</ele><time>2026-04-19T08:43:02.614Z</time></trkpt><trkpt lat="45.649139" lon="8.2566766"><ele>382.0</ele><time>2026-04-19T08:43:06.614Z</time></trkpt><trkpt lat="45.6492009" lon="8.2566555"><ele>382.0</ele><time>2026-04-19T08:43:09.613Z</time></trkpt><trkpt lat="45.6493026" lon="8.2566282"><ele>382.0</ele><time>2026-04-19T08:43:25.614Z</time></trkpt><trkpt lat="45.6493838" lon="8.2565716"><ele>382.0</ele><time>2026-04-19T08:43:29.614Z</time></trkpt><trkpt lat="45.6494403" lon="8.2564907"><ele>382.0</ele><time>2026-04-19T08:43:31.614Z</time></trkpt><trkpt lat="45.6495215" lon="8.256427"><ele>382.0</ele><time>2026-04-19T08:43:33.614Z</time></trkpt><trkpt lat="45.6496167" lon="8.2563295"><ele>382.0</ele><time>2026-04-19T08:43:35.614Z</time></trkpt><trkpt lat="45.6497126" lon="8.2562552"><ele>382.0</ele><time>2026-04-19T08:43:37.614Z</time></trkpt><trkpt lat="45.6498233" lon="8.2561935"><ele>382.42857142857144</ele><time>2026-04-19T08:43:39.613Z</time></trkpt><trkpt lat="45.6498923" lon="8.2561527"><ele>382.85714285714283</ele><time>2026-04-19T08:43:40.615Z</time></trkpt><trkpt lat="45.6499529" lon="8.2561161"><ele>383.2857142857143</ele><time>2026-04-19T08:43:41.614Z</time></trkpt><trkpt lat="45.650012" lon="8.25608"><ele>383.7142857142857</ele><time>2026-04-19T08:43:42.615Z</time></trkpt><trkpt lat="45.6500845" lon="8.2560213"><ele>384.1428571428571</ele><time>2026-04-19T08:43:43.615Z</time></trkpt><trkpt lat="45.6501462" lon="8.2559673"><ele>384.57142857142856</ele><time>2026-04-19T08:43:44.615Z</time></trkpt><trkpt lat="45.6502009" lon="8.2559131"><ele>385.0</ele><time>2026-04-19T08:43:45.615Z</time></trkpt><trkpt lat="45.6503186" lon="8.2558519"><ele>385.0</ele><time>2026-04-19T08:43:47.613Z</time></trkpt><trkpt lat="45.6504515" lon="8.2558023"><ele>385.0</ele><time>2026-04-19T08:43:49.615Z</time></trkpt><trkpt lat="45.6505055" lon="8.2557378"><ele>385.0</ele><time>2026-04-19T08:43:50.614Z</time></trkpt><trkpt lat="45.650593" lon="8.2556564"><ele>385.0</ele><time>2026-04-19T08:43:52.615Z</time></trkpt><trkpt lat="45.6507114" lon="8.2555827"><ele>385.0</ele><time>2026-04-19T08:43:54.614Z</time></trkpt><trkpt lat="45.6507687" lon="8.2555345"><ele>385.4</ele><time>2026-04-19T08:43:55.615Z</time></trkpt><trkpt lat="45.6508257" lon="8.2554843"><ele>385.8</ele><time>2026-04-19T08:43:56.613Z</time></trkpt><trkpt lat="45.6509093" lon="8.255374"><ele>386.20000000000005</ele><time>2026-04-19T08:43:58.615Z</time></trkpt><trkpt lat="45.6510022" lon="8.255364"><ele>386.6</ele><time>2026-04-19T08:44:00.614Z</time></trkpt><trkpt lat="45.6510899" lon="8.2554007"><ele>387.0</ele><time>2026-04-19T08:44:02.613Z</time></trkpt><trkpt lat="45.6511778" lon="8.2552966"><ele>387.0</ele><time>2026-04-19T08:44:04.615Z</time></trkpt><trkpt lat="45.6512186" lon="8.255221"><ele>387.0</ele><time>2026-04-19T08:44:05.614Z</time></trkpt><trkpt lat="45.6512681" lon="8.2551253"><ele>387.0</ele><time>2026-04-19T08:44:06.615Z</time></trkpt><trkpt lat="45.6513194" lon="8.255038"><ele>387.0</ele><time>2026-04-19T08:44:07.614Z</time></trkpt><trkpt lat="45.6513869" lon="8.2549815"><ele>387.0</ele><time>2026-04-19T08:44:08.615Z</time></trkpt><trkpt lat="45.651454" lon="8.2549417"><ele>387.0</ele><time>2026-04-19T08:44:09.614Z</time></trkpt><trkpt lat="45.6515267" lon="8.254903"><ele>387.0</ele><time>2026-04-19T08:44:10.613Z</time></trkpt><trkpt lat="45.6516164" lon="8.2549034"><ele>387.0</ele><time>2026-04-19T08:44:11.614Z</time></trkpt><trkpt lat="45.6517011" lon="8.2548751"><ele>387.0</ele><time>2026-04-19T08:44:12.614Z</time></trkpt><trkpt lat="45.6517821" lon="8.2548767"><ele>387.0</ele><time>2026-04-19T08:44:13.614Z</time></trkpt><trkpt lat="45.6518496" lon="8.2548264"><ele>387.0</ele><time>2026-04-19T08:44:14.615Z</time></trkpt><trkpt lat="45.6519102" lon="8.2547907"><ele>387.0</ele><time>2026-04-19T08:44:15.614Z</time></trkpt><trkpt lat="45.6520005" lon="8.2547559"><ele>386.8333333333333</ele><time>2026-04-19T08:44:17.612Z</time></trkpt><trkpt lat="45.6520868" lon="8.2547743"><ele>386.66666666666663</ele><time>2026-04-19T08:44:19.613Z</time></trkpt><trkpt lat="45.6521881" lon="8.254872"><ele>386.5</ele><time>2026-04-19T08:44:21.615Z</time></trkpt><trkpt lat="45.6522573" lon="8.2549092"><ele>386.3333333333333</ele><time>2026-04-19T08:44:22.614Z</time></trkpt><trkpt lat="45.6523305" lon="8.2549594"><ele>386.16666666666663</ele><time>2026-04-19T08:44:23.615Z</time></trkpt><trkpt lat="45.6523972" lon="8.2550158"><ele>386.0</ele><time>2026-04-19T08:44:24.613Z</time></trkpt><trkpt lat="45.6524629" lon="8.25508"><ele>385.99999999999994</ele><time>2026-04-19T08:44:25.614Z</time></trkpt><trkpt lat="45.6525151" lon="8.2551557"><ele>386.0</ele><time>2026-04-19T08:44:26.613Z</time></trkpt><trkpt lat="45.6525534" lon="8.2552502"><ele>386.0</ele><time>2026-04-19T08:44:27.614Z</time></trkpt><trkpt lat="45.6525849" lon="8.2553498"><ele>386.0</ele><time>2026-04-19T08:44:28.613Z</time></trkpt><trkpt lat="45.6526121" lon="8.2554616"><ele>385.99999999999994</ele><time>2026-04-19T08:44:29.614Z</time></trkpt><trkpt lat="45.6526366" lon="8.255567"><ele>386.0</ele><time>2026-04-19T08:44:30.614Z</time></trkpt><trkpt lat="45.6526578" lon="8.2556793"><ele>386.0</ele><time>2026-04-19T08:44:31.615Z</time></trkpt><trkpt lat="45.6526837" lon="8.2558011"><ele>386.0</ele><time>2026-04-19T08:44:32.614Z</time></trkpt><trkpt lat="45.6527176" lon="8.2559397"><ele>386.0</ele><time>2026-04-19T08:44:33.614Z</time></trkpt><trkpt lat="45.652754" lon="8.2560666"><ele>386.0</ele><time>2026-04-19T08:44:34.614Z</time></trkpt><trkpt lat="45.6527893" lon="8.2561922"><ele>386.0</ele><time>2026-04-19T08:44:35.614Z</time></trkpt><trkpt lat="45.6528321" lon="8.2562976"><ele>386.99999999999994</ele><time>2026-04-19T08:44:36.614Z</time></trkpt><trkpt lat="45.652889" lon="8.2563801"><ele>388.0</ele><time>2026-04-19T08:44:37.613Z</time></trkpt><trkpt lat="45.6529499" lon="8.2564702"><ele>389.0</ele><time>2026-04-19T08:44:38.615Z</time></trkpt><trkpt lat="45.6530075" lon="8.2565662"><ele>390.0</ele><time>2026-04-19T08:44:39.614Z</time></trkpt><trkpt lat="45.6530632" lon="8.2566557"><ele>390.99999999999994</ele><time>2026-04-19T08:44:40.614Z</time></trkpt><trkpt lat="45.6531179" lon="8.2567361"><ele>392.0</ele><time>2026-04-19T08:44:41.615Z</time></trkpt><trkpt lat="45.6531764" lon="8.256805"><ele>394.16666666666663</ele><time>2026-04-19T08:44:42.615Z</time></trkpt><trkpt lat="45.6532403" lon="8.2568668"><ele>396.3333333333333</ele><time>2026-04-19T08:44:43.615Z</time></trkpt><trkpt lat="45.6533001" lon="8.2569411"><ele>398.5</ele><time>2026-04-19T08:44:44.613Z</time></trkpt><trkpt lat="45.6533503" lon="8.2570238"><ele>400.66666666666663</ele><time>2026-04-19T08:44:45.614Z</time></trkpt><trkpt lat="45.6534036" lon="8.257103"><ele>402.8333333333333</ele><time>2026-04-19T08:44:46.613Z</time></trkpt><trkpt lat="45.6534507" lon="8.2571889"><ele>405.0</ele><time>2026-04-19T08:44:47.614Z</time></trkpt><trkpt lat="45.6534948" lon="8.257284"><ele>406.3333333333333</ele><time>2026-04-19T08:44:48.615Z</time></trkpt><trkpt lat="45.6535362" lon="8.2573849"><ele>407.66666666666663</ele><time>2026-04-19T08:44:49.615Z</time></trkpt><trkpt lat="45.6535862" lon="8.2574822"><ele>409.0</ele><time>2026-04-19T08:44:50.615Z</time></trkpt><trkpt lat="45.6536315" lon="8.2575779"><ele>410.3333333333333</ele><time>2026-04-19T08:44:51.613Z</time></trkpt><trkpt lat="45.653684" lon="8.2576634"><ele>411.66666666666663</ele><time>2026-04-19T08:44:52.615Z</time></trkpt><trkpt lat="45.6537205" lon="8.2577707"><ele>413.0</ele><time>2026-04-19T08:44:53.614Z</time></trkpt><trkpt lat="45.653757" lon="8.2578668"><ele>414.99999999999994</ele><time>2026-04-19T08:44:54.615Z</time></trkpt><trkpt lat="45.6537925" lon="8.2579672"><ele>417.0</ele><time>2026-04-19T08:44:55.615Z</time></trkpt><trkpt lat="45.6538325" lon="8.2580676"><ele>419.0</ele><time>2026-04-19T08:44:56.615Z</time></trkpt><trkpt lat="45.6538929" lon="8.2581513"><ele>421.0</ele><time>2026-04-19T08:44:57.613Z</time></trkpt><trkpt lat="45.6539542" lon="8.2582361"><ele>422.99999999999994</ele><time>2026-04-19T08:44:58.613Z</time></trkpt><trkpt lat="45.6540155" lon="8.2583119"><ele>425.0</ele><time>2026-04-19T08:44:59.614Z</time></trkpt><trkpt lat="45.6540671" lon="8.2584144"><ele>425.16666666666663</ele><time>2026-04-19T08:45:00.614Z</time></trkpt><trkpt lat="45.6541209" lon="8.2584985"><ele>425.3333333333333</ele><time>2026-04-19T08:45:01.613Z</time></trkpt><trkpt lat="45.6541819" lon="8.258583"><ele>425.5</ele><time>2026-04-19T08:45:02.614Z</time></trkpt><trkpt lat="45.6542434" lon="8.2586277"><ele>425.66666666666663</ele><time>2026-04-19T08:45:03.615Z</time></trkpt><trkpt lat="45.6543049" lon="8.258674"><ele>425.8333333333333</ele><time>2026-04-19T08:45:04.614Z</time></trkpt><trkpt lat="45.6543668" lon="8.2587428"><ele>426.0</ele><time>2026-04-19T08:45:05.615Z</time></trkpt><trkpt lat="45.654429" lon="8.2588123"><ele>426.20000000000005</ele><time>2026-04-19T08:45:06.613Z</time></trkpt><trkpt lat="45.6544809" lon="8.2588724"><ele>426.40000000000003</ele><time>2026-04-19T08:45:07.613Z</time></trkpt><trkpt lat="45.6545418" lon="8.2589849"><ele>426.6</ele><time>2026-04-19T08:45:09.613Z</time></trkpt><trkpt lat="45.6545164" lon="8.2591038"><ele>426.8</ele><time>2026-04-19T08:45:11.613Z</time></trkpt><trkpt lat="45.6544273" lon="8.2591922"><ele>427.0</ele><time>2026-04-19T08:45:13.614Z</time></trkpt><trkpt lat="45.6543055" lon="8.2591889"><ele>427.00000000000006</ele><time>2026-04-19T08:45:15.613Z</time></trkpt><trkpt lat="45.6542424" lon="8.2591523"><ele>427.0</ele><time>2026-04-19T08:45:16.613Z</time></trkpt><trkpt lat="45.6541521" lon="8.2591032"><ele>427.0</ele><time>2026-04-19T08:45:18.614Z</time></trkpt><trkpt lat="45.654103" lon="8.259186"><ele>427.0</ele><time>2026-04-19T08:45:21.614Z</time></trkpt><trkpt lat="45.6541671" lon="8.2592263"><ele>427.00000000000006</ele><time>2026-04-19T08:45:23.614Z</time></trkpt><trkpt lat="45.6542409" lon="8.2592636"><ele>427.0</ele><time>2026-04-19T08:45:25.614Z</time></trkpt><trkpt lat="45.6543308" lon="8.2593651"><ele>427.00000000000006</ele><time>2026-04-19T08:45:27.615Z</time></trkpt><trkpt lat="45.6543969" lon="8.2594277"><ele>427.0</ele><time>2026-04-19T08:45:29.613Z</time></trkpt><trkpt lat="45.6544259" lon="8.2595141"><ele>427.0</ele><time>2026-04-19T08:45:58.613Z</time></trkpt><trkpt lat="45.6543507" lon="8.2594667"><ele>427.0</ele><time>2026-04-19T08:46:06.614Z</time></trkpt><trkpt lat="45.6542864" lon="8.2594212"><ele>427.00000000000006</ele><time>2026-04-19T08:46:08.614Z</time></trkpt><trkpt lat="45.654197" lon="8.2593754"><ele>427.0</ele><time>2026-04-19T08:46:11.614Z</time></trkpt><trkpt lat="45.6541135" lon="8.2593344"><ele>427.00000000000006</ele><time>2026-04-19T08:46:13.613Z</time></trkpt><trkpt lat="45.6540358" lon="8.2593065"><ele>427.0</ele><time>2026-04-19T08:46:15.614Z</time></trkpt><trkpt lat="45.653958" lon="8.2593525"><ele>427.0</ele><time>2026-04-19T08:46:17.614Z</time></trkpt><trkpt lat="45.6538852" lon="8.2593895"><ele>427.0</ele><time>2026-04-19T08:46:19.614Z</time></trkpt><trkpt lat="45.653813" lon="8.2594461"><ele>427.00000000000006</ele><time>2026-04-19T08:46:21.615Z</time></trkpt><trkpt lat="45.653759" lon="8.2595216"><ele>427.0</ele><time>2026-04-19T08:46:23.615Z</time></trkpt><trkpt lat="45.6536864" lon="8.259576"><ele>429.20000000000005</ele><time>2026-04-19T08:46:25.614Z</time></trkpt><trkpt lat="45.6535919" lon="8.2595793"><ele>431.40000000000003</ele><time>2026-04-19T08:46:27.613Z</time></trkpt><trkpt lat="45.6535007" lon="8.2595542"><ele>433.59999999999997</ele><time>2026-04-19T08:46:29.614Z</time></trkpt><trkpt lat="45.6534211" lon="8.259527"><ele>435.79999999999995</ele><time>2026-04-19T08:46:31.613Z</time></trkpt><trkpt lat="45.6533421" lon="8.259554"><ele>438.0</ele><time>2026-04-19T08:46:33.615Z</time></trkpt><trkpt lat="45.6532315" lon="8.2595664"><ele>438.0</ele><time>2026-04-19T08:46:35.614Z</time></trkpt><trkpt lat="45.6531683" lon="8.2595567"><ele>438.0</ele><time>2026-04-19T08:46:36.614Z</time></trkpt><trkpt lat="45.6531011" lon="8.2595716"><ele>438.0</ele><time>2026-04-19T08:46:37.615Z</time></trkpt><trkpt lat="45.6530335" lon="8.2595726"><ele>438.0</ele><time>2026-04-19T08:46:38.614Z</time></trkpt><trkpt lat="45.6529611" lon="8.2595794"><ele>438.0</ele><time>2026-04-19T08:46:39.614Z</time></trkpt><trkpt lat="45.6528969" lon="8.2596146"><ele>438.0</ele><time>2026-04-19T08:46:40.613Z</time></trkpt><trkpt lat="45.6528496" lon="8.2596863"><ele>438.0</ele><time>2026-04-19T08:46:41.614Z</time></trkpt><trkpt lat="45.6527998" lon="8.2597465"><ele>438.59999999999997</ele><time>2026-04-19T08:46:42.613Z</time></trkpt><trkpt lat="45.6527242" lon="8.2597606"><ele>439.19999999999993</ele><time>2026-04-19T08:46:44.613Z</time></trkpt><trkpt lat="45.6526229" lon="8.2597158"><ele>439.8</ele><time>2026-04-19T08:46:46.614Z</time></trkpt><trkpt lat="45.6525212" lon="8.259692"><ele>440.4</ele><time>2026-04-19T08:46:48.614Z</time></trkpt><trkpt lat="45.6524141" lon="8.2597042"><ele>441.0</ele><time>2026-04-19T08:46:50.614Z</time></trkpt><trkpt lat="45.6523173" lon="8.2597108"><ele>441.0</ele><time>2026-04-19T08:46:52.615Z</time></trkpt><trkpt lat="45.6522502" lon="8.2597158"><ele>441.0</ele><time>2026-04-19T08:46:54.615Z</time></trkpt><trkpt lat="45.6521872" lon="8.2597548"><ele>441.0</ele><time>2026-04-19T08:46:56.613Z</time></trkpt><trkpt lat="45.6521181" lon="8.2597509"><ele>441.0</ele><time>2026-04-19T08:46:58.614Z</time></trkpt><trkpt lat="45.6520586" lon="8.2596973"><ele>441.0</ele><time>2026-04-19T08:47:02.614Z</time></trkpt><trkpt lat="45.6520122" lon="8.2596297"><ele>441.0</ele><time>2026-04-19T08:47:04.613Z</time></trkpt><trkpt lat="45.6519549" lon="8.2595689"><ele>441.0</ele><time>2026-04-19T08:47:06.615Z</time></trkpt><trkpt lat="45.651885" lon="8.259504"><ele>441.6666666666667</ele><time>2026-04-19T08:47:08.613Z</time></trkpt><trkpt lat="45.6518279" lon="8.2594247"><ele>442.33333333333337</ele><time>2026-04-19T08:47:10.614Z</time></trkpt><trkpt lat="45.6518273" lon="8.2592992"><ele>443.0</ele><time>2026-04-19T08:47:12.613Z</time></trkpt><trkpt lat="45.6517931" lon="8.2592116"><ele>443.6666666666667</ele><time>2026-04-19T08:47:14.614Z</time></trkpt><trkpt lat="45.6517758" lon="8.2591015"><ele>444.33333333333337</ele><time>2026-04-19T08:47:17.615Z</time></trkpt><trkpt lat="45.6517071" lon="8.259054"><ele>445.0</ele><time>2026-04-19T08:47:20.615Z</time></trkpt><trkpt lat="45.6516329" lon="8.2590552"><ele>445.00000000000006</ele><time>2026-04-19T08:47:23.613Z</time></trkpt><trkpt lat="45.6515451" lon="8.2590219"><ele>445.0</ele><time>2026-04-19T08:47:26.614Z</time></trkpt><trkpt lat="45.6514859" lon="8.2589877"><ele>445.0</ele><time>2026-04-19T08:47:28.614Z</time></trkpt><trkpt lat="45.6514433" lon="8.2589171"><ele>445.0</ele><time>2026-04-19T08:47:30.614Z</time></trkpt><trkpt lat="45.6513903" lon="8.2588301"><ele>445.00000000000006</ele><time>2026-04-19T08:47:32.614Z</time></trkpt><trkpt lat="45.6513145" lon="8.258771"><ele>445.0</ele><time>2026-04-19T08:47:34.614Z</time></trkpt><trkpt lat="45.6512407" lon="8.2587455"><ele>444.6666666666667</ele><time>2026-04-19T08:47:36.615Z</time></trkpt><trkpt lat="45.6511836" lon="8.2588034"><ele>444.33333333333337</ele><time>2026-04-19T08:47:47.614Z</time></trkpt><trkpt lat="45.651112" lon="8.2588624"><ele>444.0</ele><time>2026-04-19T08:47:50.614Z</time></trkpt><trkpt lat="45.65104" lon="8.2588764"><ele>443.66666666666663</ele><time>2026-04-19T08:47:52.613Z</time></trkpt><trkpt lat="45.6509737" lon="8.2588979"><ele>443.3333333333333</ele><time>2026-04-19T08:47:54.613Z</time></trkpt><trkpt lat="45.6508896" lon="8.2589523"><ele>443.0</ele><time>2026-04-19T08:47:57.612Z</time></trkpt><trkpt lat="45.6508053" lon="8.2589478"><ele>443.0</ele><time>2026-04-19T08:47:59.614Z</time></trkpt><trkpt lat="45.6507118" lon="8.2588882"><ele>442.99999999999994</ele><time>2026-04-19T08:48:01.612Z</time></trkpt><trkpt lat="45.6506073" lon="8.2587987"><ele>442.99999999999994</ele><time>2026-04-19T08:48:03.614Z</time></trkpt><trkpt lat="45.6505432" lon="8.2587547"><ele>443.0</ele><time>2026-04-19T08:48:04.613Z</time></trkpt><trkpt lat="45.6504661" lon="8.2586813"><ele>443.0</ele><time>2026-04-19T08:48:06.613Z</time></trkpt><trkpt lat="45.650369" lon="8.2586189"><ele>443.66666666666663</ele><time>2026-04-19T08:48:08.613Z</time></trkpt><trkpt lat="45.6502537" lon="8.2586163"><ele>444.3333333333333</ele><time>2026-04-19T08:48:10.614Z</time></trkpt><trkpt lat="45.6501842" lon="8.2586208"><ele>445.0</ele><time>2026-04-19T08:48:11.613Z</time></trkpt><trkpt lat="45.6501049" lon="8.2586222"><ele>445.66666666666663</ele><time>2026-04-19T08:48:12.613Z</time></trkpt><trkpt lat="45.6500208" lon="8.2586189"><ele>446.3333333333333</ele><time>2026-04-19T08:48:13.613Z</time></trkpt><trkpt lat="45.6499544" lon="8.2586069"><ele>447.0</ele><time>2026-04-19T08:48:14.613Z</time></trkpt><trkpt lat="45.6498598" lon="8.2585659"><ele>447.0</ele><time>2026-04-19T08:48:16.615Z</time></trkpt><trkpt lat="45.6497673" lon="8.2585285"><ele>447.00000000000006</ele><time>2026-04-19T08:48:18.614Z</time></trkpt><trkpt lat="45.6496663" lon="8.2585107"><ele>447.00000000000006</ele><time>2026-04-19T08:48:20.614Z</time></trkpt><trkpt lat="45.6496044" lon="8.2585408"><ele>447.0</ele><time>2026-04-19T08:48:21.614Z</time></trkpt><trkpt lat="45.6494649" lon="8.2586562"><ele>447.0</ele><time>2026-04-19T08:48:23.615Z</time></trkpt><trkpt lat="45.6493881" lon="8.2587129"><ele>447.5</ele><time>2026-04-19T08:48:24.613Z</time></trkpt><trkpt lat="45.6493146" lon="8.258763"><ele>448.0</ele><time>2026-04-19T08:48:25.613Z</time></trkpt><trkpt lat="45.6492316" lon="8.2587917"><ele>448.5</ele><time>2026-04-19T08:48:26.615Z</time></trkpt><trkpt lat="45.6491601" lon="8.25877"><ele>449.0</ele><time>2026-04-19T08:48:27.614Z</time></trkpt><trkpt lat="45.649064" lon="8.2587747"><ele>449.5</ele><time>2026-04-19T08:48:28.614Z</time></trkpt><trkpt lat="45.6489742" lon="8.2587764"><ele>450.0</ele><time>2026-04-19T08:48:29.614Z</time></trkpt><trkpt lat="45.6488956" lon="8.258795"><ele>450.0</ele><time>2026-04-19T08:48:30.615Z</time></trkpt><trkpt lat="45.6488137" lon="8.2588144"><ele>450.0</ele><time>2026-04-19T08:48:31.614Z</time></trkpt><trkpt lat="45.648739" lon="8.2588222"><ele>450.0</ele><time>2026-04-19T08:48:32.614Z</time></trkpt><trkpt lat="45.6486654" lon="8.2588114"><ele>450.0</ele><time>2026-04-19T08:48:33.614Z</time></trkpt><trkpt lat="45.6485447" lon="8.2587701"><ele>450.0</ele><time>2026-04-19T08:48:35.614Z</time></trkpt><trkpt lat="45.6484461" lon="8.2588171"><ele>451.2</ele><time>2026-04-19T08:48:37.613Z</time></trkpt><trkpt lat="45.6483469" lon="8.258913"><ele>452.4</ele><time>2026-04-19T08:48:39.614Z</time></trkpt><trkpt lat="45.6482883" lon="8.2589489"><ele>453.6</ele><time>2026-04-19T08:48:40.613Z</time></trkpt><trkpt lat="45.6481529" lon="8.2589406"><ele>454.8</ele><time>2026-04-19T08:48:42.614Z</time></trkpt><trkpt lat="45.6480777" lon="8.2589109"><ele>456.0</ele><time>2026-04-19T08:48:43.614Z</time></trkpt><trkpt lat="45.6479857" lon="8.258881"><ele>456.0</ele><time>2026-04-19T08:48:44.614Z</time></trkpt><trkpt lat="45.6478884" lon="8.2588553"><ele>456.0</ele><time>2026-04-19T08:48:45.614Z</time></trkpt><trkpt lat="45.6477754" lon="8.258826"><ele>456.0</ele><time>2026-04-19T08:48:46.614Z</time></trkpt><trkpt lat="45.6476749" lon="8.2588085"><ele>456.0</ele><time>2026-04-19T08:48:47.614Z</time></trkpt><trkpt lat="45.6475935" lon="8.2588104"><ele>456.0</ele><time>2026-04-19T08:48:48.614Z</time></trkpt><trkpt lat="45.6475192" lon="8.2588371"><ele>456.8</ele><time>2026-04-19T08:48:49.614Z</time></trkpt><trkpt lat="45.6473997" lon="8.2588759"><ele>457.6</ele><time>2026-04-19T08:48:51.613Z</time></trkpt><trkpt lat="45.6472865" lon="8.2589425"><ele>458.4</ele><time>2026-04-19T08:48:53.613Z</time></trkpt><trkpt lat="45.647213" lon="8.258957"><ele>459.2</ele><time>2026-04-19T08:48:54.615Z</time></trkpt><trkpt lat="45.6471477" lon="8.2589658"><ele>460.0</ele><time>2026-04-19T08:48:55.613Z</time></trkpt><trkpt lat="45.6470468" lon="8.2590023"><ele>460.0</ele><time>2026-04-19T08:48:57.613Z</time></trkpt><trkpt lat="45.646963" lon="8.2589651"><ele>460.0</ele><time>2026-04-19T08:48:59.614Z</time></trkpt><trkpt lat="45.6468648" lon="8.2589552"><ele>460.0</ele><time>2026-04-19T08:49:01.614Z</time></trkpt><trkpt lat="45.6467506" lon="8.2590058"><ele>460.0</ele><time>2026-04-19T08:49:03.614Z</time></trkpt><trkpt lat="45.6466435" lon="8.2590048"><ele>460.0</ele><time>2026-04-19T08:49:05.615Z</time></trkpt><trkpt lat="45.6465264" lon="8.2589506"><ele>457.1666666666667</ele><time>2026-04-19T08:49:07.614Z</time></trkpt><trkpt lat="45.6464713" lon="8.258904"><ele>454.33333333333337</ele><time>2026-04-19T08:49:08.614Z</time></trkpt><trkpt lat="45.6464044" lon="8.258874"><ele>451.5</ele><time>2026-04-19T08:49:09.614Z</time></trkpt><trkpt lat="45.6463197" lon="8.2588279"><ele>448.66666666666663</ele><time>2026-04-19T08:49:11.614Z</time></trkpt><trkpt lat="45.6462261" lon="8.2588004"><ele>445.8333333333333</ele><time>2026-04-19T08:49:13.613Z</time></trkpt><trkpt lat="45.6461275" lon="8.258838"><ele>443.0</ele><time>2026-04-19T08:49:15.615Z</time></trkpt><trkpt lat="45.6460126" lon="8.2588854"><ele>442.3333333333333</ele><time>2026-04-19T08:49:17.614Z</time></trkpt><trkpt lat="45.6458889" lon="8.2588862"><ele>441.66666666666663</ele><time>2026-04-19T08:49:19.614Z</time></trkpt><trkpt lat="45.6458241" lon="8.2588901"><ele>441.0</ele><time>2026-04-19T08:49:20.614Z</time></trkpt><trkpt lat="45.6457565" lon="8.2588939"><ele>440.33333333333337</ele><time>2026-04-19T08:49:21.614Z</time></trkpt><trkpt lat="45.6456911" lon="8.2589237"><ele>439.6666666666667</ele><time>2026-04-19T08:49:22.614Z</time></trkpt><trkpt lat="45.6456196" lon="8.2589222"><ele>439.0</ele><time>2026-04-19T08:49:23.613Z</time></trkpt><trkpt lat="45.6454932" lon="8.2589741"><ele>440.85714285714283</ele><time>2026-04-19T08:49:25.614Z</time></trkpt><trkpt lat="45.6454275" lon="8.2590196"><ele>442.71428571428567</ele><time>2026-04-19T08:49:26.615Z</time></trkpt><trkpt lat="45.6453683" lon="8.2590729"><ele>444.57142857142856</ele><time>2026-04-19T08:49:27.614Z</time></trkpt><trkpt lat="45.645327" lon="8.2591469"><ele>446.42857142857144</ele><time>2026-04-19T08:49:28.614Z</time></trkpt><trkpt lat="45.6452688" lon="8.2591904"><ele>448.2857142857143</ele><time>2026-04-19T08:49:29.614Z</time></trkpt><trkpt lat="45.6452037" lon="8.2592176"><ele>450.14285714285717</ele><time>2026-04-19T08:49:30.614Z</time></trkpt><trkpt lat="45.6451387" lon="8.259234"><ele>452.0</ele><time>2026-04-19T08:49:31.614Z</time></trkpt><trkpt lat="45.6450686" lon="8.2592423"><ele>451.99999999999994</ele><time>2026-04-19T08:49:32.614Z</time></trkpt><trkpt lat="45.645001" lon="8.2592752"><ele>452.0</ele><time>2026-04-19T08:49:33.613Z</time></trkpt><trkpt lat="45.6449344" lon="8.2593064"><ele>452.0</ele><time>2026-04-19T08:49:34.613Z</time></trkpt><trkpt lat="45.6448198" lon="8.259375"><ele>452.0</ele><time>2026-04-19T08:49:36.613Z</time></trkpt><trkpt lat="45.6447443" lon="8.2593884"><ele>451.99999999999994</ele><time>2026-04-19T08:49:38.614Z</time></trkpt><trkpt lat="45.6446697" lon="8.2594053"><ele>452.0</ele><time>2026-04-19T08:49:40.614Z</time></trkpt><trkpt lat="45.6445937" lon="8.2594069"><ele>451.99999999999994</ele><time>2026-04-19T08:49:42.615Z</time></trkpt><trkpt lat="45.6445233" lon="8.2593951"><ele>452.0</ele><time>2026-04-19T08:49:44.613Z</time></trkpt><trkpt lat="45.644452" lon="8.2593766"><ele>452.0</ele><time>2026-04-19T08:49:46.613Z</time></trkpt><trkpt lat="45.6443754" lon="8.2593801"><ele>452.0</ele><time>2026-04-19T08:49:48.613Z</time></trkpt><trkpt lat="45.6443117" lon="8.2594523"><ele>451.99999999999994</ele><time>2026-04-19T08:49:50.615Z</time></trkpt><trkpt lat="45.644242" lon="8.2595439"><ele>452.0</ele><time>2026-04-19T08:49:52.613Z</time></trkpt><trkpt lat="45.6441578" lon="8.259617"><ele>446.8</ele><time>2026-04-19T08:49:54.613Z</time></trkpt><trkpt lat="45.6440506" lon="8.2596687"><ele>441.6</ele><time>2026-04-19T08:49:56.613Z</time></trkpt><trkpt lat="45.6439293" lon="8.2597419"><ele>436.40000000000003</ele><time>2026-04-19T08:49:58.614Z</time></trkpt><trkpt lat="45.6438659" lon="8.259797"><ele>431.20000000000005</ele><time>2026-04-19T08:49:59.614Z</time></trkpt><trkpt lat="45.6438033" lon="8.259864"><ele>426.0</ele><time>2026-04-19T08:50:00.614Z</time></trkpt><trkpt lat="45.6437411" lon="8.2599335"><ele>426.0</ele><time>2026-04-19T08:50:01.614Z</time></trkpt><trkpt lat="45.6436878" lon="8.2600204"><ele>426.0</ele><time>2026-04-19T08:50:02.613Z</time></trkpt><trkpt lat="45.6436318" lon="8.2601057"><ele>426.0</ele><time>2026-04-19T08:50:03.614Z</time></trkpt><trkpt lat="45.6435819" lon="8.2601916"><ele>426.0</ele><time>2026-04-19T08:50:04.615Z</time></trkpt><trkpt lat="45.6434949" lon="8.2603033"><ele>426.0</ele><time>2026-04-19T08:50:06.613Z</time></trkpt><trkpt lat="45.6434518" lon="8.2604307"><ele>425.6</ele><time>2026-04-19T08:50:08.614Z</time></trkpt><trkpt lat="45.6434456" lon="8.2606009"><ele>425.20000000000005</ele><time>2026-04-19T08:50:10.613Z</time></trkpt><trkpt lat="45.6434344" lon="8.2606915"><ele>424.79999999999995</ele><time>2026-04-19T08:50:11.614Z</time></trkpt><trkpt lat="45.6433794" lon="8.2608392"><ele>424.4</ele><time>2026-04-19T08:50:13.612Z</time></trkpt><trkpt lat="45.6432837" lon="8.2609473"><ele>424.0</ele><time>2026-04-19T08:50:15.613Z</time></trkpt><trkpt lat="45.6431764" lon="8.2609495"><ele>422.6</ele><time>2026-04-19T08:50:17.614Z</time></trkpt><trkpt lat="45.6430802" lon="8.2609149"><ele>421.2</ele><time>2026-04-19T08:50:19.614Z</time></trkpt><trkpt lat="45.6429948" lon="8.2609359"><ele>419.8</ele><time>2026-04-19T08:50:21.613Z</time></trkpt><trkpt lat="45.6429185" lon="8.2610297"><ele>418.40000000000003</ele><time>2026-04-19T08:50:23.614Z</time></trkpt><trkpt lat="45.6428463" lon="8.2611405"><ele>417.0</ele><time>2026-04-19T08:50:25.613Z</time></trkpt><trkpt lat="45.6427642" lon="8.2612127"><ele>417.0</ele><time>2026-04-19T08:50:27.614Z</time></trkpt><trkpt lat="45.6426844" lon="8.261213"><ele>417.0</ele><time>2026-04-19T08:50:29.613Z</time></trkpt><trkpt lat="45.6426017" lon="8.2612661"><ele>417.0</ele><time>2026-04-19T08:50:31.615Z</time></trkpt><trkpt lat="45.6425212" lon="8.261389"><ele>417.0</ele><time>2026-04-19T08:50:33.614Z</time></trkpt><trkpt lat="45.6424758" lon="8.2614646"><ele>417.0</ele><time>2026-04-19T08:50:34.614Z</time></trkpt><trkpt lat="45.6424224" lon="8.2615738"><ele>418.40000000000003</ele><time>2026-04-19T08:50:35.615Z</time></trkpt><trkpt lat="45.6423837" lon="8.2616598"><ele>419.8</ele><time>2026-04-19T08:50:36.613Z</time></trkpt><trkpt lat="45.6423415" lon="8.261741"><ele>421.2</ele><time>2026-04-19T08:50:37.614Z</time></trkpt><trkpt lat="45.6422729" lon="8.2618446"><ele>422.6</ele><time>2026-04-19T08:50:39.613Z</time></trkpt><trkpt lat="45.6421833" lon="8.2618902"><ele>424.0</ele><time>2026-04-19T08:50:41.614Z</time></trkpt><trkpt lat="45.6420656" lon="8.2619043"><ele>424.00000000000006</ele><time>2026-04-19T08:50:43.614Z</time></trkpt><trkpt lat="45.6419999" lon="8.2619251"><ele>424.0</ele><time>2026-04-19T08:50:44.614Z</time></trkpt><trkpt lat="45.6419217" lon="8.2619628"><ele>424.0</ele><time>2026-04-19T08:50:45.613Z</time></trkpt><trkpt lat="45.6418418" lon="8.2620106"><ele>424.0</ele><time>2026-04-19T08:50:46.614Z</time></trkpt><trkpt lat="45.6417627" lon="8.2620633"><ele>424.00000000000006</ele><time>2026-04-19T08:50:47.614Z</time></trkpt><trkpt lat="45.6416997" lon="8.2621139"><ele>424.0</ele><time>2026-04-19T08:50:48.614Z</time></trkpt><trkpt lat="45.6415992" lon="8.2622256"><ele>422.7142857142857</ele><time>2026-04-19T08:50:50.613Z</time></trkpt><trkpt lat="45.6415494" lon="8.2622852"><ele>421.4285714285714</ele><time>2026-04-19T08:50:51.614Z</time></trkpt><trkpt lat="45.6415043" lon="8.2623588"><ele>420.1428571428571</ele><time>2026-04-19T08:50:52.614Z</time></trkpt><trkpt lat="45.6414652" lon="8.2624468"><ele>418.8571428571429</ele><time>2026-04-19T08:50:53.614Z</time></trkpt><trkpt lat="45.6414352" lon="8.2625531"><ele>417.57142857142856</ele><time>2026-04-19T08:50:54.614Z</time></trkpt><trkpt lat="45.6414127" lon="8.2626479"><ele>416.2857142857143</ele><time>2026-04-19T08:50:55.613Z</time></trkpt><trkpt lat="45.6413919" lon="8.262742"><ele>415.0</ele><time>2026-04-19T08:50:56.613Z</time></trkpt><trkpt lat="45.6413864" lon="8.2629218"><ele>415.0</ele><time>2026-04-19T08:50:58.613Z</time></trkpt><trkpt lat="45.6413998" lon="8.2630739"><ele>415.0</ele><time>2026-04-19T08:51:00.614Z</time></trkpt><trkpt lat="45.6413562" lon="8.2631743"><ele>415.0</ele><time>2026-04-19T08:51:02.614Z</time></trkpt><trkpt lat="45.6412804" lon="8.2632138"><ele>415.0</ele><time>2026-04-19T08:51:04.613Z</time></trkpt><trkpt lat="45.6411667" lon="8.263196"><ele>415.0</ele><time>2026-04-19T08:51:06.615Z</time></trkpt><trkpt lat="45.6410541" lon="8.2631664"><ele>415.00000000000006</ele><time>2026-04-19T08:51:08.613Z</time></trkpt><trkpt lat="45.6409857" lon="8.2631354"><ele>415.0</ele><time>2026-04-19T08:51:09.613Z</time></trkpt><trkpt lat="45.6409271" lon="8.2630927"><ele>415.0</ele><time>2026-04-19T08:51:10.614Z</time></trkpt><trkpt lat="45.6408588" lon="8.2630198"><ele>415.0</ele><time>2026-04-19T08:51:11.614Z</time></trkpt><trkpt lat="45.640796" lon="8.2629525"><ele>415.00000000000006</ele><time>2026-04-19T08:51:12.614Z</time></trkpt><trkpt lat="45.6407274" lon="8.262899"><ele>415.0</ele><time>2026-04-19T08:51:13.614Z</time></trkpt><trkpt lat="45.6406562" lon="8.2628459"><ele>414.00000000000006</ele><time>2026-04-19T08:51:14.615Z</time></trkpt><trkpt lat="45.6405791" lon="8.2627888"><ele>413.0</ele><time>2026-04-19T08:51:15.613Z</time></trkpt><trkpt lat="45.6405047" lon="8.262737"><ele>412.0</ele><time>2026-04-19T08:51:16.613Z</time></trkpt><trkpt lat="45.6404321" lon="8.2626879"><ele>411.0</ele><time>2026-04-19T08:51:17.613Z</time></trkpt><trkpt lat="45.6403614" lon="8.262658"><ele>410.00000000000006</ele><time>2026-04-19T08:51:18.613Z</time></trkpt><trkpt lat="45.6402979" lon="8.2626331"><ele>409.0</ele><time>2026-04-19T08:51:19.614Z</time></trkpt><trkpt lat="45.6402328" lon="8.2626041"><ele>413.0</ele><time>2026-04-19T08:51:20.614Z</time></trkpt><trkpt lat="45.64013" lon="8.2625279"><ele>417.0</ele><time>2026-04-19T08:51:22.613Z</time></trkpt><trkpt lat="45.6400079" lon="8.2624875"><ele>421.0</ele><time>2026-04-19T08:51:24.614Z</time></trkpt><trkpt lat="45.6398917" lon="8.2625485"><ele>425.0</ele><time>2026-04-19T08:51:26.614Z</time></trkpt><trkpt lat="45.6398312" lon="8.2626441"><ele>424.99999999999994</ele><time>2026-04-19T08:51:28.613Z</time></trkpt><trkpt lat="45.6397855" lon="8.2627551"><ele>425.0</ele><time>2026-04-19T08:51:30.614Z</time></trkpt><trkpt lat="45.6397377" lon="8.2628864"><ele>425.0</ele><time>2026-04-19T08:51:32.614Z</time></trkpt><trkpt lat="45.6396588" lon="8.2629602"><ele>425.0</ele><time>2026-04-19T08:51:34.614Z</time></trkpt><trkpt lat="45.6395929" lon="8.2629734"><ele>424.99999999999994</ele><time>2026-04-19T08:51:36.614Z</time></trkpt><trkpt lat="45.6395131" lon="8.262925"><ele>425.0</ele><time>2026-04-19T08:51:39.613Z</time></trkpt><trkpt lat="45.6394178" lon="8.2628698"><ele>426.8</ele><time>2026-04-19T08:51:42.614Z</time></trkpt><trkpt lat="45.6393394" lon="8.2628564"><ele>428.6</ele><time>2026-04-19T08:51:44.614Z</time></trkpt><trkpt lat="45.639266" lon="8.2628396"><ele>430.4</ele><time>2026-04-19T08:51:46.614Z</time></trkpt><trkpt lat="45.6391715" lon="8.2628597"><ele>432.2</ele><time>2026-04-19T08:51:48.612Z</time></trkpt><trkpt lat="45.6390496" lon="8.2629317"><ele>434.0</ele><time>2026-04-19T08:51:50.614Z</time></trkpt><trkpt lat="45.6389851" lon="8.2629698"><ele>434.0</ele><time>2026-04-19T08:51:51.614Z</time></trkpt><trkpt lat="45.6388713" lon="8.2629851"><ele>434.0</ele><time>2026-04-19T08:51:53.614Z</time></trkpt><trkpt lat="45.6388084" lon="8.2629722"><ele>434.0</ele><time>2026-04-19T08:51:54.614Z</time></trkpt><trkpt lat="45.638708" lon="8.26296"><ele>434.0</ele><time>2026-04-19T08:51:56.613Z</time></trkpt><trkpt lat="45.6386268" lon="8.2629639"><ele>434.0</ele><time>2026-04-19T08:51:58.614Z</time></trkpt><trkpt lat="45.6385234" lon="8.2630235"><ele>433.99999999999994</ele><time>2026-04-19T08:52:00.614Z</time></trkpt><trkpt lat="45.6384663" lon="8.2630807"><ele>434.0</ele><time>2026-04-19T08:52:01.613Z</time></trkpt><trkpt lat="45.6384135" lon="8.2631372"><ele>434.0</ele><time>2026-04-19T08:52:02.613Z</time></trkpt><trkpt lat="45.6383182" lon="8.2632382"><ele>434.0</ele><time>2026-04-19T08:52:04.612Z</time></trkpt><trkpt lat="45.6382526" lon="8.2633046"><ele>433.99999999999994</ele><time>2026-04-19T08:52:06.614Z</time></trkpt><trkpt lat="45.6382042" lon="8.2633727"><ele>434.0</ele><time>2026-04-19T08:52:08.614Z</time></trkpt><trkpt lat="45.6381385" lon="8.2634141"><ele>437.49999999999994</ele><time>2026-04-19T08:52:10.614Z</time></trkpt><trkpt lat="45.6380762" lon="8.2634667"><ele>441.0</ele><time>2026-04-19T08:52:12.613Z</time></trkpt><trkpt lat="45.6380266" lon="8.2635347"><ele>444.5</ele><time>2026-04-19T08:52:14.613Z</time></trkpt><trkpt lat="45.6379666" lon="8.2636075"><ele>448.0</ele><time>2026-04-19T08:52:17.614Z</time></trkpt><trkpt lat="45.6379218" lon="8.2637131"><ele>451.49999999999994</ele><time>2026-04-19T08:52:20.614Z</time></trkpt><trkpt lat="45.6379662" lon="8.2636015"><ele>455.0</ele><time>2026-04-19T08:53:21.613Z</time></trkpt><trkpt lat="45.6380388" lon="8.2635327"><ele>454.99999999999994</ele><time>2026-04-19T08:53:24.613Z</time></trkpt><trkpt lat="45.6380858" lon="8.2634642"><ele>455.0</ele><time>2026-04-19T08:53:26.613Z</time></trkpt><trkpt lat="45.6381602" lon="8.2633942"><ele>455.0</ele><time>2026-04-19T08:53:29.613Z</time></trkpt><trkpt lat="45.6381533" lon="8.263552"><ele>455.0</ele><time>2026-04-19T08:58:44.612Z</time></trkpt><trkpt lat="45.6380836" lon="8.263516"><ele>454.99999999999994</ele><time>2026-04-19T08:58:48.613Z</time></trkpt><trkpt lat="45.638002" lon="8.2635197"><ele>455.0</ele><time>2026-04-19T08:58:52.613Z</time></trkpt><trkpt lat="45.6379597" lon="8.2636011"><ele>454.99999999999994</ele><time>2026-04-19T08:58:55.613Z</time></trkpt><trkpt lat="45.6379277" lon="8.2637131"><ele>455.0</ele><time>2026-04-19T08:58:58.613Z</time></trkpt><trkpt lat="45.6379217" lon="8.2638381"><ele>455.0</ele><time>2026-04-19T08:59:01.612Z</time></trkpt><trkpt lat="45.6379086" lon="8.2639545"><ele>455.0</ele><time>2026-04-19T08:59:04.613Z</time></trkpt><trkpt lat="45.6378465" lon="8.2640379"><ele>454.99999999999994</ele><time>2026-04-19T08:59:07.613Z</time></trkpt><trkpt lat="45.6378185" lon="8.2641197"><ele>455.0</ele><time>2026-04-19T08:59:09.613Z</time></trkpt><trkpt lat="45.6378031" lon="8.2642232"><ele>452.66666666666663</ele><time>2026-04-19T08:59:13.614Z</time></trkpt><trkpt lat="45.6378567" lon="8.2643063"><ele>450.3333333333333</ele><time>2026-04-19T08:59:37.613Z</time></trkpt><trkpt lat="45.6379169" lon="8.2643633"><ele>448.0</ele><time>2026-04-19T08:59:56.614Z</time></trkpt><trkpt lat="45.6379351" lon="8.2644531"><ele>445.66666666666663</ele><time>2026-04-19T08:59:59.612Z</time></trkpt><trkpt lat="45.6379997" lon="8.2645557"><ele>443.3333333333333</ele><time>2026-04-19T09:00:02.613Z</time></trkpt><trkpt lat="45.6380633" lon="8.2646026"><ele>441.0</ele><time>2026-04-19T09:00:05.612Z</time></trkpt><trkpt lat="45.6380979" lon="8.2647031"><ele>437.7142857142857</ele><time>2026-04-19T09:00:10.614Z</time></trkpt><trkpt lat="45.6380721" lon="8.2647883"><ele>434.42857142857144</ele><time>2026-04-19T09:00:13.613Z</time></trkpt><trkpt lat="45.638037" lon="8.2648662"><ele>431.1428571428571</ele><time>2026-04-19T09:00:17.613Z</time></trkpt><trkpt lat="45.6380129" lon="8.2649687"><ele>427.8571428571429</ele><time>2026-04-19T09:00:20.613Z</time></trkpt><trkpt lat="45.6379909" lon="8.2650618"><ele>424.57142857142856</ele><time>2026-04-19T09:00:24.612Z</time></trkpt><trkpt lat="45.6379433" lon="8.2651323"><ele>421.2857142857143</ele><time>2026-04-19T09:00:27.614Z</time></trkpt><trkpt lat="45.6378633" lon="8.2651674"><ele>418.0</ele><time>2026-04-19T09:00:31.613Z</time></trkpt><trkpt lat="45.6377768" lon="8.2651933"><ele>418.00000000000006</ele><time>2026-04-19T09:00:34.613Z</time></trkpt><trkpt lat="45.6377083" lon="8.2652734"><ele>418.0</ele><time>2026-04-19T09:00:36.613Z</time></trkpt><trkpt lat="45.6376485" lon="8.2653529"><ele>418.0</ele><time>2026-04-19T09:00:38.613Z</time></trkpt><trkpt lat="45.6375958" lon="8.2654103"><ele>418.0</ele><time>2026-04-19T09:00:46.613Z</time></trkpt><trkpt lat="45.6375687" lon="8.2654989"><ele>418.00000000000006</ele><time>2026-04-19T09:00:57.613Z</time></trkpt><trkpt lat="45.637544" lon="8.2656056"><ele>418.0</ele><time>2026-04-19T09:01:00.613Z</time></trkpt><trkpt lat="45.6375034" lon="8.2657234"><ele>415.2857142857143</ele><time>2026-04-19T09:01:03.613Z</time></trkpt><trkpt lat="45.6375319" lon="8.2658182"><ele>412.57142857142856</ele><time>2026-04-19T09:01:07.612Z</time></trkpt><trkpt lat="45.6375902" lon="8.2658524"><ele>409.8571428571429</ele><time>2026-04-19T09:01:18.613Z</time></trkpt><trkpt lat="45.6376037" lon="8.2659445"><ele>407.1428571428571</ele><time>2026-04-19T09:01:25.612Z</time></trkpt><trkpt lat="45.6375422" lon="8.2659771"><ele>404.42857142857144</ele><time>2026-04-19T09:01:36.613Z</time></trkpt><trkpt lat="45.6374791" lon="8.2660829"><ele>401.7142857142857</ele><time>2026-04-19T09:01:39.613Z</time></trkpt><trkpt lat="45.6374278" lon="8.266152"><ele>399.0</ele><time>2026-04-19T09:01:41.613Z</time></trkpt><trkpt lat="45.6373358" lon="8.2661415"><ele>399.0</ele><time>2026-04-19T09:01:44.613Z</time></trkpt><trkpt lat="45.6372429" lon="8.2661409"><ele>399.0</ele><time>2026-04-19T09:01:47.613Z</time></trkpt><trkpt lat="45.63717" lon="8.2660873"><ele>399.0</ele><time>2026-04-19T09:01:50.612Z</time></trkpt><trkpt lat="45.6371019" lon="8.2660068"><ele>399.0</ele><time>2026-04-19T09:01:53.613Z</time></trkpt><trkpt lat="45.6370531" lon="8.2659253"><ele>399.0</ele><time>2026-04-19T09:01:55.613Z</time></trkpt><trkpt lat="45.6370069" lon="8.2658583"><ele>399.0</ele><time>2026-04-19T09:01:57.612Z</time></trkpt><trkpt lat="45.6369436" lon="8.2657916"><ele>395.6666666666667</ele><time>2026-04-19T09:02:00.613Z</time></trkpt><trkpt lat="45.6368806" lon="8.2658069"><ele>392.3333333333333</ele><time>2026-04-19T09:02:03.613Z</time></trkpt><trkpt lat="45.6368649" lon="8.2659156"><ele>389.0</ele><time>2026-04-19T09:02:05.613Z</time></trkpt><trkpt lat="45.6368635" lon="8.2660399"><ele>385.66666666666663</ele><time>2026-04-19T09:02:07.612Z</time></trkpt><trkpt lat="45.6368341" lon="8.2661927"><ele>382.3333333333333</ele><time>2026-04-19T09:02:09.612Z</time></trkpt><trkpt lat="45.6367871" lon="8.2663277"><ele>379.0</ele><time>2026-04-19T09:02:11.612Z</time></trkpt><trkpt lat="45.6367562" lon="8.2664173"><ele>378.66666666666663</ele><time>2026-04-19T09:02:12.613Z</time></trkpt><trkpt lat="45.6367434" lon="8.2665085"><ele>378.3333333333333</ele><time>2026-04-19T09:02:13.612Z</time></trkpt><trkpt lat="45.636723" lon="8.2666024"><ele>378.0</ele><time>2026-04-19T09:02:14.613Z</time></trkpt><trkpt lat="45.6367006" lon="8.2666971"><ele>377.6666666666667</ele><time>2026-04-19T09:02:15.611Z</time></trkpt><trkpt lat="45.6366703" lon="8.2667864"><ele>377.33333333333337</ele><time>2026-04-19T09:02:16.612Z</time></trkpt><trkpt lat="45.6365808" lon="8.2669051"><ele>377.0</ele><time>2026-04-19T09:02:18.612Z</time></trkpt><trkpt lat="45.6365152" lon="8.2669596"><ele>377.0</ele><time>2026-04-19T09:02:19.613Z</time></trkpt><trkpt lat="45.6364457" lon="8.2670208"><ele>377.0</ele><time>2026-04-19T09:02:20.613Z</time></trkpt><trkpt lat="45.6363845" lon="8.2670837"><ele>377.0</ele><time>2026-04-19T09:02:21.613Z</time></trkpt><trkpt lat="45.6363265" lon="8.2671519"><ele>377.0</ele><time>2026-04-19T09:02:22.613Z</time></trkpt><trkpt lat="45.6362715" lon="8.2672338"><ele>377.0</ele><time>2026-04-19T09:02:23.612Z</time></trkpt><trkpt lat="45.6362143" lon="8.2673241"><ele>377.0</ele><time>2026-04-19T09:02:24.611Z</time></trkpt><trkpt lat="45.6361618" lon="8.2674211"><ele>376.6666666666667</ele><time>2026-04-19T09:02:25.612Z</time></trkpt><trkpt lat="45.6360942" lon="8.2675277"><ele>376.33333333333337</ele><time>2026-04-19T09:02:26.612Z</time></trkpt><trkpt lat="45.636034" lon="8.2676277"><ele>376.0</ele><time>2026-04-19T09:02:27.612Z</time></trkpt><trkpt lat="45.6359762" lon="8.2677277"><ele>375.6666666666667</ele><time>2026-04-19T09:02:28.612Z</time></trkpt><trkpt lat="45.6359231" lon="8.2678203"><ele>375.3333333333333</ele><time>2026-04-19T09:02:29.612Z</time></trkpt><trkpt lat="45.6358775" lon="8.2679032"><ele>375.0</ele><time>2026-04-19T09:02:30.613Z</time></trkpt><trkpt lat="45.6358316" lon="8.2679728"><ele>375.0</ele><time>2026-04-19T09:02:31.613Z</time></trkpt><trkpt lat="45.6357864" lon="8.2680457"><ele>375.0</ele><time>2026-04-19T09:02:32.612Z</time></trkpt><trkpt lat="45.635744" lon="8.2681132"><ele>375.0</ele><time>2026-04-19T09:02:33.611Z</time></trkpt><trkpt lat="45.6356748" lon="8.2682655"><ele>375.0</ele><time>2026-04-19T09:02:35.613Z</time></trkpt><trkpt lat="45.6356319" lon="8.2684241"><ele>375.0</ele><time>2026-04-19T09:02:37.613Z</time></trkpt><trkpt lat="45.6355873" lon="8.2685819"><ele>375.1666666666667</ele><time>2026-04-19T09:02:39.611Z</time></trkpt><trkpt lat="45.6355354" lon="8.26874"><ele>375.3333333333333</ele><time>2026-04-19T09:02:41.613Z</time></trkpt><trkpt lat="45.6355094" lon="8.2688238"><ele>375.5</ele><time>2026-04-19T09:02:42.612Z</time></trkpt><trkpt lat="45.6354894" lon="8.2689126"><ele>375.66666666666663</ele><time>2026-04-19T09:02:43.612Z</time></trkpt><trkpt lat="45.6354743" lon="8.2690083"><ele>375.8333333333333</ele><time>2026-04-19T09:02:44.612Z</time></trkpt><trkpt lat="45.6354515" lon="8.2691833"><ele>376.0</ele><time>2026-04-19T09:02:46.612Z</time></trkpt><trkpt lat="45.6354458" lon="8.2692744"><ele>374.75</ele><time>2026-04-19T09:02:47.613Z</time></trkpt><trkpt lat="45.6354293" lon="8.2694435"><ele>373.5</ele><time>2026-04-19T09:02:49.613Z</time></trkpt><trkpt lat="45.6354117" lon="8.2696047"><ele>372.25</ele><time>2026-04-19T09:02:51.612Z</time></trkpt><trkpt lat="45.6354028" lon="8.2697645"><ele>371.0</ele><time>2026-04-19T09:02:53.613Z</time></trkpt><trkpt lat="45.635403" lon="8.2699246"><ele>370.1666666666667</ele><time>2026-04-19T09:02:55.611Z</time></trkpt><trkpt lat="45.635386" lon="8.2700913"><ele>369.33333333333337</ele><time>2026-04-19T09:02:57.611Z</time></trkpt><trkpt lat="45.6353521" lon="8.2702515"><ele>368.5</ele><time>2026-04-19T09:02:59.613Z</time></trkpt><trkpt lat="45.6353228" lon="8.270337"><ele>367.6666666666667</ele><time>2026-04-19T09:03:00.614Z</time></trkpt><trkpt lat="45.6352909" lon="8.2704206"><ele>366.8333333333333</ele><time>2026-04-19T09:03:01.612Z</time></trkpt><trkpt lat="45.6352525" lon="8.2704929"><ele>366.0</ele><time>2026-04-19T09:03:02.612Z</time></trkpt><trkpt lat="45.635212" lon="8.2705629"><ele>365.0</ele><time>2026-04-19T09:03:03.612Z</time></trkpt><trkpt lat="45.6351636" lon="8.2706211"><ele>364.0</ele><time>2026-04-19T09:03:04.612Z</time></trkpt><trkpt lat="45.6351069" lon="8.2706701"><ele>363.0</ele><time>2026-04-19T09:03:05.611Z</time></trkpt><trkpt lat="45.6350503" lon="8.2707099"><ele>362.0</ele><time>2026-04-19T09:03:06.613Z</time></trkpt><trkpt lat="45.6349912" lon="8.2707519"><ele>361.0</ele><time>2026-04-19T09:03:07.613Z</time></trkpt><trkpt lat="45.6349345" lon="8.2707968"><ele>360.0</ele><time>2026-04-19T09:03:08.612Z</time></trkpt><trkpt lat="45.6348649" lon="8.2709083"><ele>359.0</ele><time>2026-04-19T09:03:10.613Z</time></trkpt><trkpt lat="45.6348641" lon="8.2710638"><ele>359.0</ele><time>2026-04-19T09:03:12.612Z</time></trkpt><trkpt lat="45.6348567" lon="8.2712065"><ele>359.0</ele><time>2026-04-19T09:03:14.613Z</time></trkpt><trkpt lat="45.6348269" lon="8.2713206"><ele>359.0</ele><time>2026-04-19T09:03:16.611Z</time></trkpt><trkpt lat="45.6348001" lon="8.2714486"><ele>359.0</ele><time>2026-04-19T09:03:18.611Z</time></trkpt><trkpt lat="45.6347836" lon="8.2715465"><ele>359.0</ele><time>2026-04-19T09:03:20.613Z</time></trkpt><trkpt lat="45.6347337" lon="8.2716164"><ele>359.0</ele><time>2026-04-19T09:03:23.612Z</time></trkpt><trkpt lat="45.6346748" lon="8.2715653"><ele>359.0</ele><time>2026-04-19T09:03:25.612Z</time></trkpt><trkpt lat="45.6346591" lon="8.2714412"><ele>359.0</ele><time>2026-04-19T09:03:27.612Z</time></trkpt><trkpt lat="45.6346098" lon="8.2713331"><ele>359.0</ele><time>2026-04-19T09:03:29.613Z</time></trkpt><trkpt lat="45.634508" lon="8.2712393"><ele>359.0</ele><time>2026-04-19T09:03:31.613Z</time></trkpt><trkpt lat="45.6344075" lon="8.2711431"><ele>359.0</ele><time>2026-04-19T09:03:33.612Z</time></trkpt><trkpt lat="45.6343559" lon="8.2710346"><ele>359.0</ele><time>2026-04-19T09:03:35.613Z</time></trkpt><trkpt lat="45.6343687" lon="8.2709352"><ele>359.0</ele><time>2026-04-19T09:03:37.613Z</time></trkpt><trkpt lat="45.6344485" lon="8.2708328"><ele>359.0</ele><time>2026-04-19T09:03:39.613Z</time></trkpt><trkpt lat="45.6345371" lon="8.2706962"><ele>359.0</ele><time>2026-04-19T09:03:41.613Z</time></trkpt><trkpt lat="45.6345885" lon="8.2706262"><ele>359.0</ele><time>2026-04-19T09:03:42.613Z</time></trkpt><trkpt lat="45.634631" lon="8.2705493"><ele>359.0</ele><time>2026-04-19T09:03:43.613Z</time></trkpt><trkpt lat="45.6346732" lon="8.2704741"><ele>358.83333333333337</ele><time>2026-04-19T09:03:44.613Z</time></trkpt><trkpt lat="45.6347191" lon="8.2704"><ele>358.6666666666667</ele><time>2026-04-19T09:03:45.612Z</time></trkpt><trkpt lat="45.6347639" lon="8.2703271"><ele>358.5</ele><time>2026-04-19T09:03:46.613Z</time></trkpt><trkpt lat="45.6348129" lon="8.2702516"><ele>358.3333333333333</ele><time>2026-04-19T09:03:47.613Z</time></trkpt><trkpt lat="45.6348605" lon="8.2701814"><ele>358.16666666666663</ele><time>2026-04-19T09:03:48.612Z</time></trkpt><trkpt lat="45.6349312" lon="8.2700493"><ele>358.0</ele><time>2026-04-19T09:03:50.612Z</time></trkpt><trkpt lat="45.6349733" lon="8.2698976"><ele>358.00000000000006</ele><time>2026-04-19T09:03:52.611Z</time></trkpt><trkpt lat="45.6349839" lon="8.2698073"><ele>358.0</ele><time>2026-04-19T09:03:53.613Z</time></trkpt><trkpt lat="45.6349835" lon="8.2697139"><ele>358.0</ele><time>2026-04-19T09:03:54.613Z</time></trkpt><trkpt lat="45.6349813" lon="8.2696224"><ele>358.0</ele><time>2026-04-19T09:03:55.613Z</time></trkpt><trkpt lat="45.6349767" lon="8.2695301"><ele>358.0</ele><time>2026-04-19T09:03:56.613Z</time></trkpt><trkpt lat="45.6349712" lon="8.2694303"><ele>358.00000000000006</ele><time>2026-04-19T09:03:57.612Z</time></trkpt><trkpt lat="45.6349704" lon="8.2693264"><ele>358.0</ele><time>2026-04-19T09:03:58.611Z</time></trkpt><trkpt lat="45.6349564" lon="8.2692257"><ele>358.3333333333333</ele><time>2026-04-19T09:03:59.613Z</time></trkpt><trkpt lat="45.6349433" lon="8.2691266"><ele>358.66666666666663</ele><time>2026-04-19T09:04:00.613Z</time></trkpt><trkpt lat="45.6349148" lon="8.2690411"><ele>359.0</ele><time>2026-04-19T09:04:01.612Z</time></trkpt><trkpt lat="45.6348383" lon="8.2688997"><ele>359.3333333333333</ele><time>2026-04-19T09:04:03.612Z</time></trkpt><trkpt lat="45.6347928" lon="8.2688314"><ele>359.6666666666667</ele><time>2026-04-19T09:04:04.612Z</time></trkpt><trkpt lat="45.6347127" lon="8.2687008"><ele>360.0</ele><time>2026-04-19T09:04:06.611Z</time></trkpt><trkpt lat="45.6346292" lon="8.2685749"><ele>359.3333333333333</ele><time>2026-04-19T09:04:08.612Z</time></trkpt><trkpt lat="45.6345609" lon="8.2684559"><ele>358.6666666666667</ele><time>2026-04-19T09:04:10.613Z</time></trkpt><trkpt lat="45.6345027" lon="8.2683705"><ele>358.0</ele><time>2026-04-19T09:04:12.613Z</time></trkpt><trkpt lat="45.6344528" lon="8.2683023"><ele>357.33333333333337</ele><time>2026-04-19T09:04:14.613Z</time></trkpt><trkpt lat="45.6343937" lon="8.2682179"><ele>356.6666666666667</ele><time>2026-04-19T09:04:16.613Z</time></trkpt><trkpt lat="45.6343244" lon="8.2681249"><ele>356.0</ele><time>2026-04-19T09:04:18.613Z</time></trkpt><trkpt lat="45.6342425" lon="8.2680155"><ele>355.8</ele><time>2026-04-19T09:04:20.612Z</time></trkpt><trkpt lat="45.6341572" lon="8.2679019"><ele>355.6</ele><time>2026-04-19T09:04:22.613Z</time></trkpt><trkpt lat="45.6340919" lon="8.2677719"><ele>355.4</ele><time>2026-04-19T09:04:24.613Z</time></trkpt><trkpt lat="45.6340783" lon="8.2676319"><ele>355.2</ele><time>2026-04-19T09:04:26.612Z</time></trkpt><trkpt lat="45.6340699" lon="8.267483"><ele>355.0</ele><time>2026-04-19T09:04:28.612Z</time></trkpt><trkpt lat="45.634088" lon="8.2673334"><ele>355.0</ele><time>2026-04-19T09:04:30.613Z</time></trkpt><trkpt lat="45.6341207" lon="8.2671776"><ele>355.0</ele><time>2026-04-19T09:04:32.612Z</time></trkpt><trkpt lat="45.6341413" lon="8.2670924"><ele>355.0</ele><time>2026-04-19T09:04:33.613Z</time></trkpt><trkpt lat="45.6341545" lon="8.2669168"><ele>355.0</ele><time>2026-04-19T09:04:35.613Z</time></trkpt><trkpt lat="45.634169" lon="8.266782"><ele>355.0</ele><time>2026-04-19T09:04:37.612Z</time></trkpt><trkpt lat="45.6341787" lon="8.2666799"><ele>355.0</ele><time>2026-04-19T09:04:39.613Z</time></trkpt><trkpt lat="45.6341673" lon="8.2665684"><ele>355.0</ele><time>2026-04-19T09:04:50.612Z</time></trkpt><trkpt lat="45.6340578" lon="8.2666118"><ele>355.0</ele><time>2026-04-19T09:04:53.612Z</time></trkpt><trkpt lat="45.6339619" lon="8.2666353"><ele>355.0</ele><time>2026-04-19T09:04:55.612Z</time></trkpt><trkpt lat="45.633855" lon="8.2666698"><ele>355.0</ele><time>2026-04-19T09:04:57.612Z</time></trkpt><trkpt lat="45.6337247" lon="8.2667116"><ele>355.8</ele><time>2026-04-19T09:04:59.613Z</time></trkpt><trkpt lat="45.6336072" lon="8.2667245"><ele>356.6</ele><time>2026-04-19T09:05:01.613Z</time></trkpt><trkpt lat="45.633498" lon="8.2667267"><ele>357.4</ele><time>2026-04-19T09:05:03.612Z</time></trkpt><trkpt lat="45.6333989" lon="8.2666825"><ele>358.2</ele><time>2026-04-19T09:05:05.611Z</time></trkpt><trkpt lat="45.6333071" lon="8.2666042"><ele>359.0</ele><time>2026-04-19T09:05:07.612Z</time></trkpt><trkpt lat="45.6332185" lon="8.266547"><ele>359.0</ele><time>2026-04-19T09:05:09.613Z</time></trkpt><trkpt lat="45.6331354" lon="8.2665061"><ele>359.0</ele><time>2026-04-19T09:05:11.611Z</time></trkpt><trkpt lat="45.6330511" lon="8.2664865"><ele>359.0</ele><time>2026-04-19T09:05:13.613Z</time></trkpt><trkpt lat="45.6329651" lon="8.2664716"><ele>359.0</ele><time>2026-04-19T09:05:16.612Z</time></trkpt><trkpt lat="45.6329119" lon="8.2664225"><ele>359.0</ele><time>2026-04-19T09:05:18.612Z</time></trkpt><trkpt lat="45.6328744" lon="8.2663281"><ele>359.0</ele><time>2026-04-19T09:05:20.612Z</time></trkpt><trkpt lat="45.632807" lon="8.2662495"><ele>359.83333333333337</ele><time>2026-04-19T09:05:23.612Z</time></trkpt><trkpt lat="45.6327349" lon="8.2662509"><ele>360.6666666666667</ele><time>2026-04-19T09:05:25.612Z</time></trkpt><trkpt lat="45.6326676" lon="8.2663265"><ele>361.5</ele><time>2026-04-19T09:05:27.612Z</time></trkpt><trkpt lat="45.6325949" lon="8.2663893"><ele>362.3333333333333</ele><time>2026-04-19T09:05:29.612Z</time></trkpt><trkpt lat="45.632559" lon="8.266516"><ele>363.16666666666663</ele><time>2026-04-19T09:05:31.612Z</time></trkpt><trkpt lat="45.6325074" lon="8.2665884"><ele>364.0</ele><time>2026-04-19T09:05:33.613Z</time></trkpt><trkpt lat="45.6324445" lon="8.2666539"><ele>364.0</ele><time>2026-04-19T09:05:35.611Z</time></trkpt><trkpt lat="45.6323991" lon="8.2667353"><ele>364.0</ele><time>2026-04-19T09:05:37.612Z</time></trkpt><trkpt lat="45.6323623" lon="8.2668376"><ele>364.0</ele><time>2026-04-19T09:05:39.613Z</time></trkpt><trkpt lat="45.6323522" lon="8.2669753"><ele>364.0</ele><time>2026-04-19T09:05:41.613Z</time></trkpt><trkpt lat="45.6323293" lon="8.2670852"><ele>364.0</ele><time>2026-04-19T09:05:43.613Z</time></trkpt><trkpt lat="45.6322422" lon="8.2670878"><ele>364.0</ele><time>2026-04-19T09:05:46.612Z</time></trkpt><trkpt lat="45.6321684" lon="8.2670871"><ele>364.0</ele><time>2026-04-19T09:05:51.611Z</time></trkpt><trkpt lat="45.6321637" lon="8.2671973"><ele>364.0</ele><time>2026-04-19T09:06:11.611Z</time></trkpt><trkpt lat="45.632173" lon="8.2673079"><ele>364.0</ele><time>2026-04-19T09:06:16.612Z</time></trkpt><trkpt lat="45.6322355" lon="8.2672895"><ele>364.0</ele><time>2026-04-19T09:06:49.612Z</time></trkpt><trkpt lat="45.6322356" lon="8.2671968"><ele>364.0</ele><time>2026-04-19T09:06:52.61Z</time></trkpt><trkpt lat="45.6321779" lon="8.2671187"><ele>364.0</ele><time>2026-04-19T09:06:56.611Z</time></trkpt><trkpt lat="45.6321018" lon="8.2671197"><ele>364.0</ele><time>2026-04-19T09:07:00.611Z</time></trkpt><trkpt lat="45.6320553" lon="8.2670369"><ele>364.0</ele><time>2026-04-19T09:07:20.612Z</time></trkpt><trkpt lat="45.6319894" lon="8.2670189"><ele>364.0</ele><time>2026-04-19T09:07:24.611Z</time></trkpt><trkpt lat="45.6319425" lon="8.2670844"><ele>364.0</ele><time>2026-04-19T09:07:30.612Z</time></trkpt><trkpt lat="45.6318809" lon="8.2671183"><ele>364.0</ele><time>2026-04-19T09:07:36.612Z</time></trkpt><trkpt lat="45.6318011" lon="8.2671185"><ele>364.0</ele><time>2026-04-19T09:07:51.612Z</time></trkpt><trkpt lat="45.6317328" lon="8.2671173"><ele>364.0</ele><time>2026-04-19T09:08:13.612Z</time></trkpt><trkpt lat="45.6316498" lon="8.2670995"><ele>364.0</ele><time>2026-04-19T09:08:22.612Z</time></trkpt><trkpt lat="45.6315899" lon="8.2670267"><ele>361.16666666666663</ele><time>2026-04-19T09:08:25.612Z</time></trkpt><trkpt lat="45.6315256" lon="8.2670179"><ele>358.3333333333333</ele><time>2026-04-19T09:08:27.611Z</time></trkpt><trkpt lat="45.6314659" lon="8.2670608"><ele>355.5</ele><time>2026-04-19T09:08:29.612Z</time></trkpt><trkpt lat="45.631382" lon="8.2671187"><ele>352.6666666666667</ele><time>2026-04-19T09:08:31.611Z</time></trkpt><trkpt lat="45.6313076" lon="8.2671316"><ele>349.83333333333337</ele><time>2026-04-19T09:08:33.612Z</time></trkpt><trkpt lat="45.6312422" lon="8.267043"><ele>347.0</ele><time>2026-04-19T09:08:36.612Z</time></trkpt><trkpt lat="45.6312158" lon="8.2669475"><ele>347.0</ele><time>2026-04-19T09:08:38.612Z</time></trkpt><trkpt lat="45.6311624" lon="8.266857"><ele>347.0</ele><time>2026-04-19T09:08:41.612Z</time></trkpt><trkpt lat="45.6310899" lon="8.2668174"><ele>347.0</ele><time>2026-04-19T09:08:44.612Z</time></trkpt><trkpt lat="45.6310232" lon="8.2668427"><ele>347.0</ele><time>2026-04-19T09:08:48.612Z</time></trkpt><trkpt lat="45.6309617" lon="8.2669115"><ele>347.0</ele><time>2026-04-19T09:08:51.612Z</time></trkpt><trkpt lat="45.6308929" lon="8.2669251"><ele>347.0</ele><time>2026-04-19T09:08:53.61Z</time></trkpt><trkpt lat="45.6308152" lon="8.266924"><ele>343.83333333333337</ele><time>2026-04-19T09:09:15.611Z</time></trkpt><trkpt lat="45.6307517" lon="8.2669747"><ele>340.6666666666667</ele><time>2026-04-19T09:09:18.612Z</time></trkpt><trkpt lat="45.6306609" lon="8.2670048"><ele>337.5</ele><time>2026-04-19T09:09:21.612Z</time></trkpt><trkpt lat="45.6305943" lon="8.267024"><ele>334.3333333333333</ele><time>2026-04-19T09:09:24.61Z</time></trkpt><trkpt lat="45.6305581" lon="8.2671187"><ele>331.16666666666663</ele><time>2026-04-19T09:09:28.611Z</time></trkpt><trkpt lat="45.6305376" lon="8.2672196"><ele>328.0</ele><time>2026-04-19T09:09:31.612Z</time></trkpt><trkpt lat="45.630547" lon="8.26734"><ele>327.16666666666663</ele><time>2026-04-19T09:09:33.612Z</time></trkpt><trkpt lat="45.6305799" lon="8.2674885"><ele>326.3333333333333</ele><time>2026-04-19T09:09:35.612Z</time></trkpt><trkpt lat="45.6305971" lon="8.2675869"><ele>325.5</ele><time>2026-04-19T09:09:36.611Z</time></trkpt><trkpt lat="45.6306115" lon="8.2676868"><ele>324.6666666666667</ele><time>2026-04-19T09:09:37.612Z</time></trkpt><trkpt lat="45.6306269" lon="8.2678063"><ele>323.83333333333337</ele><time>2026-04-19T09:09:38.612Z</time></trkpt><trkpt lat="45.6306467" lon="8.2679242"><ele>323.0</ele><time>2026-04-19T09:09:39.611Z</time></trkpt><trkpt lat="45.6306714" lon="8.268044"><ele>323.33333333333337</ele><time>2026-04-19T09:09:40.611Z</time></trkpt><trkpt lat="45.630696" lon="8.2681601"><ele>323.6666666666667</ele><time>2026-04-19T09:09:41.61Z</time></trkpt><trkpt lat="45.6307204" lon="8.2682801"><ele>324.0</ele><time>2026-04-19T09:09:42.612Z</time></trkpt><trkpt lat="45.6307425" lon="8.2684042"><ele>324.3333333333333</ele><time>2026-04-19T09:09:43.612Z</time></trkpt><trkpt lat="45.6307635" lon="8.2685328"><ele>324.66666666666663</ele><time>2026-04-19T09:09:44.612Z</time></trkpt><trkpt lat="45.630784" lon="8.2686579"><ele>325.0</ele><time>2026-04-19T09:09:45.611Z</time></trkpt><trkpt lat="45.6308079" lon="8.2687861"><ele>325.0</ele><time>2026-04-19T09:09:46.612Z</time></trkpt><trkpt lat="45.6308287" lon="8.2689176"><ele>325.0</ele><time>2026-04-19T09:09:47.611Z</time></trkpt><trkpt lat="45.6308465" lon="8.2690537"><ele>325.0</ele><time>2026-04-19T09:09:48.612Z</time></trkpt><trkpt lat="45.6308629" lon="8.2691937"><ele>325.0</ele><time>2026-04-19T09:09:49.612Z</time></trkpt><trkpt lat="45.6308739" lon="8.2693305"><ele>325.0</ele><time>2026-04-19T09:09:50.612Z</time></trkpt><trkpt lat="45.6308765" lon="8.2694699"><ele>325.0</ele><time>2026-04-19T09:09:51.611Z</time></trkpt><trkpt lat="45.6308751" lon="8.2696064"><ele>325.0</ele><time>2026-04-19T09:09:52.612Z</time></trkpt><trkpt lat="45.6308707" lon="8.2697404"><ele>325.0</ele><time>2026-04-19T09:09:53.612Z</time></trkpt><trkpt lat="45.6308632" lon="8.2698742"><ele>325.0</ele><time>2026-04-19T09:09:54.611Z</time></trkpt><trkpt lat="45.6308535" lon="8.2700039"><ele>325.0</ele><time>2026-04-19T09:09:55.612Z</time></trkpt><trkpt lat="45.6308526" lon="8.2701331"><ele>325.0</ele><time>2026-04-19T09:09:56.611Z</time></trkpt><trkpt lat="45.6308539" lon="8.2702629"><ele>325.0</ele><time>2026-04-19T09:09:57.612Z</time></trkpt><trkpt lat="45.6308614" lon="8.2703885"><ele>325.0</ele><time>2026-04-19T09:09:58.611Z</time></trkpt><trkpt lat="45.630867" lon="8.270509"><ele>325.0</ele><time>2026-04-19T09:09:59.611Z</time></trkpt><trkpt lat="45.6308751" lon="8.2706285"><ele>325.0</ele><time>2026-04-19T09:10:00.611Z</time></trkpt><trkpt lat="45.6308851" lon="8.270748"><ele>325.0</ele><time>2026-04-19T09:10:01.611Z</time></trkpt><trkpt lat="45.630896" lon="8.270868"><ele>324.5</ele><time>2026-04-19T09:10:02.612Z</time></trkpt><trkpt lat="45.6309084" lon="8.2709889"><ele>324.0</ele><time>2026-04-19T09:10:03.612Z</time></trkpt><trkpt lat="45.6309177" lon="8.271114"><ele>323.5</ele><time>2026-04-19T09:10:04.612Z</time></trkpt><trkpt lat="45.6309305" lon="8.2712343"><ele>323.0</ele><time>2026-04-19T09:10:05.612Z</time></trkpt><trkpt lat="45.630946" lon="8.271354"><ele>322.5</ele><time>2026-04-19T09:10:06.612Z</time></trkpt><trkpt lat="45.630971" lon="8.2714748"><ele>322.0</ele><time>2026-04-19T09:10:07.612Z</time></trkpt><trkpt lat="45.6309995" lon="8.2715931"><ele>321.3333333333333</ele><time>2026-04-19T09:10:08.611Z</time></trkpt><trkpt lat="45.6310273" lon="8.2717081"><ele>320.66666666666663</ele><time>2026-04-19T09:10:09.612Z</time></trkpt><trkpt lat="45.6310595" lon="8.2718201"><ele>320.0</ele><time>2026-04-19T09:10:10.612Z</time></trkpt><trkpt lat="45.6310876" lon="8.2719207"><ele>319.3333333333333</ele><time>2026-04-19T09:10:11.611Z</time></trkpt><trkpt lat="45.6311139" lon="8.272023"><ele>318.6666666666667</ele><time>2026-04-19T09:10:12.612Z</time></trkpt><trkpt lat="45.6311403" lon="8.2721164"><ele>318.0</ele><time>2026-04-19T09:10:13.611Z</time></trkpt><trkpt lat="45.6311666" lon="8.2722008"><ele>319.8</ele><time>2026-04-19T09:10:14.61Z</time></trkpt><trkpt lat="45.6312233" lon="8.272304"><ele>321.6</ele><time>2026-04-19T09:10:16.611Z</time></trkpt><trkpt lat="45.6312871" lon="8.2722925"><ele>323.40000000000003</ele><time>2026-04-19T09:10:18.612Z</time></trkpt><trkpt lat="45.6313648" lon="8.2722429"><ele>325.20000000000005</ele><time>2026-04-19T09:10:20.612Z</time></trkpt><trkpt lat="45.6314653" lon="8.272179"><ele>327.0</ele><time>2026-04-19T09:10:22.61Z</time></trkpt><trkpt lat="45.6315621" lon="8.2721276"><ele>327.3333333333333</ele><time>2026-04-19T09:10:24.611Z</time></trkpt><trkpt lat="45.6316745" lon="8.2720876"><ele>327.6666666666667</ele><time>2026-04-19T09:10:26.611Z</time></trkpt><trkpt lat="45.6317389" lon="8.2720627"><ele>328.0</ele><time>2026-04-19T09:10:27.61Z</time></trkpt><trkpt lat="45.6318458" lon="8.2720294"><ele>328.33333333333337</ele><time>2026-04-19T09:10:29.612Z</time></trkpt><trkpt lat="45.6319314" lon="8.2720193"><ele>328.6666666666667</ele><time>2026-04-19T09:10:45.611Z</time></trkpt><trkpt lat="45.6319882" lon="8.271973"><ele>329.0</ele><time>2026-04-19T09:10:47.611Z</time></trkpt><trkpt lat="45.6320437" lon="8.2719287"><ele>329.0</ele><time>2026-04-19T09:10:49.612Z</time></trkpt><trkpt lat="45.6321023" lon="8.2718888"><ele>329.0</ele><time>2026-04-19T09:10:51.612Z</time></trkpt><trkpt lat="45.6321651" lon="8.2719169"><ele>329.0</ele><time>2026-04-19T09:10:59.611Z</time></trkpt><trkpt lat="45.6320753" lon="8.2718937"><ele>329.0</ele><time>2026-04-19T09:11:21.61Z</time></trkpt><trkpt lat="45.6320157" lon="8.2719275"><ele>329.0</ele><time>2026-04-19T09:11:23.612Z</time></trkpt><trkpt lat="45.6319481" lon="8.271971"><ele>329.0</ele><time>2026-04-19T09:11:25.612Z</time></trkpt><trkpt lat="45.6318754" lon="8.2720202"><ele>329.0</ele><time>2026-04-19T09:11:28.612Z</time></trkpt><trkpt lat="45.631789" lon="8.2720348"><ele>329.0</ele><time>2026-04-19T09:11:31.611Z</time></trkpt><trkpt lat="45.6317067" lon="8.2720735"><ele>329.0</ele><time>2026-04-19T09:11:33.612Z</time></trkpt><trkpt lat="45.6316415" lon="8.2721042"><ele>329.0</ele><time>2026-04-19T09:11:34.611Z</time></trkpt><trkpt lat="45.6315169" lon="8.2721492"><ele>329.0</ele><time>2026-04-19T09:11:36.611Z</time></trkpt><trkpt lat="45.6313962" lon="8.272219"><ele>329.0</ele><time>2026-04-19T09:11:38.611Z</time></trkpt><trkpt lat="45.6313044" lon="8.2722655"><ele>328.6666666666667</ele><time>2026-04-19T09:11:40.612Z</time></trkpt><trkpt lat="45.6312515" lon="8.2723518"><ele>328.33333333333337</ele><time>2026-04-19T09:11:43.612Z</time></trkpt><trkpt lat="45.6312589" lon="8.2724673"><ele>328.0</ele><time>2026-04-19T09:11:45.612Z</time></trkpt><trkpt lat="45.6312717" lon="8.2725582"><ele>327.6666666666667</ele><time>2026-04-19T09:11:46.61Z</time></trkpt><trkpt lat="45.6312807" lon="8.2726529"><ele>327.3333333333333</ele><time>2026-04-19T09:11:47.612Z</time></trkpt><trkpt lat="45.631288" lon="8.2727645"><ele>327.0</ele><time>2026-04-19T09:11:48.611Z</time></trkpt><trkpt lat="45.6312987" lon="8.2728808"><ele>327.0</ele><time>2026-04-19T09:11:49.611Z</time></trkpt><trkpt lat="45.6313046" lon="8.2730141"><ele>327.0</ele><time>2026-04-19T09:11:50.611Z</time></trkpt><trkpt lat="45.6313081" lon="8.27315"><ele>327.0</ele><time>2026-04-19T09:11:51.612Z</time></trkpt><trkpt lat="45.6313086" lon="8.2732935"><ele>327.0</ele><time>2026-04-19T09:11:52.61Z</time></trkpt><trkpt lat="45.6313132" lon="8.2734366"><ele>327.0</ele><time>2026-04-19T09:11:53.61Z</time></trkpt><trkpt lat="45.6313179" lon="8.2735765"><ele>326.3333333333333</ele><time>2026-04-19T09:11:54.612Z</time></trkpt><trkpt lat="45.6313183" lon="8.2737109"><ele>325.6666666666667</ele><time>2026-04-19T09:11:55.611Z</time></trkpt><trkpt lat="45.6313207" lon="8.2738429"><ele>325.0</ele><time>2026-04-19T09:11:56.611Z</time></trkpt><trkpt lat="45.6313257" lon="8.2739638"><ele>324.33333333333337</ele><time>2026-04-19T09:11:57.612Z</time></trkpt><trkpt lat="45.631329" lon="8.2740877"><ele>323.6666666666667</ele><time>2026-04-19T09:11:58.611Z</time></trkpt><trkpt lat="45.6313338" lon="8.2741923"><ele>323.0</ele><time>2026-04-19T09:11:59.612Z</time></trkpt><trkpt lat="45.6313402" lon="8.2743344"><ele>323.0</ele><time>2026-04-19T09:12:01.612Z</time></trkpt><trkpt lat="45.6313735" lon="8.2744345"><ele>323.0</ele><time>2026-04-19T09:12:04.612Z</time></trkpt><trkpt lat="45.6314171" lon="8.274366"><ele>323.0</ele><time>2026-04-19T09:12:08.611Z</time></trkpt><trkpt lat="45.6313754" lon="8.2742718"><ele>323.0</ele><time>2026-04-19T09:12:10.61Z</time></trkpt><trkpt lat="45.6313589" lon="8.274109"><ele>323.0</ele><time>2026-04-19T09:12:12.61Z</time></trkpt><trkpt lat="45.6313557" lon="8.2740045"><ele>323.0</ele><time>2026-04-19T09:12:13.612Z</time></trkpt><trkpt lat="45.6313539" lon="8.2738833"><ele>323.0</ele><time>2026-04-19T09:12:14.61Z</time></trkpt><trkpt lat="45.631347" lon="8.2737478"><ele>323.0</ele><time>2026-04-19T09:12:15.61Z</time></trkpt><trkpt lat="45.6313451" lon="8.2736066"><ele>323.0</ele><time>2026-04-19T09:12:16.611Z</time></trkpt><trkpt lat="45.6313414" lon="8.2734594"><ele>323.0</ele><time>2026-04-19T09:12:17.612Z</time></trkpt><trkpt lat="45.6313347" lon="8.2733052"><ele>323.0</ele><time>2026-04-19T09:12:18.61Z</time></trkpt><trkpt lat="45.6313264" lon="8.273149"><ele>324.0</ele><time>2026-04-19T09:12:19.61Z</time></trkpt><trkpt lat="45.6313182" lon="8.2729878"><ele>325.0</ele><time>2026-04-19T09:12:20.612Z</time></trkpt><trkpt lat="45.631308" lon="8.2728265"><ele>326.0</ele><time>2026-04-19T09:12:21.611Z</time></trkpt><trkpt lat="45.6312953" lon="8.2726558"><ele>327.0</ele><time>2026-04-19T09:12:22.611Z</time></trkpt><trkpt lat="45.6312655" lon="8.2724842"><ele>327.0</ele><time>2026-04-19T09:12:23.612Z</time></trkpt><trkpt lat="45.6312247" lon="8.2723122"><ele>327.0</ele><time>2026-04-19T09:12:24.61Z</time></trkpt><trkpt lat="45.6311767" lon="8.2721377"><ele>327.0</ele><time>2026-04-19T09:12:25.611Z</time></trkpt><trkpt lat="45.6311266" lon="8.2719696"><ele>327.0</ele><time>2026-04-19T09:12:26.611Z</time></trkpt><trkpt lat="45.6310786" lon="8.2718117"><ele>325.75</ele><time>2026-04-19T09:12:27.611Z</time></trkpt><trkpt lat="45.6310362" lon="8.2716557"><ele>324.5</ele><time>2026-04-19T09:12:28.612Z</time></trkpt><trkpt lat="45.6309993" lon="8.2714947"><ele>323.25</ele><time>2026-04-19T09:12:29.61Z</time></trkpt><trkpt lat="45.6309677" lon="8.2713182"><ele>322.0</ele><time>2026-04-19T09:12:30.612Z</time></trkpt><trkpt lat="45.6309364" lon="8.2711364"><ele>322.0</ele><time>2026-04-19T09:12:31.611Z</time></trkpt><trkpt lat="45.6309131" lon="8.2709577"><ele>322.0</ele><time>2026-04-19T09:12:32.612Z</time></trkpt><trkpt lat="45.6308941" lon="8.2707787"><ele>322.0</ele><time>2026-04-19T09:12:33.611Z</time></trkpt><trkpt lat="45.6308861" lon="8.2705998"><ele>322.0</ele><time>2026-04-19T09:12:34.612Z</time></trkpt><trkpt lat="45.6308801" lon="8.2704213"><ele>322.75</ele><time>2026-04-19T09:12:35.61Z</time></trkpt><trkpt lat="45.6308762" lon="8.2702351"><ele>323.5</ele><time>2026-04-19T09:12:36.611Z</time></trkpt><trkpt lat="45.6308812" lon="8.2700495"><ele>324.25</ele><time>2026-04-19T09:12:37.612Z</time></trkpt><trkpt lat="45.6308888" lon="8.2698587"><ele>325.0</ele><time>2026-04-19T09:12:38.612Z</time></trkpt><trkpt lat="45.6309006" lon="8.2696854"><ele>325.25</ele><time>2026-04-19T09:12:39.611Z</time></trkpt><trkpt lat="45.6309094" lon="8.2695194"><ele>325.5</ele><time>2026-04-19T09:12:40.611Z</time></trkpt><trkpt lat="45.630908" lon="8.2693605"><ele>325.75</ele><time>2026-04-19T09:12:41.611Z</time></trkpt><trkpt lat="45.6308944" lon="8.2691992"><ele>326.0</ele><time>2026-04-19T09:12:42.612Z</time></trkpt><trkpt lat="45.6308719" lon="8.2690369"><ele>325.75</ele><time>2026-04-19T09:12:43.612Z</time></trkpt><trkpt lat="45.6308443" lon="8.2688669"><ele>325.5</ele><time>2026-04-19T09:12:44.611Z</time></trkpt><trkpt lat="45.6308191" lon="8.2687002"><ele>325.25</ele><time>2026-04-19T09:12:45.612Z</time></trkpt><trkpt lat="45.6307912" lon="8.2685357"><ele>325.0</ele><time>2026-04-19T09:12:46.612Z</time></trkpt><trkpt lat="45.6307645" lon="8.2683859"><ele>325.0</ele><time>2026-04-19T09:12:47.612Z</time></trkpt><trkpt lat="45.6307398" lon="8.2682386"><ele>325.0</ele><time>2026-04-19T09:12:48.612Z</time></trkpt><trkpt lat="45.6307117" lon="8.2680926"><ele>325.0</ele><time>2026-04-19T09:12:49.612Z</time></trkpt><trkpt lat="45.6306876" lon="8.2679531"><ele>325.0</ele><time>2026-04-19T09:12:50.61Z</time></trkpt><trkpt lat="45.6306638" lon="8.2678233"><ele>325.0</ele><time>2026-04-19T09:12:51.61Z</time></trkpt><trkpt lat="45.6306397" lon="8.2677029"><ele>324.66666666666663</ele><time>2026-04-19T09:12:52.61Z</time></trkpt><trkpt lat="45.6306187" lon="8.2675895"><ele>324.3333333333333</ele><time>2026-04-19T09:12:53.612Z</time></trkpt><trkpt lat="45.6305997" lon="8.2674799"><ele>324.0</ele><time>2026-04-19T09:12:54.61Z</time></trkpt><trkpt lat="45.6305772" lon="8.2673779"><ele>323.6666666666667</ele><time>2026-04-19T09:12:55.61Z</time></trkpt><trkpt lat="45.6305595" lon="8.2672813"><ele>323.33333333333337</ele><time>2026-04-19T09:12:56.612Z</time></trkpt><trkpt lat="45.6305437" lon="8.2671877"><ele>323.0</ele><time>2026-04-19T09:12:57.611Z</time></trkpt><trkpt lat="45.6305481" lon="8.2670748"><ele>323.83333333333337</ele><time>2026-04-19T09:12:59.611Z</time></trkpt><trkpt lat="45.6306039" lon="8.2669894"><ele>324.6666666666667</ele><time>2026-04-19T09:13:02.611Z</time></trkpt><trkpt lat="45.6306863" lon="8.266988"><ele>325.5</ele><time>2026-04-19T09:13:05.612Z</time></trkpt><trkpt lat="45.630763" lon="8.2669556"><ele>326.3333333333333</ele><time>2026-04-19T09:13:08.61Z</time></trkpt><trkpt lat="45.6308309" lon="8.2669141"><ele>327.16666666666663</ele><time>2026-04-19T09:13:11.611Z</time></trkpt><trkpt lat="45.6309187" lon="8.2669009"><ele>328.0</ele><time>2026-04-19T09:13:15.61Z</time></trkpt><trkpt lat="45.6309847" lon="8.266886"><ele>328.0</ele><time>2026-04-19T09:13:17.611Z</time></trkpt><trkpt lat="45.6310494" lon="8.2668358"><ele>328.0</ele><time>2026-04-19T09:13:19.612Z</time></trkpt><trkpt lat="45.6311308" lon="8.2668156"><ele>328.0</ele><time>2026-04-19T09:13:22.611Z</time></trkpt><trkpt lat="45.6311939" lon="8.2668772"><ele>328.0</ele><time>2026-04-19T09:13:24.612Z</time></trkpt><trkpt lat="45.6312567" lon="8.2669729"><ele>328.0</ele><time>2026-04-19T09:13:27.609Z</time></trkpt><trkpt lat="45.6312838" lon="8.2670555"><ele>328.0</ele><time>2026-04-19T09:13:29.612Z</time></trkpt><trkpt lat="45.6313681" lon="8.2671016"><ele>330.71428571428567</ele><time>2026-04-19T09:13:32.611Z</time></trkpt><trkpt lat="45.6314577" lon="8.2670859"><ele>333.42857142857144</ele><time>2026-04-19T09:13:35.611Z</time></trkpt><trkpt lat="45.6315149" lon="8.2670427"><ele>336.1428571428571</ele><time>2026-04-19T09:13:37.609Z</time></trkpt><trkpt lat="45.6315834" lon="8.2670356"><ele>338.85714285714283</ele><time>2026-04-19T09:13:40.61Z</time></trkpt><trkpt lat="45.6316346" lon="8.2670883"><ele>341.57142857142856</ele><time>2026-04-19T09:13:42.61Z</time></trkpt><trkpt lat="45.6317" lon="8.2671046"><ele>344.2857142857143</ele><time>2026-04-19T09:13:44.611Z</time></trkpt><trkpt lat="45.6317843" lon="8.2671097"><ele>347.0</ele><time>2026-04-19T09:14:07.611Z</time></trkpt><trkpt lat="45.631854" lon="8.2671035"><ele>347.0</ele><time>2026-04-19T09:14:11.611Z</time></trkpt><trkpt lat="45.6319182" lon="8.2671052"><ele>347.0</ele><time>2026-04-19T09:14:13.612Z</time></trkpt><trkpt lat="45.6319812" lon="8.2670974"><ele>347.0</ele><time>2026-04-19T09:14:16.612Z</time></trkpt><trkpt lat="45.632059" lon="8.2670522"><ele>347.0</ele><time>2026-04-19T09:14:21.611Z</time></trkpt><trkpt lat="45.6321321" lon="8.2670778"><ele>347.0</ele><time>2026-04-19T09:14:27.611Z</time></trkpt><trkpt lat="45.63221" lon="8.2670832"><ele>347.0</ele><time>2026-04-19T09:14:30.612Z</time></trkpt><trkpt lat="45.6322822" lon="8.2671271"><ele>347.0</ele><time>2026-04-19T09:14:35.611Z</time></trkpt><trkpt lat="45.6323292" lon="8.2670382"><ele>349.83333333333337</ele><time>2026-04-19T09:14:38.61Z</time></trkpt><trkpt lat="45.6323278" lon="8.2668957"><ele>352.6666666666667</ele><time>2026-04-19T09:14:41.611Z</time></trkpt><trkpt lat="45.6323775" lon="8.2667711"><ele>355.5</ele><time>2026-04-19T09:14:43.611Z</time></trkpt><trkpt lat="45.6324389" lon="8.2666745"><ele>358.3333333333333</ele><time>2026-04-19T09:14:45.612Z</time></trkpt><trkpt lat="45.6325002" lon="8.2666153"><ele>361.16666666666663</ele><time>2026-04-19T09:14:47.61Z</time></trkpt><trkpt lat="45.6325411" lon="8.2665289"><ele>364.0</ele><time>2026-04-19T09:14:49.611Z</time></trkpt><trkpt lat="45.6325717" lon="8.2664195"><ele>364.57142857142856</ele><time>2026-04-19T09:14:51.611Z</time></trkpt><trkpt lat="45.632626" lon="8.2663503"><ele>365.1428571428571</ele><time>2026-04-19T09:14:53.612Z</time></trkpt><trkpt lat="45.6326987" lon="8.2662858"><ele>365.7142857142857</ele><time>2026-04-19T09:14:55.611Z</time></trkpt><trkpt lat="45.6327681" lon="8.2662519"><ele>366.2857142857143</ele><time>2026-04-19T09:14:57.612Z</time></trkpt><trkpt lat="45.6328342" lon="8.2662689"><ele>366.85714285714283</ele><time>2026-04-19T09:14:59.611Z</time></trkpt><trkpt lat="45.6328964" lon="8.266346"><ele>367.42857142857144</ele><time>2026-04-19T09:15:01.611Z</time></trkpt><trkpt lat="45.6329219" lon="8.2664284"><ele>368.0</ele><time>2026-04-19T09:15:03.611Z</time></trkpt><trkpt lat="45.6329748" lon="8.2664845"><ele>366.5</ele><time>2026-04-19T09:15:05.611Z</time></trkpt><trkpt lat="45.6330412" lon="8.26651"><ele>365.0</ele><time>2026-04-19T09:15:07.611Z</time></trkpt><trkpt lat="45.6331228" lon="8.2665425"><ele>363.5</ele><time>2026-04-19T09:15:09.611Z</time></trkpt><trkpt lat="45.6332045" lon="8.26658"><ele>362.0</ele><time>2026-04-19T09:15:11.611Z</time></trkpt><trkpt lat="45.633307" lon="8.2666282"><ele>360.5</ele><time>2026-04-19T09:15:13.611Z</time></trkpt><trkpt lat="45.6333818" lon="8.2666937"><ele>359.0</ele><time>2026-04-19T09:15:15.611Z</time></trkpt><trkpt lat="45.6334712" lon="8.2667445"><ele>359.0</ele><time>2026-04-19T09:15:17.611Z</time></trkpt><trkpt lat="45.63355" lon="8.2667686"><ele>359.0</ele><time>2026-04-19T09:15:19.612Z</time></trkpt><trkpt lat="45.6336303" lon="8.2667572"><ele>359.0</ele><time>2026-04-19T09:15:21.611Z</time></trkpt><trkpt lat="45.6337178" lon="8.2667512"><ele>359.0</ele><time>2026-04-19T09:15:23.611Z</time></trkpt><trkpt lat="45.6338097" lon="8.2667154"><ele>359.0</ele><time>2026-04-19T09:15:25.61Z</time></trkpt><trkpt lat="45.6339249" lon="8.2666589"><ele>358.33333333333337</ele><time>2026-04-19T09:15:27.611Z</time></trkpt><trkpt lat="45.6339915" lon="8.2666334"><ele>357.6666666666667</ele><time>2026-04-19T09:15:28.609Z</time></trkpt><trkpt lat="45.6340547" lon="8.2666075"><ele>357.0</ele><time>2026-04-19T09:15:29.612Z</time></trkpt><trkpt lat="45.6341474" lon="8.2665792"><ele>356.3333333333333</ele><time>2026-04-19T09:15:31.611Z</time></trkpt><trkpt lat="45.6341787" lon="8.2666744"><ele>355.66666666666663</ele><time>2026-04-19T09:15:34.61Z</time></trkpt><trkpt lat="45.6341613" lon="8.2667838"><ele>355.0</ele><time>2026-04-19T09:15:36.612Z</time></trkpt><trkpt lat="45.6341503" lon="8.2668982"><ele>355.0</ele><time>2026-04-19T09:15:37.611Z</time></trkpt><trkpt lat="45.6341444" lon="8.2670061"><ele>355.0</ele><time>2026-04-19T09:15:38.611Z</time></trkpt><trkpt lat="45.6341313" lon="8.26711"><ele>355.0</ele><time>2026-04-19T09:15:39.611Z</time></trkpt><trkpt lat="45.6340914" lon="8.2672724"><ele>355.0</ele><time>2026-04-19T09:15:41.611Z</time></trkpt><trkpt lat="45.6340594" lon="8.2674025"><ele>355.0</ele><time>2026-04-19T09:15:43.611Z</time></trkpt><trkpt lat="45.6340786" lon="8.2675642"><ele>355.0</ele><time>2026-04-19T09:15:45.611Z</time></trkpt><trkpt lat="45.6340897" lon="8.2677312"><ele>355.0</ele><time>2026-04-19T09:15:47.61Z</time></trkpt><trkpt lat="45.634148" lon="8.2678612"><ele>355.0</ele><time>2026-04-19T09:15:49.611Z</time></trkpt><trkpt lat="45.6342312" lon="8.2679761"><ele>355.0</ele><time>2026-04-19T09:15:51.611Z</time></trkpt><trkpt lat="45.6343176" lon="8.2680996"><ele>355.25</ele><time>2026-04-19T09:15:53.611Z</time></trkpt><trkpt lat="45.6344053" lon="8.2682164"><ele>355.5</ele><time>2026-04-19T09:15:55.61Z</time></trkpt><trkpt lat="45.6344777" lon="8.2683339"><ele>355.75</ele><time>2026-04-19T09:15:57.612Z</time></trkpt><trkpt lat="45.6345513" lon="8.2684565"><ele>356.0</ele><time>2026-04-19T09:15:59.61Z</time></trkpt><trkpt lat="45.634623" lon="8.2685735"><ele>356.6666666666667</ele><time>2026-04-19T09:16:01.612Z</time></trkpt><trkpt lat="45.6347015" lon="8.268693"><ele>357.33333333333337</ele><time>2026-04-19T09:16:03.61Z</time></trkpt><trkpt lat="45.6347481" lon="8.2687543"><ele>358.0</ele><time>2026-04-19T09:16:04.61Z</time></trkpt><trkpt lat="45.6347966" lon="8.2688259"><ele>358.6666666666667</ele><time>2026-04-19T09:16:05.61Z</time></trkpt><trkpt lat="45.6348463" lon="8.2689012"><ele>359.3333333333333</ele><time>2026-04-19T09:16:06.611Z</time></trkpt><trkpt lat="45.6348929" lon="8.2689806"><ele>360.0</ele><time>2026-04-19T09:16:07.61Z</time></trkpt><trkpt lat="45.6349331" lon="8.2690668"><ele>360.0</ele><time>2026-04-19T09:16:08.611Z</time></trkpt><trkpt lat="45.6349606" lon="8.2691595"><ele>360.0</ele><time>2026-04-19T09:16:09.611Z</time></trkpt><trkpt lat="45.6349736" lon="8.2692611"><ele>360.0</ele><time>2026-04-19T09:16:10.611Z</time></trkpt><trkpt lat="45.6349774" lon="8.2693629"><ele>360.0</ele><time>2026-04-19T09:16:11.612Z</time></trkpt><trkpt lat="45.634979" lon="8.2694669"><ele>360.0</ele><time>2026-04-19T09:16:12.609Z</time></trkpt><trkpt lat="45.6349771" lon="8.2695713"><ele>360.0</ele><time>2026-04-19T09:16:13.611Z</time></trkpt><trkpt lat="45.6349764" lon="8.2696797"><ele>360.0</ele><time>2026-04-19T09:16:14.61Z</time></trkpt><trkpt lat="45.6349743" lon="8.269785"><ele>359.7142857142857</ele><time>2026-04-19T09:16:15.611Z</time></trkpt><trkpt lat="45.6349656" lon="8.2698839"><ele>359.42857142857144</ele><time>2026-04-19T09:16:16.61Z</time></trkpt><trkpt lat="45.6349431" lon="8.2699722"><ele>359.14285714285717</ele><time>2026-04-19T09:16:17.611Z</time></trkpt><trkpt lat="45.6349138" lon="8.2700563"><ele>358.8571428571429</ele><time>2026-04-19T09:16:18.611Z</time></trkpt><trkpt lat="45.6348763" lon="8.2701391"><ele>358.57142857142856</ele><time>2026-04-19T09:16:19.611Z</time></trkpt><trkpt lat="45.6348308" lon="8.2702216"><ele>358.28571428571433</ele><time>2026-04-19T09:16:20.611Z</time></trkpt><trkpt lat="45.6347838" lon="8.2703016"><ele>358.0</ele><time>2026-04-19T09:16:21.61Z</time></trkpt><trkpt lat="45.6347366" lon="8.2703863"><ele>358.00000000000006</ele><time>2026-04-19T09:16:22.611Z</time></trkpt><trkpt lat="45.6346889" lon="8.2704671"><ele>358.0</ele><time>2026-04-19T09:16:23.61Z</time></trkpt><trkpt lat="45.6346433" lon="8.2705497"><ele>358.0</ele><time>2026-04-19T09:16:24.61Z</time></trkpt><trkpt lat="45.6345974" lon="8.2706289"><ele>358.0</ele><time>2026-04-19T09:16:25.611Z</time></trkpt><trkpt lat="45.6345547" lon="8.2707082"><ele>358.0</ele><time>2026-04-19T09:16:26.611Z</time></trkpt><trkpt lat="45.6344978" lon="8.2707654"><ele>358.00000000000006</ele><time>2026-04-19T09:16:27.611Z</time></trkpt><trkpt lat="45.6344463" lon="8.2708245"><ele>358.0</ele><time>2026-04-19T09:16:28.609Z</time></trkpt><trkpt lat="45.6343669" lon="8.2709497"><ele>358.2</ele><time>2026-04-19T09:16:30.611Z</time></trkpt><trkpt lat="45.6343702" lon="8.2710858"><ele>358.4</ele><time>2026-04-19T09:16:32.611Z</time></trkpt><trkpt lat="45.6344463" lon="8.2711924"><ele>358.59999999999997</ele><time>2026-04-19T09:16:34.61Z</time></trkpt><trkpt lat="45.6345422" lon="8.2712851"><ele>358.79999999999995</ele><time>2026-04-19T09:16:36.611Z</time></trkpt><trkpt lat="45.6346379" lon="8.2713849"><ele>359.0</ele><time>2026-04-19T09:16:38.611Z</time></trkpt><trkpt lat="45.6346641" lon="8.2715174"><ele>359.0</ele><time>2026-04-19T09:16:40.61Z</time></trkpt><trkpt lat="45.634686" lon="8.2716162"><ele>359.0</ele><time>2026-04-19T09:16:42.611Z</time></trkpt><trkpt lat="45.634772" lon="8.2715965"><ele>359.0</ele><time>2026-04-19T09:16:44.61Z</time></trkpt><trkpt lat="45.634801" lon="8.2714766"><ele>359.0</ele><time>2026-04-19T09:16:46.611Z</time></trkpt><trkpt lat="45.6348169" lon="8.2713875"><ele>359.0</ele><time>2026-04-19T09:16:47.611Z</time></trkpt><trkpt lat="45.6348392" lon="8.2713026"><ele>359.0</ele><time>2026-04-19T09:16:48.611Z</time></trkpt><trkpt lat="45.6348578" lon="8.2711992"><ele>359.0</ele><time>2026-04-19T09:16:49.61Z</time></trkpt><trkpt lat="45.6348595" lon="8.2711006"><ele>359.0</ele><time>2026-04-19T09:16:50.61Z</time></trkpt><trkpt lat="45.6348622" lon="8.2710072"><ele>359.0</ele><time>2026-04-19T09:16:51.61Z</time></trkpt><trkpt lat="45.6349054" lon="8.2708672"><ele>359.0</ele><time>2026-04-19T09:16:53.612Z</time></trkpt><trkpt lat="45.6349981" lon="8.2707554"><ele>359.0</ele><time>2026-04-19T09:16:55.611Z</time></trkpt><trkpt lat="45.6350581" lon="8.270713"><ele>359.0</ele><time>2026-04-19T09:16:56.611Z</time></trkpt><trkpt lat="45.635114" lon="8.2706705"><ele>359.0</ele><time>2026-04-19T09:16:57.611Z</time></trkpt><trkpt lat="45.6351665" lon="8.2706207"><ele>359.0</ele><time>2026-04-19T09:16:58.611Z</time></trkpt><trkpt lat="45.6352537" lon="8.270499"><ele>359.0</ele><time>2026-04-19T09:17:00.611Z</time></trkpt><trkpt lat="45.6352925" lon="8.2704272"><ele>359.0</ele><time>2026-04-19T09:17:01.611Z</time></trkpt><trkpt lat="45.6353297" lon="8.2703504"><ele>359.0</ele><time>2026-04-19T09:17:02.611Z</time></trkpt><trkpt lat="45.6353584" lon="8.2702691"><ele>359.0</ele><time>2026-04-19T09:17:03.611Z</time></trkpt><trkpt lat="45.6353792" lon="8.2701714"><ele>359.0</ele><time>2026-04-19T09:17:04.611Z</time></trkpt><trkpt lat="45.6353941" lon="8.2700752"><ele>360.1666666666667</ele><time>2026-04-19T09:17:05.611Z</time></trkpt><trkpt lat="45.6354048" lon="8.2699711"><ele>361.33333333333337</ele><time>2026-04-19T09:17:06.611Z</time></trkpt><trkpt lat="45.6354156" lon="8.2698602"><ele>362.5</ele><time>2026-04-19T09:17:07.611Z</time></trkpt><trkpt lat="45.6354257" lon="8.2697494"><ele>363.6666666666667</ele><time>2026-04-19T09:17:08.61Z</time></trkpt><trkpt lat="45.6354353" lon="8.2696425"><ele>364.8333333333333</ele><time>2026-04-19T09:17:09.611Z</time></trkpt><trkpt lat="45.6354425" lon="8.2695341"><ele>366.0</ele><time>2026-04-19T09:17:10.611Z</time></trkpt><trkpt lat="45.6354448" lon="8.2694224"><ele>367.0</ele><time>2026-04-19T09:17:11.611Z</time></trkpt><trkpt lat="45.6354509" lon="8.2693228"><ele>368.0</ele><time>2026-04-19T09:17:12.611Z</time></trkpt><trkpt lat="45.6354596" lon="8.2692208"><ele>369.0</ele><time>2026-04-19T09:17:13.611Z</time></trkpt><trkpt lat="45.6354765" lon="8.2690479"><ele>370.0</ele><time>2026-04-19T09:17:15.611Z</time></trkpt><trkpt lat="45.6355022" lon="8.268896"><ele>371.0</ele><time>2026-04-19T09:17:17.611Z</time></trkpt><trkpt lat="45.635541" lon="8.2687238"><ele>371.6666666666667</ele><time>2026-04-19T09:17:19.611Z</time></trkpt><trkpt lat="45.6355677" lon="8.2686183"><ele>372.33333333333337</ele><time>2026-04-19T09:17:20.61Z</time></trkpt><trkpt lat="45.6356036" lon="8.2685134"><ele>373.0</ele><time>2026-04-19T09:17:21.61Z</time></trkpt><trkpt lat="45.6356405" lon="8.2684063"><ele>373.6666666666667</ele><time>2026-04-19T09:17:22.611Z</time></trkpt><trkpt lat="45.6356824" lon="8.2682995"><ele>374.3333333333333</ele><time>2026-04-19T09:17:23.61Z</time></trkpt><trkpt lat="45.6357264" lon="8.2682016"><ele>375.0</ele><time>2026-04-19T09:17:24.61Z</time></trkpt><trkpt lat="45.6357789" lon="8.2681042"><ele>375.0</ele><time>2026-04-19T09:17:25.61Z</time></trkpt><trkpt lat="45.6358387" lon="8.2680107"><ele>375.0</ele><time>2026-04-19T09:17:26.611Z</time></trkpt><trkpt lat="45.6359009" lon="8.2679018"><ele>375.0</ele><time>2026-04-19T09:17:27.611Z</time></trkpt><trkpt lat="45.6359591" lon="8.2678025"><ele>375.0</ele><time>2026-04-19T09:17:28.61Z</time></trkpt><trkpt lat="45.6360179" lon="8.2676996"><ele>375.0</ele><time>2026-04-19T09:17:29.61Z</time></trkpt><trkpt lat="45.6360755" lon="8.2676076"><ele>375.0</ele><time>2026-04-19T09:17:30.611Z</time></trkpt><trkpt lat="45.6361321" lon="8.2675137"><ele>375.0</ele><time>2026-04-19T09:17:31.611Z</time></trkpt><trkpt lat="45.6361921" lon="8.2674221"><ele>375.0</ele><time>2026-04-19T09:17:32.611Z</time></trkpt><trkpt lat="45.6362444" lon="8.2673318"><ele>375.0</ele><time>2026-04-19T09:17:33.61Z</time></trkpt><trkpt lat="45.6363017" lon="8.2672402"><ele>375.0</ele><time>2026-04-19T09:17:34.611Z</time></trkpt><trkpt lat="45.6363504" lon="8.2671538"><ele>375.0</ele><time>2026-04-19T09:17:35.611Z</time></trkpt><trkpt lat="45.6364053" lon="8.2670818"><ele>375.4</ele><time>2026-04-19T09:17:36.61Z</time></trkpt><trkpt lat="45.6364779" lon="8.2670208"><ele>375.8</ele><time>2026-04-19T09:17:37.61Z</time></trkpt><trkpt lat="45.6365443" lon="8.2669597"><ele>376.20000000000005</ele><time>2026-04-19T09:17:38.611Z</time></trkpt><trkpt lat="45.6366023" lon="8.2669068"><ele>376.6</ele><time>2026-04-19T09:17:39.611Z</time></trkpt><trkpt lat="45.6366877" lon="8.2667984"><ele>377.0</ele><time>2026-04-19T09:17:41.611Z</time></trkpt><trkpt lat="45.6367515" lon="8.266668"><ele>376.99999999999994</ele><time>2026-04-19T09:17:43.611Z</time></trkpt><trkpt lat="45.6367752" lon="8.2665785"><ele>377.0</ele><time>2026-04-19T09:17:44.611Z</time></trkpt><trkpt lat="45.6367873" lon="8.2664781"><ele>377.0</ele><time>2026-04-19T09:17:45.61Z</time></trkpt><trkpt lat="45.6368074" lon="8.2663842"><ele>377.0</ele><time>2026-04-19T09:17:46.609Z</time></trkpt><trkpt lat="45.636825" lon="8.2662843"><ele>377.0</ele><time>2026-04-19T09:17:47.611Z</time></trkpt><trkpt lat="45.6368604" lon="8.2661787"><ele>376.99999999999994</ele><time>2026-04-19T09:17:48.611Z</time></trkpt><trkpt lat="45.6368777" lon="8.2660892"><ele>377.0</ele><time>2026-04-19T09:17:49.611Z</time></trkpt><trkpt lat="45.6368777" lon="8.2659363"><ele>377.33333333333337</ele><time>2026-04-19T09:17:51.61Z</time></trkpt><trkpt lat="45.6368904" lon="8.2658352"><ele>377.6666666666667</ele><time>2026-04-19T09:17:53.611Z</time></trkpt><trkpt lat="45.6369615" lon="8.2658091"><ele>378.0</ele><time>2026-04-19T09:18:10.611Z</time></trkpt><trkpt lat="45.6370323" lon="8.2658752"><ele>378.3333333333333</ele><time>2026-04-19T09:19:57.611Z</time></trkpt><trkpt lat="45.6370917" lon="8.265954"><ele>378.66666666666663</ele><time>2026-04-19T09:20:00.609Z</time></trkpt><trkpt lat="45.637138" lon="8.2660239"><ele>379.0</ele><time>2026-04-19T09:20:02.611Z</time></trkpt><trkpt lat="45.6372074" lon="8.2661003"><ele>381.8571428571429</ele><time>2026-04-19T09:20:05.61Z</time></trkpt><trkpt lat="45.6372755" lon="8.2661196"><ele>384.7142857142857</ele><time>2026-04-19T09:20:07.611Z</time></trkpt><trkpt lat="45.637341" lon="8.2661212"><ele>387.57142857142856</ele><time>2026-04-19T09:20:09.611Z</time></trkpt><trkpt lat="45.6374299" lon="8.2661171"><ele>390.42857142857144</ele><time>2026-04-19T09:20:12.611Z</time></trkpt><trkpt lat="45.6375001" lon="8.2660712"><ele>393.2857142857143</ele><time>2026-04-19T09:20:15.61Z</time></trkpt><trkpt lat="45.6375415" lon="8.2659831"><ele>396.14285714285717</ele><time>2026-04-19T09:20:17.609Z</time></trkpt><trkpt lat="45.637592" lon="8.2659148"><ele>399.0</ele><time>2026-04-19T09:20:19.611Z</time></trkpt><trkpt lat="45.6376299" lon="8.2658415"><ele>399.0</ele><time>2026-04-19T09:20:37.611Z</time></trkpt><trkpt lat="45.6375861" lon="8.2657595"><ele>399.0</ele><time>2026-04-19T09:20:47.609Z</time></trkpt><trkpt lat="45.6375352" lon="8.265704"><ele>399.0</ele><time>2026-04-19T09:21:35.61Z</time></trkpt><trkpt lat="45.63756" lon="8.2656028"><ele>399.0</ele><time>2026-04-19T09:22:06.611Z</time></trkpt><trkpt lat="45.6375846" lon="8.2655037"><ele>399.0</ele><time>2026-04-19T09:22:08.609Z</time></trkpt><trkpt lat="45.6375834" lon="8.2653758"><ele>399.0</ele><time>2026-04-19T09:22:11.61Z</time></trkpt><trkpt lat="45.6375732" lon="8.2652774"><ele>399.0</ele><time>2026-04-19T09:22:13.61Z</time></trkpt><trkpt lat="45.6375704" lon="8.2651795"><ele>401.7142857142857</ele><time>2026-04-19T09:22:15.608Z</time></trkpt><trkpt lat="45.6375432" lon="8.2650769"><ele>404.42857142857144</ele><time>2026-04-19T09:22:18.61Z</time></trkpt><trkpt lat="45.6375624" lon="8.2649825"><ele>407.1428571428571</ele><time>2026-04-19T09:22:43.61Z</time></trkpt><trkpt lat="45.6375581" lon="8.2648841"><ele>409.8571428571429</ele><time>2026-04-19T09:23:05.611Z</time></trkpt><trkpt lat="45.6375994" lon="8.2648158"><ele>412.57142857142856</ele><time>2026-04-19T09:23:24.61Z</time></trkpt><trkpt lat="45.6376054" lon="8.2647118"><ele>415.2857142857143</ele><time>2026-04-19T09:23:37.61Z</time></trkpt><trkpt lat="45.6375715" lon="8.2646321"><ele>418.0</ele><time>2026-04-19T09:23:48.611Z</time></trkpt><trkpt lat="45.6376286" lon="8.2645851"><ele>419.85714285714283</ele><time>2026-04-19T09:24:21.609Z</time></trkpt><trkpt lat="45.6376256" lon="8.2644923"><ele>421.71428571428567</ele><time>2026-04-19T09:24:24.609Z</time></trkpt><trkpt lat="45.6376678" lon="8.2644021"><ele>423.57142857142856</ele><time>2026-04-19T09:25:22.609Z</time></trkpt><trkpt lat="45.6377241" lon="8.2643362"><ele>425.42857142857144</ele><time>2026-04-19T09:25:34.609Z</time></trkpt><trkpt lat="45.6377613" lon="8.2642502"><ele>427.2857142857143</ele><time>2026-04-19T09:25:37.609Z</time></trkpt><trkpt lat="45.6378168" lon="8.2642007"><ele>429.14285714285717</ele><time>2026-04-19T09:25:46.61Z</time></trkpt><trkpt lat="45.637863" lon="8.2640995"><ele>431.0</ele><time>2026-04-19T09:25:52.61Z</time></trkpt><trkpt lat="45.6378885" lon="8.2639948"><ele>434.42857142857144</ele><time>2026-04-19T09:25:54.608Z</time></trkpt><trkpt lat="45.6379147" lon="8.2638847"><ele>437.85714285714283</ele><time>2026-04-19T09:25:57.61Z</time></trkpt><trkpt lat="45.6379502" lon="8.2638023"><ele>441.2857142857143</ele><time>2026-04-19T09:25:59.609Z</time></trkpt><trkpt lat="45.6379579" lon="8.2637019"><ele>444.7142857142857</ele><time>2026-04-19T09:26:01.61Z</time></trkpt><trkpt lat="45.6379621" lon="8.2636108"><ele>448.1428571428571</ele><time>2026-04-19T09:26:03.61Z</time></trkpt><trkpt lat="45.6380108" lon="8.2635439"><ele>451.57142857142856</ele><time>2026-04-19T09:26:05.61Z</time></trkpt><trkpt lat="45.638078" lon="8.2634723"><ele>455.0</ele><time>2026-04-19T09:26:07.609Z</time></trkpt><trkpt lat="45.6381582" lon="8.2633982"><ele>454.99999999999994</ele><time>2026-04-19T09:26:09.61Z</time></trkpt><trkpt lat="45.6382309" lon="8.263353"><ele>455.0</ele><time>2026-04-19T09:26:11.609Z</time></trkpt><trkpt lat="45.6382939" lon="8.2632722"><ele>455.0</ele><time>2026-04-19T09:26:13.609Z</time></trkpt><trkpt lat="45.6383819" lon="8.263175"><ele>455.0</ele><time>2026-04-19T09:26:15.61Z</time></trkpt><trkpt lat="45.6384353" lon="8.2631165"><ele>454.99999999999994</ele><time>2026-04-19T09:26:16.609Z</time></trkpt><trkpt lat="45.6384847" lon="8.26306"><ele>455.0</ele><time>2026-04-19T09:26:17.608Z</time></trkpt><trkpt lat="45.6385412" lon="8.2630078"><ele>449.75</ele><time>2026-04-19T09:26:18.609Z</time></trkpt><trkpt lat="45.6386635" lon="8.2629628"><ele>444.5</ele><time>2026-04-19T09:26:20.61Z</time></trkpt><trkpt lat="45.6387782" lon="8.2629635"><ele>439.25</ele><time>2026-04-19T09:26:22.61Z</time></trkpt><trkpt lat="45.6388853" lon="8.2629867"><ele>434.0</ele><time>2026-04-19T09:26:24.608Z</time></trkpt><trkpt lat="45.6390012" lon="8.2629703"><ele>434.0</ele><time>2026-04-19T09:26:26.61Z</time></trkpt><trkpt lat="45.6391124" lon="8.2628985"><ele>434.0</ele><time>2026-04-19T09:26:28.609Z</time></trkpt><trkpt lat="45.6392181" lon="8.2628541"><ele>434.0</ele><time>2026-04-19T09:26:30.609Z</time></trkpt><trkpt lat="45.6393269" lon="8.2628416"><ele>434.0</ele><time>2026-04-19T09:26:32.61Z</time></trkpt><trkpt lat="45.6394369" lon="8.2628671"><ele>432.49999999999994</ele><time>2026-04-19T09:26:34.609Z</time></trkpt><trkpt lat="45.6395318" lon="8.2629232"><ele>431.0</ele><time>2026-04-19T09:26:36.61Z</time></trkpt><trkpt lat="45.6396058" lon="8.2630019"><ele>429.5</ele><time>2026-04-19T09:26:38.61Z</time></trkpt><trkpt lat="45.6396938" lon="8.2629921"><ele>428.0</ele><time>2026-04-19T09:26:41.609Z</time></trkpt><trkpt lat="45.6397314" lon="8.2629096"><ele>426.49999999999994</ele><time>2026-04-19T09:26:43.61Z</time></trkpt><trkpt lat="45.6397818" lon="8.2628152"><ele>425.0</ele><time>2026-04-19T09:26:45.61Z</time></trkpt><trkpt lat="45.6398346" lon="8.2627198"><ele>425.0</ele><time>2026-04-19T09:26:47.61Z</time></trkpt><trkpt lat="45.63988" lon="8.2626111"><ele>425.0</ele><time>2026-04-19T09:26:49.609Z</time></trkpt><trkpt lat="45.6399335" lon="8.2625117"><ele>425.0</ele><time>2026-04-19T09:26:51.609Z</time></trkpt><trkpt lat="45.6400188" lon="8.2624812"><ele>425.0</ele><time>2026-04-19T09:26:53.609Z</time></trkpt><trkpt lat="45.6401146" lon="8.2625059"><ele>425.0</ele><time>2026-04-19T09:26:55.61Z</time></trkpt><trkpt lat="45.6402156" lon="8.2625674"><ele>421.8</ele><time>2026-04-19T09:26:57.609Z</time></trkpt><trkpt lat="45.6403348" lon="8.2626332"><ele>418.6</ele><time>2026-04-19T09:26:59.609Z</time></trkpt><trkpt lat="45.640396" lon="8.2626682"><ele>415.4</ele><time>2026-04-19T09:27:00.609Z</time></trkpt><trkpt lat="45.6404709" lon="8.2626997"><ele>412.2</ele><time>2026-04-19T09:27:01.61Z</time></trkpt><trkpt lat="45.6405908" lon="8.2627737"><ele>409.0</ele><time>2026-04-19T09:27:03.61Z</time></trkpt><trkpt lat="45.6406564" lon="8.262832"><ele>409.0</ele><time>2026-04-19T09:27:04.609Z</time></trkpt><trkpt lat="45.6407272" lon="8.2628796"><ele>409.0</ele><time>2026-04-19T09:27:05.61Z</time></trkpt><trkpt lat="45.640797" lon="8.2629295"><ele>409.0</ele><time>2026-04-19T09:27:06.61Z</time></trkpt><trkpt lat="45.6408521" lon="8.2629902"><ele>409.0</ele><time>2026-04-19T09:27:07.609Z</time></trkpt><trkpt lat="45.6409495" lon="8.2630971"><ele>409.0</ele><time>2026-04-19T09:27:09.61Z</time></trkpt><trkpt lat="45.641047" lon="8.2631582"><ele>408.6</ele><time>2026-04-19T09:27:11.609Z</time></trkpt><trkpt lat="45.6411656" lon="8.2631899"><ele>408.2</ele><time>2026-04-19T09:27:13.61Z</time></trkpt><trkpt lat="45.6412789" lon="8.2632064"><ele>407.8</ele><time>2026-04-19T09:27:15.61Z</time></trkpt><trkpt lat="45.6413638" lon="8.2631781"><ele>407.40000000000003</ele><time>2026-04-19T09:27:17.609Z</time></trkpt><trkpt lat="45.6414048" lon="8.2630814"><ele>407.0</ele><time>2026-04-19T09:27:19.61Z</time></trkpt><trkpt lat="45.6414216" lon="8.2629701"><ele>408.6</ele><time>2026-04-19T09:27:21.61Z</time></trkpt><trkpt lat="45.6414023" lon="8.2628336"><ele>410.20000000000005</ele><time>2026-04-19T09:27:23.609Z</time></trkpt><trkpt lat="45.6414236" lon="8.2626659"><ele>411.8</ele><time>2026-04-19T09:27:25.61Z</time></trkpt><trkpt lat="45.6414511" lon="8.2625543"><ele>413.4</ele><time>2026-04-19T09:27:26.608Z</time></trkpt><trkpt lat="45.6414856" lon="8.2624473"><ele>415.0</ele><time>2026-04-19T09:27:27.61Z</time></trkpt><trkpt lat="45.6415215" lon="8.262346"><ele>413.6</ele><time>2026-04-19T09:27:28.609Z</time></trkpt><trkpt lat="45.6415631" lon="8.262275"><ele>412.2</ele><time>2026-04-19T09:27:29.609Z</time></trkpt><trkpt lat="45.6416408" lon="8.2621653"><ele>410.79999999999995</ele><time>2026-04-19T09:27:31.609Z</time></trkpt><trkpt lat="45.6417506" lon="8.2620696"><ele>409.4</ele><time>2026-04-19T09:27:33.609Z</time></trkpt><trkpt lat="45.6418179" lon="8.262022"><ele>408.0</ele><time>2026-04-19T09:27:34.61Z</time></trkpt><trkpt lat="45.6418949" lon="8.2619721"><ele>410.6666666666667</ele><time>2026-04-19T09:27:35.61Z</time></trkpt><trkpt lat="45.6419746" lon="8.2619278"><ele>413.33333333333337</ele><time>2026-04-19T09:27:36.61Z</time></trkpt><trkpt lat="45.6420482" lon="8.2619038"><ele>416.0</ele><time>2026-04-19T09:27:37.61Z</time></trkpt><trkpt lat="45.6421312" lon="8.2618926"><ele>418.6666666666667</ele><time>2026-04-19T09:27:38.609Z</time></trkpt><trkpt lat="45.6421979" lon="8.261876"><ele>421.33333333333337</ele><time>2026-04-19T09:27:39.608Z</time></trkpt><trkpt lat="45.6423114" lon="8.2618228"><ele>424.0</ele><time>2026-04-19T09:27:41.61Z</time></trkpt><trkpt lat="45.6423857" lon="8.2617043"><ele>424.0</ele><time>2026-04-19T09:27:43.61Z</time></trkpt><trkpt lat="45.6424209" lon="8.261621"><ele>424.0</ele><time>2026-04-19T09:27:44.608Z</time></trkpt><trkpt lat="45.6424652" lon="8.2615291"><ele>424.0</ele><time>2026-04-19T09:27:45.61Z</time></trkpt><trkpt lat="45.6425172" lon="8.2614396"><ele>424.0</ele><time>2026-04-19T09:27:46.609Z</time></trkpt><trkpt lat="45.6425674" lon="8.2613441"><ele>424.0</ele><time>2026-04-19T09:27:47.609Z</time></trkpt><trkpt lat="45.6426155" lon="8.261279"><ele>424.0</ele><time>2026-04-19T09:27:48.609Z</time></trkpt><trkpt lat="45.6426753" lon="8.2612263"><ele>424.0</ele><time>2026-04-19T09:27:49.61Z</time></trkpt><trkpt lat="45.6427914" lon="8.2611788"><ele>425.6666666666667</ele><time>2026-04-19T09:27:51.609Z</time></trkpt><trkpt lat="45.6428782" lon="8.2611169"><ele>427.33333333333337</ele><time>2026-04-19T09:27:53.609Z</time></trkpt><trkpt lat="45.6429465" lon="8.26102"><ele>429.0</ele><time>2026-04-19T09:27:55.609Z</time></trkpt><trkpt lat="45.6430067" lon="8.2609282"><ele>430.66666666666663</ele><time>2026-04-19T09:27:57.608Z</time></trkpt><trkpt lat="45.6430826" lon="8.2608929"><ele>432.3333333333333</ele><time>2026-04-19T09:27:59.609Z</time></trkpt><trkpt lat="45.6431576" lon="8.2608987"><ele>434.0</ele><time>2026-04-19T09:28:10.61Z</time></trkpt><trkpt lat="45.6432475" lon="8.2609528"><ele>434.0</ele><time>2026-04-19T09:28:13.609Z</time></trkpt><trkpt lat="45.6433248" lon="8.2609261"><ele>434.0</ele><time>2026-04-19T09:28:15.609Z</time></trkpt><trkpt lat="45.6433963" lon="8.260826"><ele>434.0</ele><time>2026-04-19T09:28:17.609Z</time></trkpt><trkpt lat="45.6434432" lon="8.260701"><ele>434.0</ele><time>2026-04-19T09:28:19.61Z</time></trkpt><trkpt lat="45.6434559" lon="8.2605444"><ele>434.0</ele><time>2026-04-19T09:28:21.608Z</time></trkpt><trkpt lat="45.6434756" lon="8.2604307"><ele>432.66666666666663</ele><time>2026-04-19T09:28:23.609Z</time></trkpt><trkpt lat="45.6435141" lon="8.2603339"><ele>431.3333333333333</ele><time>2026-04-19T09:28:25.608Z</time></trkpt><trkpt lat="45.6435673" lon="8.2602192"><ele>430.0</ele><time>2026-04-19T09:28:27.609Z</time></trkpt><trkpt lat="45.6436379" lon="8.2600951"><ele>428.66666666666663</ele><time>2026-04-19T09:28:29.609Z</time></trkpt><trkpt lat="45.643684" lon="8.2600179"><ele>427.3333333333333</ele><time>2026-04-19T09:28:30.608Z</time></trkpt><trkpt lat="45.6437398" lon="8.259952"><ele>426.0</ele><time>2026-04-19T09:28:31.608Z</time></trkpt><trkpt lat="45.643788" lon="8.2598819"><ele>426.0</ele><time>2026-04-19T09:28:32.61Z</time></trkpt><trkpt lat="45.6438396" lon="8.2598152"><ele>426.0</ele><time>2026-04-19T09:28:33.61Z</time></trkpt><trkpt lat="45.6439291" lon="8.2597188"><ele>426.0</ele><time>2026-04-19T09:28:35.609Z</time></trkpt><trkpt lat="45.6440507" lon="8.2596506"><ele>426.0</ele><time>2026-04-19T09:28:37.608Z</time></trkpt><trkpt lat="45.6441122" lon="8.2596239"><ele>426.0</ele><time>2026-04-19T09:28:38.609Z</time></trkpt><trkpt lat="45.6442251" lon="8.2595604"><ele>425.3333333333333</ele><time>2026-04-19T09:28:40.609Z</time></trkpt><trkpt lat="45.6442784" lon="8.2595101"><ele>424.66666666666663</ele><time>2026-04-19T09:28:41.609Z</time></trkpt><trkpt lat="45.6443648" lon="8.2594333"><ele>424.0</ele><time>2026-04-19T09:28:43.608Z</time></trkpt><trkpt lat="45.6444454" lon="8.2593837"><ele>423.3333333333333</ele><time>2026-04-19T09:28:45.609Z</time></trkpt><trkpt lat="45.6445321" lon="8.2593746"><ele>422.66666666666663</ele><time>2026-04-19T09:28:47.61Z</time></trkpt><trkpt lat="45.6446134" lon="8.2593997"><ele>422.0</ele><time>2026-04-19T09:28:49.609Z</time></trkpt><trkpt lat="45.6447005" lon="8.2594111"><ele>428.0</ele><time>2026-04-19T09:28:51.609Z</time></trkpt><trkpt lat="45.6447828" lon="8.25939"><ele>434.0</ele><time>2026-04-19T09:28:53.609Z</time></trkpt><trkpt lat="45.6448609" lon="8.2593491"><ele>440.00000000000006</ele><time>2026-04-19T09:28:55.61Z</time></trkpt><trkpt lat="45.6449564" lon="8.2593095"><ele>446.0</ele><time>2026-04-19T09:28:57.609Z</time></trkpt><trkpt lat="45.6450676" lon="8.2592584"><ele>452.0</ele><time>2026-04-19T09:28:59.609Z</time></trkpt><trkpt lat="45.6451759" lon="8.2592281"><ele>452.0</ele><time>2026-04-19T09:29:01.608Z</time></trkpt><trkpt lat="45.645277" lon="8.259191"><ele>452.00000000000006</ele><time>2026-04-19T09:29:03.609Z</time></trkpt><trkpt lat="45.6453775" lon="8.2590782"><ele>452.00000000000006</ele><time>2026-04-19T09:29:05.609Z</time></trkpt><trkpt lat="45.6454318" lon="8.2590306"><ele>452.0</ele><time>2026-04-19T09:29:06.609Z</time></trkpt><trkpt lat="45.6455424" lon="8.2589745"><ele>452.0</ele><time>2026-04-19T09:29:08.609Z</time></trkpt><trkpt lat="45.6456535" lon="8.2589293"><ele>449.8333333333333</ele><time>2026-04-19T09:29:10.609Z</time></trkpt><trkpt lat="45.6457362" lon="8.2589131"><ele>447.66666666666663</ele><time>2026-04-19T09:29:11.61Z</time></trkpt><trkpt lat="45.6457994" lon="8.2589067"><ele>445.5</ele><time>2026-04-19T09:29:12.609Z</time></trkpt><trkpt lat="45.6458629" lon="8.2588997"><ele>443.33333333333337</ele><time>2026-04-19T09:29:13.61Z</time></trkpt><trkpt lat="45.6459255" lon="8.2588889"><ele>441.1666666666667</ele><time>2026-04-19T09:29:14.609Z</time></trkpt><trkpt lat="45.6459919" lon="8.2588907"><ele>439.0</ele><time>2026-04-19T09:29:15.609Z</time></trkpt><trkpt lat="45.6461073" lon="8.2588768"><ele>439.79999999999995</ele><time>2026-04-19T09:29:17.609Z</time></trkpt><trkpt lat="45.6462047" lon="8.258838"><ele>440.59999999999997</ele><time>2026-04-19T09:29:19.608Z</time></trkpt><trkpt lat="45.6462727" lon="8.258828"><ele>441.4</ele><time>2026-04-19T09:29:21.608Z</time></trkpt><trkpt lat="45.6463733" lon="8.258844"><ele>442.2</ele><time>2026-04-19T09:29:23.61Z</time></trkpt><trkpt lat="45.6464637" lon="8.2589003"><ele>443.0</ele><time>2026-04-19T09:29:25.609Z</time></trkpt><trkpt lat="45.6465766" lon="8.2589752"><ele>446.4</ele><time>2026-04-19T09:29:27.608Z</time></trkpt><trkpt lat="45.6466793" lon="8.2590034"><ele>449.79999999999995</ele><time>2026-04-19T09:29:29.609Z</time></trkpt><trkpt lat="45.6467943" lon="8.2589961"><ele>453.2</ele><time>2026-04-19T09:29:31.608Z</time></trkpt><trkpt lat="45.646856" lon="8.258968"><ele>456.6</ele><time>2026-04-19T09:29:32.608Z</time></trkpt><trkpt lat="45.6469619" lon="8.258955"><ele>460.0</ele><time>2026-04-19T09:29:34.609Z</time></trkpt><trkpt lat="45.6470365" lon="8.259002"><ele>460.0</ele><time>2026-04-19T09:29:36.61Z</time></trkpt><trkpt lat="45.6471224" lon="8.2589783"><ele>460.0</ele><time>2026-04-19T09:29:38.609Z</time></trkpt><trkpt lat="45.6471914" lon="8.258976"><ele>460.0</ele><time>2026-04-19T09:29:39.608Z</time></trkpt><trkpt lat="45.6473046" lon="8.2589379"><ele>460.0</ele><time>2026-04-19T09:29:41.609Z</time></trkpt><trkpt lat="45.6474172" lon="8.2588651"><ele>460.0</ele><time>2026-04-19T09:29:43.609Z</time></trkpt><trkpt lat="45.6474803" lon="8.2588391"><ele>459.33333333333337</ele><time>2026-04-19T09:29:44.609Z</time></trkpt><trkpt lat="45.647557" lon="8.2588167"><ele>458.6666666666667</ele><time>2026-04-19T09:29:45.609Z</time></trkpt><trkpt lat="45.6476319" lon="8.2588082"><ele>458.0</ele><time>2026-04-19T09:29:46.608Z</time></trkpt><trkpt lat="45.6477014" lon="8.2588048"><ele>457.33333333333337</ele><time>2026-04-19T09:29:47.609Z</time></trkpt><trkpt lat="45.6477773" lon="8.2588233"><ele>456.6666666666667</ele><time>2026-04-19T09:29:48.607Z</time></trkpt><trkpt lat="45.6478668" lon="8.2588418"><ele>456.0</ele><time>2026-04-19T09:29:49.61Z</time></trkpt><trkpt lat="45.6479561" lon="8.2588644"><ele>456.0</ele><time>2026-04-19T09:29:50.609Z</time></trkpt><trkpt lat="45.6480336" lon="8.2588819"><ele>456.0</ele><time>2026-04-19T09:29:51.609Z</time></trkpt><trkpt lat="45.6480968" lon="8.2589204"><ele>456.0</ele><time>2026-04-19T09:29:52.609Z</time></trkpt><trkpt lat="45.6482095" lon="8.2589549"><ele>456.0</ele><time>2026-04-19T09:29:54.609Z</time></trkpt><trkpt lat="45.6482776" lon="8.2589463"><ele>456.0</ele><time>2026-04-19T09:29:55.61Z</time></trkpt><trkpt lat="45.6483873" lon="8.2588643"><ele>456.0</ele><time>2026-04-19T09:29:57.609Z</time></trkpt><trkpt lat="45.6484928" lon="8.2587991"><ele>456.0</ele><time>2026-04-19T09:29:59.61Z</time></trkpt><trkpt lat="45.6486178" lon="8.2588002"><ele>456.0</ele><time>2026-04-19T09:30:01.609Z</time></trkpt><trkpt lat="45.6486898" lon="8.2588157"><ele>456.0</ele><time>2026-04-19T09:30:02.609Z</time></trkpt><trkpt lat="45.6487602" lon="8.25882"><ele>456.0</ele><time>2026-04-19T09:30:03.609Z</time></trkpt><trkpt lat="45.6488913" lon="8.2587963"><ele>455.1428571428571</ele><time>2026-04-19T09:30:05.61Z</time></trkpt><trkpt lat="45.6489615" lon="8.2587712"><ele>454.2857142857142</ele><time>2026-04-19T09:30:06.609Z</time></trkpt><trkpt lat="45.6490298" lon="8.2587536"><ele>453.42857142857144</ele><time>2026-04-19T09:30:07.61Z</time></trkpt><trkpt lat="45.6491041" lon="8.2587582"><ele>452.57142857142856</ele><time>2026-04-19T09:30:08.608Z</time></trkpt><trkpt lat="45.649175" lon="8.2587668"><ele>451.7142857142857</ele><time>2026-04-19T09:30:09.609Z</time></trkpt><trkpt lat="45.6492467" lon="8.258756"><ele>450.8571428571429</ele><time>2026-04-19T09:30:10.608Z</time></trkpt><trkpt lat="45.6493222" lon="8.2587314"><ele>450.00000000000006</ele><time>2026-04-19T09:30:11.609Z</time></trkpt><trkpt lat="45.6493847" lon="8.2586956"><ele>450.0</ele><time>2026-04-19T09:30:12.61Z</time></trkpt><trkpt lat="45.6494486" lon="8.2586438"><ele>450.0</ele><time>2026-04-19T09:30:13.609Z</time></trkpt><trkpt lat="45.6495177" lon="8.258596"><ele>450.0</ele><time>2026-04-19T09:30:14.61Z</time></trkpt><trkpt lat="45.6495805" lon="8.2585544"><ele>450.0</ele><time>2026-04-19T09:30:15.608Z</time></trkpt><trkpt lat="45.6496851" lon="8.258504"><ele>450.0</ele><time>2026-04-19T09:30:17.609Z</time></trkpt><trkpt lat="45.6497924" lon="8.2585126"><ele>450.0</ele><time>2026-04-19T09:30:19.61Z</time></trkpt><trkpt lat="45.6498572" lon="8.2585503"><ele>449.4</ele><time>2026-04-19T09:30:20.609Z</time></trkpt><trkpt lat="45.6499202" lon="8.2585834"><ele>448.8</ele><time>2026-04-19T09:30:21.609Z</time></trkpt><trkpt lat="45.6500669" lon="8.2586161"><ele>448.20000000000005</ele><time>2026-04-19T09:30:23.609Z</time></trkpt><trkpt lat="45.650144" lon="8.2586022"><ele>447.6</ele><time>2026-04-19T09:30:24.609Z</time></trkpt><trkpt lat="45.6502274" lon="8.2586045"><ele>447.0</ele><time>2026-04-19T09:30:25.608Z</time></trkpt><trkpt lat="45.6503015" lon="8.258602"><ele>446.3333333333333</ele><time>2026-04-19T09:30:26.609Z</time></trkpt><trkpt lat="45.650375" lon="8.2585964"><ele>445.66666666666663</ele><time>2026-04-19T09:30:27.607Z</time></trkpt><trkpt lat="45.6504358" lon="8.2586264"><ele>445.0</ele><time>2026-04-19T09:30:28.609Z</time></trkpt><trkpt lat="45.650494" lon="8.2586713"><ele>444.3333333333333</ele><time>2026-04-19T09:30:29.609Z</time></trkpt><trkpt lat="45.6505619" lon="8.2587397"><ele>443.66666666666663</ele><time>2026-04-19T09:30:30.609Z</time></trkpt><trkpt lat="45.6506403" lon="8.2587986"><ele>443.0</ele><time>2026-04-19T09:30:31.609Z</time></trkpt><trkpt lat="45.6507092" lon="8.2588578"><ele>442.99999999999994</ele><time>2026-04-19T09:30:32.609Z</time></trkpt><trkpt lat="45.6507665" lon="8.2589034"><ele>443.0</ele><time>2026-04-19T09:30:33.608Z</time></trkpt><trkpt lat="45.6508702" lon="8.2589732"><ele>443.0</ele><time>2026-04-19T09:30:35.608Z</time></trkpt><trkpt lat="45.6509741" lon="8.2589459"><ele>443.0</ele><time>2026-04-19T09:30:37.608Z</time></trkpt><trkpt lat="45.6510328" lon="8.2588778"><ele>442.99999999999994</ele><time>2026-04-19T09:30:39.609Z</time></trkpt><trkpt lat="45.6511151" lon="8.2588723"><ele>443.0</ele><time>2026-04-19T09:30:41.609Z</time></trkpt><trkpt lat="45.651188" lon="8.2588853"><ele>442.99999999999994</ele><time>2026-04-19T09:30:43.61Z</time></trkpt><trkpt lat="45.6512562" lon="8.2588595"><ele>443.0</ele><time>2026-04-19T09:31:35.609Z</time></trkpt><trkpt lat="45.6511738" lon="8.2588551"><ele>443.0</ele><time>2026-04-19T09:31:38.609Z</time></trkpt><trkpt lat="45.6511074" lon="8.2588702"><ele>443.0</ele><time>2026-04-19T09:31:41.609Z</time></trkpt><trkpt lat="45.6511544" lon="8.258806"><ele>442.99999999999994</ele><time>2026-04-19T09:31:56.609Z</time></trkpt><trkpt lat="45.6512416" lon="8.2587533"><ele>443.0</ele><time>2026-04-19T09:31:59.609Z</time></trkpt><trkpt lat="45.6513144" lon="8.2587493"><ele>443.3333333333333</ele><time>2026-04-19T09:32:01.607Z</time></trkpt><trkpt lat="45.6513962" lon="8.2588281"><ele>443.66666666666663</ele><time>2026-04-19T09:32:03.608Z</time></trkpt><trkpt lat="45.6514547" lon="8.2589016"><ele>444.0</ele><time>2026-04-19T09:32:05.609Z</time></trkpt><trkpt lat="45.6515023" lon="8.2589883"><ele>444.33333333333337</ele><time>2026-04-19T09:32:07.609Z</time></trkpt><trkpt lat="45.6515847" lon="8.259028"><ele>444.6666666666667</ele><time>2026-04-19T09:32:10.609Z</time></trkpt><trkpt lat="45.6516485" lon="8.2590591"><ele>445.0</ele><time>2026-04-19T09:32:12.609Z</time></trkpt><trkpt lat="45.651715" lon="8.2590676"><ele>445.00000000000006</ele><time>2026-04-19T09:32:14.609Z</time></trkpt><trkpt lat="45.6517963" lon="8.2591061"><ele>445.0</ele><time>2026-04-19T09:32:17.609Z</time></trkpt><trkpt lat="45.651811" lon="8.2592162"><ele>445.0</ele><time>2026-04-19T09:32:19.608Z</time></trkpt><trkpt lat="45.65183" lon="8.2593196"><ele>445.0</ele><time>2026-04-19T09:32:21.609Z</time></trkpt><trkpt lat="45.6518445" lon="8.259436"><ele>445.00000000000006</ele><time>2026-04-19T09:32:23.607Z</time></trkpt><trkpt lat="45.6518911" lon="8.2595235"><ele>445.0</ele><time>2026-04-19T09:32:25.607Z</time></trkpt><trkpt lat="45.6519622" lon="8.2595818"><ele>444.42857142857144</ele><time>2026-04-19T09:32:27.609Z</time></trkpt><trkpt lat="45.6520177" lon="8.2596297"><ele>443.85714285714283</ele><time>2026-04-19T09:32:29.608Z</time></trkpt><trkpt lat="45.6520718" lon="8.2597194"><ele>443.2857142857143</ele><time>2026-04-19T09:32:32.608Z</time></trkpt><trkpt lat="45.6521361" lon="8.2597324"><ele>442.7142857142857</ele><time>2026-04-19T09:32:36.609Z</time></trkpt><trkpt lat="45.6522135" lon="8.259717"><ele>442.1428571428571</ele><time>2026-04-19T09:32:39.609Z</time></trkpt><trkpt lat="45.6522794" lon="8.2597103"><ele>441.57142857142856</ele><time>2026-04-19T09:32:42.609Z</time></trkpt><trkpt lat="45.6523639" lon="8.2597127"><ele>441.0</ele><time>2026-04-19T09:32:45.608Z</time></trkpt><trkpt lat="45.6524492" lon="8.2596935"><ele>441.0</ele><time>2026-04-19T09:32:47.608Z</time></trkpt><trkpt lat="45.6525583" lon="8.2596782"><ele>441.0</ele><time>2026-04-19T09:32:49.608Z</time></trkpt><trkpt lat="45.6526414" lon="8.2596996"><ele>441.0</ele><time>2026-04-19T09:32:51.609Z</time></trkpt><trkpt lat="45.6527547" lon="8.259744"><ele>441.0</ele><time>2026-04-19T09:32:53.608Z</time></trkpt><trkpt lat="45.6528542" lon="8.259696"><ele>441.0</ele><time>2026-04-19T09:32:55.609Z</time></trkpt><trkpt lat="45.6529003" lon="8.2596224"><ele>440.4</ele><time>2026-04-19T09:32:57.608Z</time></trkpt><trkpt lat="45.6529943" lon="8.2595833"><ele>439.8</ele><time>2026-04-19T09:32:59.609Z</time></trkpt><trkpt lat="45.6531092" lon="8.2595532"><ele>439.19999999999993</ele><time>2026-04-19T09:33:01.609Z</time></trkpt><trkpt lat="45.6531912" lon="8.259554"><ele>438.59999999999997</ele><time>2026-04-19T09:33:03.607Z</time></trkpt><trkpt lat="45.6532872" lon="8.2595658"><ele>438.0</ele><time>2026-04-19T09:33:05.609Z</time></trkpt><trkpt lat="45.6533697" lon="8.2595432"><ele>438.0</ele><time>2026-04-19T09:33:07.608Z</time></trkpt><trkpt lat="45.6534468" lon="8.2595441"><ele>438.0</ele><time>2026-04-19T09:33:09.608Z</time></trkpt><trkpt lat="45.6535295" lon="8.2595922"><ele>438.0</ele><time>2026-04-19T09:33:11.609Z</time></trkpt><trkpt lat="45.653608" lon="8.2596262"><ele>438.0</ele><time>2026-04-19T09:33:13.607Z</time></trkpt><trkpt lat="45.653703" lon="8.2595965"><ele>438.0</ele><time>2026-04-19T09:33:15.607Z</time></trkpt><trkpt lat="45.6537789" lon="8.2595268"><ele>438.0</ele><time>2026-04-19T09:33:17.608Z</time></trkpt><trkpt lat="45.6538377" lon="8.2594589"><ele>436.42857142857144</ele><time>2026-04-19T09:33:19.609Z</time></trkpt><trkpt lat="45.6538829" lon="8.2593935"><ele>434.85714285714283</ele><time>2026-04-19T09:33:21.608Z</time></trkpt><trkpt lat="45.6539414" lon="8.2593516"><ele>433.2857142857143</ele><time>2026-04-19T09:33:23.609Z</time></trkpt><trkpt lat="45.6540016" lon="8.2593001"><ele>431.7142857142857</ele><time>2026-04-19T09:33:25.609Z</time></trkpt><trkpt lat="45.6540705" lon="8.2592805"><ele>430.1428571428571</ele><time>2026-04-19T09:33:27.608Z</time></trkpt><trkpt lat="45.6541554" lon="8.2593184"><ele>428.57142857142856</ele><time>2026-04-19T09:33:30.609Z</time></trkpt><trkpt lat="45.6542133" lon="8.2593545"><ele>427.0</ele><time>2026-04-19T09:33:32.608Z</time></trkpt><trkpt lat="45.6542748" lon="8.2593945"><ele>427.00000000000006</ele><time>2026-04-19T09:33:34.607Z</time></trkpt><trkpt lat="45.6543359" lon="8.2594425"><ele>427.0</ele><time>2026-04-19T09:33:37.609Z</time></trkpt><trkpt lat="45.6544023" lon="8.2594795"><ele>427.0</ele><time>2026-04-19T09:33:46.609Z</time></trkpt><trkpt lat="45.6544969" lon="8.2594379"><ele>427.0</ele><time>2026-04-19T09:33:48.608Z</time></trkpt><trkpt lat="45.6545834" lon="8.2593834"><ele>427.00000000000006</ele><time>2026-04-19T09:33:50.608Z</time></trkpt><trkpt lat="45.6546819" lon="8.2593763"><ele>427.0</ele><time>2026-04-19T09:33:52.608Z</time></trkpt><trkpt lat="45.6547824" lon="8.2594121"><ele>430.8</ele><time>2026-04-19T09:33:54.608Z</time></trkpt><trkpt lat="45.6548437" lon="8.2594523"><ele>434.6</ele><time>2026-04-19T09:33:55.608Z</time></trkpt><trkpt lat="45.6549229" lon="8.2594571"><ele>438.40000000000003</ele><time>2026-04-19T09:33:57.609Z</time></trkpt><trkpt lat="45.6549544" lon="8.2593439"><ele>442.20000000000005</ele><time>2026-04-19T09:33:59.609Z</time></trkpt><trkpt lat="45.6549322" lon="8.2591757"><ele>446.0</ele><time>2026-04-19T09:34:01.609Z</time></trkpt><trkpt lat="45.6549303" lon="8.2590248"><ele>445.99999999999994</ele><time>2026-04-19T09:34:03.608Z</time></trkpt><trkpt lat="45.6549281" lon="8.2591375"><ele>446.0</ele><time>2026-04-19T09:34:29.608Z</time></trkpt><trkpt lat="45.6549422" lon="8.2592274"><ele>446.0</ele><time>2026-04-19T09:34:30.609Z</time></trkpt><trkpt lat="45.6549527" lon="8.2593803"><ele>446.0</ele><time>2026-04-19T09:34:32.609Z</time></trkpt><trkpt lat="45.654946" lon="8.2595056"><ele>445.99999999999994</ele><time>2026-04-19T09:34:35.608Z</time></trkpt><trkpt lat="45.6550226" lon="8.2595388"><ele>446.0</ele><time>2026-04-19T09:34:38.609Z</time></trkpt><trkpt lat="45.6550968" lon="8.2595036"><ele>445.99999999999994</ele><time>2026-04-19T09:34:40.608Z</time></trkpt><trkpt lat="45.6551921" lon="8.2594867"><ele>446.0</ele><time>2026-04-19T09:34:42.608Z</time></trkpt><trkpt lat="45.6552916" lon="8.2594561"><ele>446.0</ele><time>2026-04-19T09:34:44.609Z</time></trkpt><trkpt lat="45.6553739" lon="8.2594232"><ele>446.0</ele><time>2026-04-19T09:34:46.608Z</time></trkpt><trkpt lat="45.6554485" lon="8.2593792"><ele>445.99999999999994</ele><time>2026-04-19T09:34:48.608Z</time></trkpt><trkpt lat="45.6554962" lon="8.2593033"><ele>446.0</ele><time>2026-04-19T09:34:50.609Z</time></trkpt><trkpt lat="45.6555552" lon="8.2592351"><ele>451.16666666666663</ele><time>2026-04-19T09:34:53.608Z</time></trkpt><trkpt lat="45.6555963" lon="8.259145"><ele>456.3333333333333</ele><time>2026-04-19T09:34:55.608Z</time></trkpt><trkpt lat="45.655583" lon="8.2590536"><ele>461.5</ele><time>2026-04-19T09:34:57.609Z</time></trkpt><trkpt lat="45.6555253" lon="8.2589973"><ele>466.66666666666663</ele><time>2026-04-19T09:34:59.609Z</time></trkpt><trkpt lat="45.655473" lon="8.2589274"><ele>471.8333333333333</ele><time>2026-04-19T09:35:01.609Z</time></trkpt><trkpt lat="45.6554658" lon="8.2588044"><ele>477.0</ele><time>2026-04-19T09:35:03.609Z</time></trkpt><trkpt lat="45.6554881" lon="8.2586469"><ele>477.0</ele><time>2026-04-19T09:35:05.608Z</time></trkpt><trkpt lat="45.6555112" lon="8.2585039"><ele>477.00000000000006</ele><time>2026-04-19T09:35:07.608Z</time></trkpt><trkpt lat="45.6555244" lon="8.258372"><ele>477.00000000000006</ele><time>2026-04-19T09:35:09.609Z</time></trkpt><trkpt lat="45.6555707" lon="8.2582835"><ele>477.0</ele><time>2026-04-19T09:35:11.609Z</time></trkpt><trkpt lat="45.655644" lon="8.2582022"><ele>477.0</ele><time>2026-04-19T09:35:13.608Z</time></trkpt><trkpt lat="45.6557063" lon="8.2581027"><ele>477.0</ele><time>2026-04-19T09:35:15.609Z</time></trkpt><trkpt lat="45.6557592" lon="8.2580235"><ele>477.0</ele><time>2026-04-19T09:35:17.608Z</time></trkpt><trkpt lat="45.6558295" lon="8.2579892"><ele>477.0</ele><time>2026-04-19T09:35:19.607Z</time></trkpt><trkpt lat="45.6559088" lon="8.2580342"><ele>477.0</ele><time>2026-04-19T09:35:21.609Z</time></trkpt><trkpt lat="45.6559634" lon="8.258128"><ele>477.0</ele><time>2026-04-19T09:35:23.608Z</time></trkpt><trkpt lat="45.6560238" lon="8.2582032"><ele>477.0</ele><time>2026-04-19T09:35:24.608Z</time></trkpt><trkpt lat="45.6560939" lon="8.2582778"><ele>476.57142857142856</ele><time>2026-04-19T09:35:25.609Z</time></trkpt><trkpt lat="45.6561568" lon="8.2583463"><ele>476.1428571428571</ele><time>2026-04-19T09:35:26.609Z</time></trkpt><trkpt lat="45.6562195" lon="8.2584316"><ele>475.71428571428567</ele><time>2026-04-19T09:35:27.609Z</time></trkpt><trkpt lat="45.6562736" lon="8.2584981"><ele>475.2857142857142</ele><time>2026-04-19T09:35:28.608Z</time></trkpt><trkpt lat="45.6563208" lon="8.258567"><ele>474.85714285714283</ele><time>2026-04-19T09:35:29.608Z</time></trkpt><trkpt lat="45.6563652" lon="8.258634"><ele>474.42857142857133</ele><time>2026-04-19T09:35:30.607Z</time></trkpt><trkpt lat="45.656422" lon="8.2586833"><ele>473.99999999999994</ele><time>2026-04-19T09:35:31.609Z</time></trkpt><trkpt lat="45.6564785" lon="8.2587326"><ele>474.0</ele><time>2026-04-19T09:35:32.607Z</time></trkpt><trkpt lat="45.6565337" lon="8.2587808"><ele>474.0</ele><time>2026-04-19T09:35:33.608Z</time></trkpt><trkpt lat="45.6565832" lon="8.258837"><ele>474.0</ele><time>2026-04-19T09:35:34.608Z</time></trkpt><trkpt lat="45.6566781" lon="8.2589492"><ele>474.0</ele><time>2026-04-19T09:35:36.609Z</time></trkpt><trkpt lat="45.6567539" lon="8.2590708"><ele>474.0</ele><time>2026-04-19T09:35:38.608Z</time></trkpt><trkpt lat="45.6567869" lon="8.2591484"><ele>474.0</ele><time>2026-04-19T09:35:39.608Z</time></trkpt><trkpt lat="45.656825" lon="8.2592268"><ele>477.4</ele><time>2026-04-19T09:35:40.609Z</time></trkpt><trkpt lat="45.6568812" lon="8.2593165"><ele>480.79999999999995</ele><time>2026-04-19T09:35:42.607Z</time></trkpt><trkpt lat="45.6569714" lon="8.2593889"><ele>484.20000000000005</ele><time>2026-04-19T09:35:44.608Z</time></trkpt><trkpt lat="45.6570802" lon="8.2594338"><ele>487.6</ele><time>2026-04-19T09:35:46.609Z</time></trkpt><trkpt lat="45.6572013" lon="8.2594478"><ele>491.0</ele><time>2026-04-19T09:35:48.609Z</time></trkpt><trkpt lat="45.6573201" lon="8.2594273"><ele>492.6</ele><time>2026-04-19T09:35:50.608Z</time></trkpt><trkpt lat="45.6574204" lon="8.2594654"><ele>494.20000000000005</ele><time>2026-04-19T09:35:52.608Z</time></trkpt><trkpt lat="45.6575287" lon="8.2595699"><ele>495.79999999999995</ele><time>2026-04-19T09:35:54.609Z</time></trkpt><trkpt lat="45.657596" lon="8.2596147"><ele>497.4</ele><time>2026-04-19T09:35:55.608Z</time></trkpt><trkpt lat="45.65767" lon="8.2596483"><ele>499.0</ele><time>2026-04-19T09:35:56.608Z</time></trkpt><trkpt lat="45.6577436" lon="8.2596675"><ele>500.79999999999995</ele><time>2026-04-19T09:35:57.607Z</time></trkpt><trkpt lat="45.6578177" lon="8.2596788"><ele>502.59999999999997</ele><time>2026-04-19T09:35:58.609Z</time></trkpt><trkpt lat="45.6578996" lon="8.2597122"><ele>504.4</ele><time>2026-04-19T09:35:59.608Z</time></trkpt><trkpt lat="45.6579838" lon="8.2597389"><ele>506.2</ele><time>2026-04-19T09:36:00.608Z</time></trkpt><trkpt lat="45.658113" lon="8.2597918"><ele>508.0</ele><time>2026-04-19T09:36:02.608Z</time></trkpt><trkpt lat="45.6582177" lon="8.2598477"><ele>508.00000000000006</ele><time>2026-04-19T09:36:04.607Z</time></trkpt><trkpt lat="45.6583185" lon="8.2599556"><ele>508.0</ele><time>2026-04-19T09:36:06.607Z</time></trkpt><trkpt lat="45.6583676" lon="8.260023"><ele>508.0</ele><time>2026-04-19T09:36:07.608Z</time></trkpt><trkpt lat="45.6584185" lon="8.2600872"><ele>508.0</ele><time>2026-04-19T09:36:08.608Z</time></trkpt><trkpt lat="45.6584663" lon="8.260152"><ele>508.00000000000006</ele><time>2026-04-19T09:36:09.608Z</time></trkpt><trkpt lat="45.6585113" lon="8.260217"><ele>508.0</ele><time>2026-04-19T09:36:10.608Z</time></trkpt><trkpt lat="45.6585733" lon="8.2603558"><ele>508.0</ele><time>2026-04-19T09:36:12.607Z</time></trkpt><trkpt lat="45.658607" lon="8.2605058"><ele>507.99999999999994</ele><time>2026-04-19T09:36:14.607Z</time></trkpt><trkpt lat="45.6586264" lon="8.2606692"><ele>507.99999999999994</ele><time>2026-04-19T09:36:16.609Z</time></trkpt><trkpt lat="45.6586267" lon="8.2608256"><ele>508.0</ele><time>2026-04-19T09:36:18.607Z</time></trkpt><trkpt lat="45.6586105" lon="8.2609558"><ele>508.0</ele><time>2026-04-19T09:36:20.609Z</time></trkpt><trkpt lat="45.6586258" lon="8.2610644"><ele>508.0</ele><time>2026-04-19T09:36:22.608Z</time></trkpt><trkpt lat="45.6586785" lon="8.2611525"><ele>507.99999999999994</ele><time>2026-04-19T09:36:24.609Z</time></trkpt><trkpt lat="45.6587453" lon="8.2612578"><ele>507.99999999999994</ele><time>2026-04-19T09:36:26.608Z</time></trkpt><trkpt lat="45.6588332" lon="8.2614052"><ele>508.0</ele><time>2026-04-19T09:36:28.608Z</time></trkpt><trkpt lat="45.6588879" lon="8.2614736"><ele>508.0</ele><time>2026-04-19T09:36:29.608Z</time></trkpt><trkpt lat="45.6589512" lon="8.2615241"><ele>508.0</ele><time>2026-04-19T09:36:30.609Z</time></trkpt><trkpt lat="45.6590192" lon="8.2615526"><ele>507.99999999999994</ele><time>2026-04-19T09:36:31.608Z</time></trkpt><trkpt lat="45.6591364" lon="8.2615517"><ele>507.99999999999994</ele><time>2026-04-19T09:36:33.607Z</time></trkpt><trkpt lat="45.6592193" lon="8.2615468"><ele>508.0</ele><time>2026-04-19T09:36:35.608Z</time></trkpt><trkpt lat="45.659301" lon="8.2616049"><ele>508.0</ele><time>2026-04-19T09:36:37.609Z</time></trkpt><trkpt lat="45.6593961" lon="8.2617112"><ele>508.33333333333337</ele><time>2026-04-19T09:36:39.607Z</time></trkpt><trkpt lat="45.6594585" lon="8.2617516"><ele>508.6666666666667</ele><time>2026-04-19T09:36:40.608Z</time></trkpt><trkpt lat="45.6595225" lon="8.2617782"><ele>509.0</ele><time>2026-04-19T09:36:41.608Z</time></trkpt><trkpt lat="45.6595863" lon="8.2617967"><ele>509.33333333333337</ele><time>2026-04-19T09:36:42.607Z</time></trkpt><trkpt lat="45.659697" lon="8.2617574"><ele>509.6666666666667</ele><time>2026-04-19T09:36:44.607Z</time></trkpt><trkpt lat="45.6597405" lon="8.2616906"><ele>510.0</ele><time>2026-04-19T09:36:45.609Z</time></trkpt><trkpt lat="45.6598155" lon="8.2615908"><ele>510.0</ele><time>2026-04-19T09:36:47.608Z</time></trkpt><trkpt lat="45.6598891" lon="8.2615682"><ele>510.0</ele><time>2026-04-19T09:36:49.607Z</time></trkpt><trkpt lat="45.6599383" lon="8.26166"><ele>510.0</ele><time>2026-04-19T09:36:51.607Z</time></trkpt><trkpt lat="45.659957" lon="8.2617861"><ele>510.0</ele><time>2026-04-19T09:36:53.607Z</time></trkpt><trkpt lat="45.6599406" lon="8.2619688"><ele>510.0</ele><time>2026-04-19T09:36:55.608Z</time></trkpt><trkpt lat="45.6599578" lon="8.2621337"><ele>510.0</ele><time>2026-04-19T09:36:57.607Z</time></trkpt><trkpt lat="45.6600136" lon="8.2622719"><ele>510.0</ele><time>2026-04-19T09:36:59.608Z</time></trkpt><trkpt lat="45.6600665" lon="8.262334"><ele>510.0</ele><time>2026-04-19T09:37:00.608Z</time></trkpt><trkpt lat="45.6601254" lon="8.2623939"><ele>510.0</ele><time>2026-04-19T09:37:01.609Z</time></trkpt><trkpt lat="45.6601915" lon="8.2624419"><ele>510.0</ele><time>2026-04-19T09:37:02.608Z</time></trkpt><trkpt lat="45.6602484" lon="8.2624928"><ele>510.0</ele><time>2026-04-19T09:37:03.608Z</time></trkpt><trkpt lat="45.6603118" lon="8.2625431"><ele>511.4</ele><time>2026-04-19T09:37:04.608Z</time></trkpt><trkpt lat="45.6604154" lon="8.2625862"><ele>512.8</ele><time>2026-04-19T09:37:06.608Z</time></trkpt><trkpt lat="45.6605228" lon="8.2625529"><ele>514.2</ele><time>2026-04-19T09:37:08.608Z</time></trkpt><trkpt lat="45.660624" lon="8.2624918"><ele>515.6</ele><time>2026-04-19T09:37:10.608Z</time></trkpt><trkpt lat="45.6606895" lon="8.2623814"><ele>517.0</ele><time>2026-04-19T09:37:12.607Z</time></trkpt><trkpt lat="45.6607028" lon="8.2622385"><ele>517.0</ele><time>2026-04-19T09:37:14.608Z</time></trkpt><trkpt lat="45.6607159" lon="8.2621042"><ele>517.0</ele><time>2026-04-19T09:37:16.608Z</time></trkpt><trkpt lat="45.6607719" lon="8.2620123"><ele>517.0</ele><time>2026-04-19T09:37:18.607Z</time></trkpt><trkpt lat="45.6608662" lon="8.2619595"><ele>517.0</ele><time>2026-04-19T09:37:20.609Z</time></trkpt><trkpt lat="45.6609729" lon="8.261907"><ele>517.0</ele><time>2026-04-19T09:37:22.607Z</time></trkpt><trkpt lat="45.6610285" lon="8.2618596"><ele>517.0</ele><time>2026-04-19T09:37:23.607Z</time></trkpt><trkpt lat="45.6610841" lon="8.2618114"><ele>517.0</ele><time>2026-04-19T09:37:24.609Z</time></trkpt><trkpt lat="45.6611429" lon="8.2617769"><ele>517.0</ele><time>2026-04-19T09:37:25.608Z</time></trkpt><trkpt lat="45.6612612" lon="8.2617394"><ele>517.0</ele><time>2026-04-19T09:37:27.607Z</time></trkpt><trkpt lat="45.6613278" lon="8.2617024"><ele>517.0</ele><time>2026-04-19T09:37:28.608Z</time></trkpt><trkpt lat="45.661397" lon="8.2616665"><ele>517.0</ele><time>2026-04-19T09:37:29.607Z</time></trkpt><trkpt lat="45.6614743" lon="8.2615991"><ele>518.8333333333334</ele><time>2026-04-19T09:37:30.608Z</time></trkpt><trkpt lat="45.661552" lon="8.2615343"><ele>520.6666666666667</ele><time>2026-04-19T09:37:31.608Z</time></trkpt><trkpt lat="45.6616274" lon="8.2614669"><ele>522.5</ele><time>2026-04-19T09:37:32.608Z</time></trkpt><trkpt lat="45.6617022" lon="8.2614084"><ele>524.3333333333334</ele><time>2026-04-19T09:37:33.608Z</time></trkpt><trkpt lat="45.6617807" lon="8.2613532"><ele>526.1666666666666</ele><time>2026-04-19T09:37:34.607Z</time></trkpt><trkpt lat="45.661858" lon="8.2613106"><ele>528.0</ele><time>2026-04-19T09:37:35.607Z</time></trkpt><trkpt lat="45.661929" lon="8.2612607"><ele>529.5</ele><time>2026-04-19T09:37:36.607Z</time></trkpt><trkpt lat="45.6619924" lon="8.2611898"><ele>531.0</ele><time>2026-04-19T09:37:37.608Z</time></trkpt><trkpt lat="45.6620625" lon="8.2611065"><ele>532.5</ele><time>2026-04-19T09:37:38.607Z</time></trkpt><trkpt lat="45.6621322" lon="8.2610138"><ele>534.0</ele><time>2026-04-19T09:37:39.608Z</time></trkpt><trkpt lat="45.662182" lon="8.2609274"><ele>535.5</ele><time>2026-04-19T09:37:40.607Z</time></trkpt><trkpt lat="45.6622282" lon="8.2608419"><ele>537.0</ele><time>2026-04-19T09:37:41.608Z</time></trkpt><trkpt lat="45.6622697" lon="8.2607712"><ele>537.0</ele><time>2026-04-19T09:37:42.607Z</time></trkpt><trkpt lat="45.6623404" lon="8.2606595"><ele>537.0</ele><time>2026-04-19T09:37:44.607Z</time></trkpt><trkpt lat="45.6624286" lon="8.2605179"><ele>537.0</ele><time>2026-04-19T09:37:46.607Z</time></trkpt><trkpt lat="45.6624748" lon="8.2604444"><ele>537.0</ele><time>2026-04-19T09:37:47.608Z</time></trkpt><trkpt lat="45.6625429" lon="8.2603304"><ele>537.0</ele><time>2026-04-19T09:37:49.608Z</time></trkpt><trkpt lat="45.6626073" lon="8.2602723"><ele>537.0</ele><time>2026-04-19T09:38:02.608Z</time></trkpt><trkpt lat="45.6626974" lon="8.2602403"><ele>537.0</ele><time>2026-04-19T09:38:04.608Z</time></trkpt><trkpt lat="45.662764" lon="8.2602207"><ele>537.0</ele><time>2026-04-19T09:38:05.607Z</time></trkpt><trkpt lat="45.6628393" lon="8.2601925"><ele>537.0</ele><time>2026-04-19T09:38:06.606Z</time></trkpt><trkpt lat="45.662921" lon="8.2601572"><ele>537.0</ele><time>2026-04-19T09:38:07.607Z</time></trkpt><trkpt lat="45.6630068" lon="8.2601182"><ele>537.0</ele><time>2026-04-19T09:38:08.606Z</time></trkpt><trkpt lat="45.6630996" lon="8.260078"><ele>537.2</ele><time>2026-04-19T09:38:09.608Z</time></trkpt><trkpt lat="45.6632079" lon="8.2600378"><ele>537.4000000000001</ele><time>2026-04-19T09:38:10.608Z</time></trkpt><trkpt lat="45.6633069" lon="8.259998"><ele>537.5999999999999</ele><time>2026-04-19T09:38:11.608Z</time></trkpt><trkpt lat="45.6634074" lon="8.2599522"><ele>537.8</ele><time>2026-04-19T09:38:12.608Z</time></trkpt><trkpt lat="45.6634987" lon="8.2599171"><ele>538.0</ele><time>2026-04-19T09:38:13.606Z</time></trkpt><trkpt lat="45.6635892" lon="8.259893"><ele>539.0</ele><time>2026-04-19T09:38:14.608Z</time></trkpt><trkpt lat="45.6636664" lon="8.2598682"><ele>540.0</ele><time>2026-04-19T09:38:15.607Z</time></trkpt><trkpt lat="45.663741" lon="8.2598236"><ele>541.0</ele><time>2026-04-19T09:38:16.608Z</time></trkpt><trkpt lat="45.6638066" lon="8.2597607"><ele>542.0</ele><time>2026-04-19T09:38:17.608Z</time></trkpt><trkpt lat="45.663859" lon="8.2596866"><ele>543.0</ele><time>2026-04-19T09:38:18.608Z</time></trkpt><trkpt lat="45.6639439" lon="8.2596149"><ele>544.0</ele><time>2026-04-19T09:38:20.608Z</time></trkpt><trkpt lat="45.6640642" lon="8.2595611"><ele>544.0</ele><time>2026-04-19T09:38:22.608Z</time></trkpt><trkpt lat="45.6641246" lon="8.2595115"><ele>544.0</ele><time>2026-04-19T09:38:23.608Z</time></trkpt><trkpt lat="45.6641854" lon="8.2594732"><ele>544.0</ele><time>2026-04-19T09:38:24.608Z</time></trkpt><trkpt lat="45.6642481" lon="8.259442"><ele>544.0</ele><time>2026-04-19T09:38:25.607Z</time></trkpt><trkpt lat="45.6643608" lon="8.2594288"><ele>544.0</ele><time>2026-04-19T09:38:27.609Z</time></trkpt><trkpt lat="45.6644852" lon="8.2594055"><ele>544.0</ele><time>2026-04-19T09:38:29.608Z</time></trkpt><trkpt lat="45.6646073" lon="8.2593358"><ele>545.2</ele><time>2026-04-19T09:38:31.608Z</time></trkpt><trkpt lat="45.6646699" lon="8.2592895"><ele>546.4</ele><time>2026-04-19T09:38:32.607Z</time></trkpt><trkpt lat="45.6647374" lon="8.2592418"><ele>547.6</ele><time>2026-04-19T09:38:33.608Z</time></trkpt><trkpt lat="45.6648422" lon="8.2591456"><ele>548.8</ele><time>2026-04-19T09:38:35.606Z</time></trkpt><trkpt lat="45.6648902" lon="8.2590844"><ele>550.0</ele><time>2026-04-19T09:38:36.608Z</time></trkpt><trkpt lat="45.6649536" lon="8.2589382"><ele>550.4</ele><time>2026-04-19T09:38:38.608Z</time></trkpt><trkpt lat="45.6649731" lon="8.2587658"><ele>550.8</ele><time>2026-04-19T09:38:40.608Z</time></trkpt><trkpt lat="45.6649677" lon="8.2585841"><ele>551.2</ele><time>2026-04-19T09:38:42.607Z</time></trkpt><trkpt lat="45.6649618" lon="8.2584708"><ele>551.6</ele><time>2026-04-19T09:38:43.608Z</time></trkpt><trkpt lat="45.6649628" lon="8.2583502"><ele>552.0</ele><time>2026-04-19T09:38:44.608Z</time></trkpt><trkpt lat="45.6649723" lon="8.2582311"><ele>552.8333333333334</ele><time>2026-04-19T09:38:45.606Z</time></trkpt><trkpt lat="45.6649814" lon="8.2581167"><ele>553.6666666666666</ele><time>2026-04-19T09:38:46.608Z</time></trkpt><trkpt lat="45.6649799" lon="8.2580001"><ele>554.5</ele><time>2026-04-19T09:38:47.608Z</time></trkpt><trkpt lat="45.6649642" lon="8.2578975"><ele>555.3333333333333</ele><time>2026-04-19T09:38:48.608Z</time></trkpt><trkpt lat="45.664934" lon="8.2578081"><ele>556.1666666666666</ele><time>2026-04-19T09:38:49.608Z</time></trkpt><trkpt lat="45.6648833" lon="8.2577404"><ele>557.0</ele><time>2026-04-19T09:38:50.608Z</time></trkpt><trkpt lat="45.6647625" lon="8.257678"><ele>557.0</ele><time>2026-04-19T09:38:52.608Z</time></trkpt><trkpt lat="45.6646844" lon="8.2576544"><ele>557.0</ele><time>2026-04-19T09:38:53.607Z</time></trkpt><trkpt lat="45.6646035" lon="8.2576213"><ele>557.0</ele><time>2026-04-19T09:38:54.608Z</time></trkpt><trkpt lat="45.6645229" lon="8.2575889"><ele>557.0</ele><time>2026-04-19T09:38:55.606Z</time></trkpt><trkpt lat="45.6644602" lon="8.2575341"><ele>557.0</ele><time>2026-04-19T09:38:56.608Z</time></trkpt><trkpt lat="45.6643786" lon="8.2574584"><ele>557.0</ele><time>2026-04-19T09:38:58.608Z</time></trkpt><trkpt lat="45.6643862" lon="8.2573413"><ele>554.1666666666666</ele><time>2026-04-19T09:39:01.607Z</time></trkpt><trkpt lat="45.6644771" lon="8.2572551"><ele>551.3333333333333</ele><time>2026-04-19T09:39:03.607Z</time></trkpt><trkpt lat="45.6645358" lon="8.2571963"><ele>548.5</ele><time>2026-04-19T09:39:04.608Z</time></trkpt><trkpt lat="45.664605" lon="8.2571431"><ele>545.6666666666666</ele><time>2026-04-19T09:39:05.608Z</time></trkpt><trkpt lat="45.6646755" lon="8.2570973"><ele>542.8333333333334</ele><time>2026-04-19T09:39:06.606Z</time></trkpt><trkpt lat="45.6647424" lon="8.2570667"><ele>540.0</ele><time>2026-04-19T09:39:07.607Z</time></trkpt><trkpt lat="45.664805" lon="8.2570521"><ele>540.0</ele><time>2026-04-19T09:39:08.608Z</time></trkpt><trkpt lat="45.664872" lon="8.2570521"><ele>540.0</ele><time>2026-04-19T09:39:09.608Z</time></trkpt><trkpt lat="45.6649514" lon="8.2570601"><ele>540.0</ele><time>2026-04-19T09:39:10.607Z</time></trkpt><trkpt lat="45.6650341" lon="8.2570728"><ele>540.0</ele><time>2026-04-19T09:39:11.608Z</time></trkpt><trkpt lat="45.6651051" lon="8.2570656"><ele>540.0</ele><time>2026-04-19T09:39:12.607Z</time></trkpt><trkpt lat="45.6651787" lon="8.2570597"><ele>540.0</ele><time>2026-04-19T09:39:13.607Z</time></trkpt><trkpt lat="45.6652366" lon="8.2570025"><ele>540.0</ele><time>2026-04-19T09:39:14.607Z</time></trkpt><trkpt lat="45.6653006" lon="8.2569599"><ele>541.8333333333334</ele><time>2026-04-19T09:39:15.607Z</time></trkpt><trkpt lat="45.665366" lon="8.256885"><ele>543.6666666666666</ele><time>2026-04-19T09:39:16.607Z</time></trkpt><trkpt lat="45.6654227" lon="8.2568088"><ele>545.5</ele><time>2026-04-19T09:39:17.607Z</time></trkpt><trkpt lat="45.6654797" lon="8.2567332"><ele>547.3333333333333</ele><time>2026-04-19T09:39:18.608Z</time></trkpt><trkpt lat="45.6655332" lon="8.2566643"><ele>549.1666666666666</ele><time>2026-04-19T09:39:19.608Z</time></trkpt><trkpt lat="45.6655904" lon="8.256599"><ele>551.0</ele><time>2026-04-19T09:39:20.607Z</time></trkpt><trkpt lat="45.6656452" lon="8.2565327"><ele>551.0</ele><time>2026-04-19T09:39:21.608Z</time></trkpt><trkpt lat="45.6656943" lon="8.2564616"><ele>551.0</ele><time>2026-04-19T09:39:22.608Z</time></trkpt><trkpt lat="45.6657604" lon="8.2563145"><ele>551.0</ele><time>2026-04-19T09:39:24.608Z</time></trkpt><trkpt lat="45.6657939" lon="8.2562275"><ele>551.0</ele><time>2026-04-19T09:39:25.608Z</time></trkpt><trkpt lat="45.6658286" lon="8.2561411"><ele>551.0</ele><time>2026-04-19T09:39:26.606Z</time></trkpt><trkpt lat="45.6658622" lon="8.2560437"><ele>551.0</ele><time>2026-04-19T09:39:27.608Z</time></trkpt><trkpt lat="45.6658725" lon="8.2559477"><ele>550.1666666666666</ele><time>2026-04-19T09:39:28.607Z</time></trkpt><trkpt lat="45.6658758" lon="8.2558464"><ele>549.3333333333333</ele><time>2026-04-19T09:39:29.608Z</time></trkpt><trkpt lat="45.6658744" lon="8.2557446"><ele>548.5</ele><time>2026-04-19T09:39:30.608Z</time></trkpt><trkpt lat="45.6658588" lon="8.2556565"><ele>547.6666666666666</ele><time>2026-04-19T09:39:31.607Z</time></trkpt><trkpt lat="45.665779" lon="8.2555001"><ele>546.8333333333334</ele><time>2026-04-19T09:39:33.608Z</time></trkpt><trkpt lat="45.6657228" lon="8.2554331"><ele>546.0</ele><time>2026-04-19T09:39:34.606Z</time></trkpt><trkpt lat="45.6656729" lon="8.255364"><ele>546.0</ele><time>2026-04-19T09:39:35.607Z</time></trkpt><trkpt lat="45.6656315" lon="8.2552961"><ele>546.0</ele><time>2026-04-19T09:39:36.607Z</time></trkpt><trkpt lat="45.6655918" lon="8.2552158"><ele>546.0</ele><time>2026-04-19T09:39:37.607Z</time></trkpt><trkpt lat="45.6655588" lon="8.2551212"><ele>546.0</ele><time>2026-04-19T09:39:38.608Z</time></trkpt><trkpt lat="45.6655258" lon="8.2550256"><ele>546.0</ele><time>2026-04-19T09:39:39.608Z</time></trkpt><trkpt lat="45.6654935" lon="8.2549338"><ele>546.0</ele><time>2026-04-19T09:39:40.608Z</time></trkpt><trkpt lat="45.6654582" lon="8.2548525"><ele>546.0</ele><time>2026-04-19T09:39:41.607Z</time></trkpt><trkpt lat="45.6654108" lon="8.2547259"><ele>544.5</ele><time>2026-04-19T09:39:43.608Z</time></trkpt><trkpt lat="45.6654181" lon="8.2546163"><ele>543.0</ele><time>2026-04-19T09:39:45.607Z</time></trkpt><trkpt lat="45.6654991" lon="8.254549"><ele>541.5</ele><time>2026-04-19T09:39:47.606Z</time></trkpt><trkpt lat="45.6655703" lon="8.2545284"><ele>540.0</ele><time>2026-04-19T09:39:48.608Z</time></trkpt><trkpt lat="45.6656434" lon="8.2545045"><ele>538.5</ele><time>2026-04-19T09:39:49.608Z</time></trkpt><trkpt lat="45.6657272" lon="8.2544699"><ele>537.0</ele><time>2026-04-19T09:39:50.608Z</time></trkpt><trkpt lat="45.6658011" lon="8.2544265"><ele>537.0</ele><time>2026-04-19T09:39:51.608Z</time></trkpt><trkpt lat="45.6658817" lon="8.2543779"><ele>537.0</ele><time>2026-04-19T09:39:52.608Z</time></trkpt><trkpt lat="45.665964" lon="8.2543378"><ele>537.0</ele><time>2026-04-19T09:39:53.607Z</time></trkpt><trkpt lat="45.6660521" lon="8.2543064"><ele>537.0</ele><time>2026-04-19T09:39:54.608Z</time></trkpt><trkpt lat="45.6661491" lon="8.254263"><ele>537.0</ele><time>2026-04-19T09:39:55.608Z</time></trkpt><trkpt lat="45.6662419" lon="8.2542274"><ele>536.6</ele><time>2026-04-19T09:39:56.608Z</time></trkpt><trkpt lat="45.6663275" lon="8.25418"><ele>536.2</ele><time>2026-04-19T09:39:57.606Z</time></trkpt><trkpt lat="45.6664013" lon="8.2541315"><ele>535.8</ele><time>2026-04-19T09:39:58.607Z</time></trkpt><trkpt lat="45.6664583" lon="8.254076"><ele>535.4</ele><time>2026-04-19T09:39:59.608Z</time></trkpt><trkpt lat="45.666536" lon="8.2539437"><ele>535.0</ele><time>2026-04-19T09:40:01.608Z</time></trkpt><trkpt lat="45.6665911" lon="8.2538393"><ele>533.6666666666667</ele><time>2026-04-19T09:40:03.608Z</time></trkpt><trkpt lat="45.6666552" lon="8.2538085"><ele>532.3333333333334</ele><time>2026-04-19T09:40:05.607Z</time></trkpt><trkpt lat="45.6667337" lon="8.2538463"><ele>531.0</ele><time>2026-04-19T09:40:07.607Z</time></trkpt><trkpt lat="45.6668299" lon="8.2538789"><ele>529.6666666666666</ele><time>2026-04-19T09:40:09.607Z</time></trkpt><trkpt lat="45.666919" lon="8.2538885"><ele>528.3333333333333</ele><time>2026-04-19T09:40:11.608Z</time></trkpt><trkpt lat="45.6670166" lon="8.2538831"><ele>527.0</ele><time>2026-04-19T09:40:13.608Z</time></trkpt><trkpt lat="45.667078" lon="8.2538607"><ele>526.3333333333333</ele><time>2026-04-19T09:40:14.608Z</time></trkpt><trkpt lat="45.667208" lon="8.2538177"><ele>525.6666666666666</ele><time>2026-04-19T09:40:16.608Z</time></trkpt><trkpt lat="45.6672853" lon="8.253783"><ele>525.0</ele><time>2026-04-19T09:40:17.606Z</time></trkpt><trkpt lat="45.6673563" lon="8.2537537"><ele>524.3333333333334</ele><time>2026-04-19T09:40:18.608Z</time></trkpt><trkpt lat="45.6674227" lon="8.2537163"><ele>523.6666666666667</ele><time>2026-04-19T09:40:19.608Z</time></trkpt><trkpt lat="45.6674848" lon="8.2536777"><ele>523.0</ele><time>2026-04-19T09:40:20.607Z</time></trkpt><trkpt lat="45.667544" lon="8.2536374"><ele>523.0</ele><time>2026-04-19T09:40:21.607Z</time></trkpt><trkpt lat="45.6675903" lon="8.2535744"><ele>523.0</ele><time>2026-04-19T09:40:22.608Z</time></trkpt><trkpt lat="45.66762" lon="8.253413"><ele>523.0</ele><time>2026-04-19T09:40:24.608Z</time></trkpt><trkpt lat="45.6676139" lon="8.2533143"><ele>523.0</ele><time>2026-04-19T09:40:25.608Z</time></trkpt><trkpt lat="45.6676255" lon="8.2532149"><ele>523.0</ele><time>2026-04-19T09:40:26.607Z</time></trkpt><trkpt lat="45.6676487" lon="8.2531134"><ele>523.0</ele><time>2026-04-19T09:40:27.607Z</time></trkpt><trkpt lat="45.667683" lon="8.2530211"><ele>522.8571428571428</ele><time>2026-04-19T09:40:28.608Z</time></trkpt><trkpt lat="45.6677182" lon="8.2529384"><ele>522.7142857142857</ele><time>2026-04-19T09:40:29.608Z</time></trkpt><trkpt lat="45.667753" lon="8.252857"><ele>522.5714285714286</ele><time>2026-04-19T09:40:30.608Z</time></trkpt><trkpt lat="45.6677783" lon="8.2527675"><ele>522.4285714285713</ele><time>2026-04-19T09:40:31.608Z</time></trkpt><trkpt lat="45.6678044" lon="8.2526684"><ele>522.2857142857142</ele><time>2026-04-19T09:40:32.608Z</time></trkpt><trkpt lat="45.6678362" lon="8.2525676"><ele>522.1428571428571</ele><time>2026-04-19T09:40:33.608Z</time></trkpt><trkpt lat="45.6678723" lon="8.2524815"><ele>522.0</ele><time>2026-04-19T09:40:34.608Z</time></trkpt><trkpt lat="45.6679179" lon="8.2523848"><ele>524.0</ele><time>2026-04-19T09:40:35.607Z</time></trkpt><trkpt lat="45.667951" lon="8.2522974"><ele>526.0</ele><time>2026-04-19T09:40:36.607Z</time></trkpt><trkpt lat="45.6679749" lon="8.2521956"><ele>528.0</ele><time>2026-04-19T09:40:37.606Z</time></trkpt><trkpt lat="45.6679902" lon="8.2520968"><ele>530.0</ele><time>2026-04-19T09:40:38.607Z</time></trkpt><trkpt lat="45.667991" lon="8.2520003"><ele>532.0</ele><time>2026-04-19T09:40:39.607Z</time></trkpt><trkpt lat="45.6680057" lon="8.2518805"><ele>534.0</ele><time>2026-04-19T09:40:41.607Z</time></trkpt><trkpt lat="45.6680646" lon="8.2518179"><ele>536.0</ele><time>2026-04-19T09:40:43.608Z</time></trkpt><trkpt lat="45.6681647" lon="8.2518053"><ele>536.3333333333333</ele><time>2026-04-19T09:40:45.608Z</time></trkpt><trkpt lat="45.6682603" lon="8.2518097"><ele>536.6666666666666</ele><time>2026-04-19T09:40:46.607Z</time></trkpt><trkpt lat="45.6683656" lon="8.2518175"><ele>537.0</ele><time>2026-04-19T09:40:47.607Z</time></trkpt><trkpt lat="45.6684588" lon="8.2518264"><ele>537.3333333333334</ele><time>2026-04-19T09:40:48.606Z</time></trkpt><trkpt lat="45.668537" lon="8.2518372"><ele>537.6666666666667</ele><time>2026-04-19T09:40:49.608Z</time></trkpt><trkpt lat="45.6686083" lon="8.2518274"><ele>538.0</ele><time>2026-04-19T09:40:50.608Z</time></trkpt><trkpt lat="45.6686707" lon="8.2517957"><ele>536.7142857142858</ele><time>2026-04-19T09:40:51.607Z</time></trkpt><trkpt lat="45.6687246" lon="8.2517481"><ele>535.4285714285714</ele><time>2026-04-19T09:40:52.608Z</time></trkpt><trkpt lat="45.668791" lon="8.2516904"><ele>534.1428571428571</ele><time>2026-04-19T09:40:53.608Z</time></trkpt><trkpt lat="45.6688515" lon="8.2516269"><ele>532.8571428571429</ele><time>2026-04-19T09:40:54.607Z</time></trkpt><trkpt lat="45.6689135" lon="8.2515575"><ele>531.5714285714286</ele><time>2026-04-19T09:40:55.608Z</time></trkpt><trkpt lat="45.6689731" lon="8.2514845"><ele>530.2857142857143</ele><time>2026-04-19T09:40:56.608Z</time></trkpt><trkpt lat="45.6690298" lon="8.2514136"><ele>529.0</ele><time>2026-04-19T09:40:57.608Z</time></trkpt><trkpt lat="45.6690778" lon="8.2513439"><ele>529.0</ele><time>2026-04-19T09:40:58.607Z</time></trkpt><trkpt lat="45.6691548" lon="8.251221"><ele>529.0</ele><time>2026-04-19T09:41:00.608Z</time></trkpt><trkpt lat="45.6691743" lon="8.2510817"><ele>529.0</ele><time>2026-04-19T09:41:02.607Z</time></trkpt><trkpt lat="45.6691633" lon="8.2509919"><ele>529.0</ele><time>2026-04-19T09:41:03.608Z</time></trkpt><trkpt lat="45.6691296" lon="8.2508253"><ele>529.0</ele><time>2026-04-19T09:41:05.607Z</time></trkpt><trkpt lat="45.6690737" lon="8.2506992"><ele>527.8333333333334</ele><time>2026-04-19T09:41:07.608Z</time></trkpt><trkpt lat="45.6689965" lon="8.2505673"><ele>526.6666666666667</ele><time>2026-04-19T09:41:09.608Z</time></trkpt><trkpt lat="45.6689458" lon="8.2504985"><ele>525.5</ele><time>2026-04-19T09:41:10.608Z</time></trkpt><trkpt lat="45.6688857" lon="8.2504325"><ele>524.3333333333334</ele><time>2026-04-19T09:41:11.608Z</time></trkpt><trkpt lat="45.6688272" lon="8.2503513"><ele>523.1666666666666</ele><time>2026-04-19T09:41:12.607Z</time></trkpt><trkpt lat="45.6687825" lon="8.2502682"><ele>522.0</ele><time>2026-04-19T09:41:13.608Z</time></trkpt><trkpt lat="45.6687493" lon="8.250174"><ele>522.0</ele><time>2026-04-19T09:41:14.607Z</time></trkpt><trkpt lat="45.6687234" lon="8.2500711"><ele>522.0</ele><time>2026-04-19T09:41:15.606Z</time></trkpt><trkpt lat="45.6687017" lon="8.2499378"><ele>522.0</ele><time>2026-04-19T09:41:16.607Z</time></trkpt><trkpt lat="45.6686821" lon="8.2498204"><ele>522.0</ele><time>2026-04-19T09:41:17.608Z</time></trkpt><trkpt lat="45.6686521" lon="8.2497312"><ele>522.0</ele><time>2026-04-19T09:41:18.607Z</time></trkpt><trkpt lat="45.6686054" lon="8.2496467"><ele>522.0</ele><time>2026-04-19T09:41:19.608Z</time></trkpt><trkpt lat="45.6685428" lon="8.2495032"><ele>524.0</ele><time>2026-04-19T09:41:21.606Z</time></trkpt><trkpt lat="45.6685312" lon="8.2493209"><ele>526.0</ele><time>2026-04-19T09:41:23.608Z</time></trkpt><trkpt lat="45.6685205" lon="8.2491832"><ele>528.0</ele><time>2026-04-19T09:41:24.608Z</time></trkpt><trkpt lat="45.6685009" lon="8.2490375"><ele>530.0</ele><time>2026-04-19T09:41:25.608Z</time></trkpt><trkpt lat="45.6684748" lon="8.2489152"><ele>532.0</ele><time>2026-04-19T09:41:26.606Z</time></trkpt><trkpt lat="45.6684583" lon="8.2488097"><ele>532.0</ele><time>2026-04-19T09:41:27.608Z</time></trkpt><trkpt lat="45.6684721" lon="8.2486419"><ele>532.0</ele><time>2026-04-19T09:41:29.607Z</time></trkpt><trkpt lat="45.6685217" lon="8.2485097"><ele>532.0</ele><time>2026-04-19T09:41:31.607Z</time></trkpt><trkpt lat="45.6686269" lon="8.2484229"><ele>532.0</ele><time>2026-04-19T09:41:33.606Z</time></trkpt><trkpt lat="45.6687064" lon="8.248298"><ele>529.7142857142857</ele><time>2026-04-19T09:41:35.608Z</time></trkpt><trkpt lat="45.6687343" lon="8.2482011"><ele>527.4285714285714</ele><time>2026-04-19T09:41:36.608Z</time></trkpt><trkpt lat="45.6687534" lon="8.2481026"><ele>525.1428571428571</ele><time>2026-04-19T09:41:37.608Z</time></trkpt><trkpt lat="45.6687553" lon="8.2480029"><ele>522.8571428571429</ele><time>2026-04-19T09:41:38.608Z</time></trkpt><trkpt lat="45.6687531" lon="8.2479035"><ele>520.5714285714286</ele><time>2026-04-19T09:41:39.607Z</time></trkpt><trkpt lat="45.6687481" lon="8.2477971"><ele>518.2857142857142</ele><time>2026-04-19T09:41:40.608Z</time></trkpt><trkpt lat="45.6687294" lon="8.2476858"><ele>516.0</ele><time>2026-04-19T09:41:41.608Z</time></trkpt><trkpt lat="45.6687063" lon="8.2475727"><ele>516.0</ele><time>2026-04-19T09:41:42.608Z</time></trkpt><trkpt lat="45.668661" lon="8.2474791"><ele>516.0</ele><time>2026-04-19T09:41:43.607Z</time></trkpt><trkpt lat="45.6686097" lon="8.2473937"><ele>516.0</ele><time>2026-04-19T09:41:44.607Z</time></trkpt><trkpt lat="45.6685556" lon="8.2472939"><ele>516.0</ele><time>2026-04-19T09:41:45.607Z</time></trkpt><trkpt lat="45.6685031" lon="8.2471909"><ele>516.0</ele><time>2026-04-19T09:41:46.607Z</time></trkpt><trkpt lat="45.6684502" lon="8.2470755"><ele>516.0</ele><time>2026-04-19T09:41:47.607Z</time></trkpt><trkpt lat="45.6684036" lon="8.2469584"><ele>521.25</ele><time>2026-04-19T09:41:48.607Z</time></trkpt><trkpt lat="45.6683379" lon="8.2468235"><ele>526.5</ele><time>2026-04-19T09:41:49.608Z</time></trkpt><trkpt lat="45.6682564" lon="8.2466607"><ele>531.75</ele><time>2026-04-19T09:41:50.608Z</time></trkpt><trkpt lat="45.66818" lon="8.2465081"><ele>537.0</ele><time>2026-04-19T09:41:51.608Z</time></trkpt><trkpt lat="45.6680992" lon="8.2463817"><ele>538.3333333333334</ele><time>2026-04-19T09:41:52.608Z</time></trkpt><trkpt lat="45.6680217" lon="8.24628"><ele>539.6666666666666</ele><time>2026-04-19T09:41:53.607Z</time></trkpt><trkpt lat="45.6679599" lon="8.2461948"><ele>541.0</ele><time>2026-04-19T09:41:54.608Z</time></trkpt><trkpt lat="45.6679188" lon="8.2461064"><ele>542.3333333333333</ele><time>2026-04-19T09:41:55.608Z</time></trkpt><trkpt lat="45.6678792" lon="8.2460284"><ele>543.6666666666666</ele><time>2026-04-19T09:41:56.607Z</time></trkpt><trkpt lat="45.6678312" lon="8.245959"><ele>545.0</ele><time>2026-04-19T09:41:57.607Z</time></trkpt><trkpt lat="45.6677477" lon="8.245944"><ele>547.5</ele><time>2026-04-19T09:41:59.606Z</time></trkpt><trkpt lat="45.6676178" lon="8.245985"><ele>550.0</ele><time>2026-04-19T09:42:01.607Z</time></trkpt><trkpt lat="45.6675445" lon="8.2460032"><ele>552.5</ele><time>2026-04-19T09:42:02.607Z</time></trkpt><trkpt lat="45.6674846" lon="8.2460401"><ele>555.0</ele><time>2026-04-19T09:42:03.607Z</time></trkpt><trkpt lat="45.6674301" lon="8.2460954"><ele>557.5</ele><time>2026-04-19T09:42:04.608Z</time></trkpt><trkpt lat="45.6673443" lon="8.2461939"><ele>560.0</ele><time>2026-04-19T09:42:06.606Z</time></trkpt><trkpt lat="45.6672567" lon="8.2462285"><ele>560.0</ele><time>2026-04-19T09:42:08.608Z</time></trkpt><trkpt lat="45.6671682" lon="8.2461497"><ele>560.0</ele><time>2026-04-19T09:42:10.607Z</time></trkpt><trkpt lat="45.6670853" lon="8.2460445"><ele>560.0</ele><time>2026-04-19T09:42:12.608Z</time></trkpt><trkpt lat="45.6670199" lon="8.2459201"><ele>560.0</ele><time>2026-04-19T09:42:14.607Z</time></trkpt><trkpt lat="45.6670027" lon="8.2458115"><ele>560.0</ele><time>2026-04-19T09:42:16.606Z</time></trkpt><trkpt lat="45.6670273" lon="8.2457018"><ele>563.6</ele><time>2026-04-19T09:42:18.608Z</time></trkpt><trkpt lat="45.6671061" lon="8.2456097"><ele>567.2</ele><time>2026-04-19T09:42:20.606Z</time></trkpt><trkpt lat="45.6671904" lon="8.2455293"><ele>570.8</ele><time>2026-04-19T09:42:22.606Z</time></trkpt><trkpt lat="45.6672698" lon="8.2454418"><ele>574.4</ele><time>2026-04-19T09:42:24.606Z</time></trkpt><trkpt lat="45.667315" lon="8.2453322"><ele>578.0</ele><time>2026-04-19T09:42:26.608Z</time></trkpt><trkpt lat="45.6673288" lon="8.2451872"><ele>578.0</ele><time>2026-04-19T09:42:28.608Z</time></trkpt><trkpt lat="45.6673515" lon="8.2450605"><ele>578.0</ele><time>2026-04-19T09:42:30.607Z</time></trkpt><trkpt lat="45.6673891" lon="8.2449405"><ele>578.0</ele><time>2026-04-19T09:42:32.607Z</time></trkpt><trkpt lat="45.6674101" lon="8.2448108"><ele>578.0</ele><time>2026-04-19T09:42:34.608Z</time></trkpt><trkpt lat="45.6674382" lon="8.2447184"><ele>578.0</ele><time>2026-04-19T09:42:36.606Z</time></trkpt><trkpt lat="45.6675073" lon="8.2447351"><ele>578.0</ele><time>2026-04-19T09:42:38.608Z</time></trkpt><trkpt lat="45.6675832" lon="8.2448501"><ele>578.0</ele><time>2026-04-19T09:42:40.607Z</time></trkpt><trkpt lat="45.6676404" lon="8.2449696"><ele>578.0</ele><time>2026-04-19T09:42:42.606Z</time></trkpt><trkpt lat="45.6676989" lon="8.2450253"><ele>578.0</ele><time>2026-04-19T09:42:44.607Z</time></trkpt><trkpt lat="45.6677665" lon="8.2449727"><ele>578.0</ele><time>2026-04-19T09:42:47.608Z</time></trkpt><trkpt lat="45.667725" lon="8.2448785"><ele>578.0</ele><time>2026-04-19T09:42:53.606Z</time></trkpt><trkpt lat="45.6677154" lon="8.2447784"><ele>578.0</ele><time>2026-04-19T09:42:55.608Z</time></trkpt><trkpt lat="45.6677216" lon="8.2446455"><ele>579.6666666666666</ele><time>2026-04-19T09:42:58.607Z</time></trkpt><trkpt lat="45.667742" lon="8.2445185"><ele>581.3333333333333</ele><time>2026-04-19T09:43:00.607Z</time></trkpt><trkpt lat="45.6677601" lon="8.2443768"><ele>583.0</ele><time>2026-04-19T09:43:02.606Z</time></trkpt><trkpt lat="45.6677643" lon="8.2442242"><ele>584.6666666666666</ele><time>2026-04-19T09:43:04.607Z</time></trkpt><trkpt lat="45.6677631" lon="8.2441304"><ele>586.3333333333334</ele><time>2026-04-19T09:43:05.608Z</time></trkpt><trkpt lat="45.6677619" lon="8.2440226"><ele>588.0</ele><time>2026-04-19T09:43:06.607Z</time></trkpt><trkpt lat="45.6677394" lon="8.2438582"><ele>588.6666666666666</ele><time>2026-04-19T09:43:08.606Z</time></trkpt><trkpt lat="45.6677108" lon="8.2437776"><ele>589.3333333333334</ele><time>2026-04-19T09:43:09.607Z</time></trkpt><trkpt lat="45.6676723" lon="8.2436839"><ele>590.0</ele><time>2026-04-19T09:43:10.608Z</time></trkpt><trkpt lat="45.6676264" lon="8.2435693"><ele>590.6666666666667</ele><time>2026-04-19T09:43:11.607Z</time></trkpt><trkpt lat="45.6675774" lon="8.2434586"><ele>591.3333333333334</ele><time>2026-04-19T09:43:12.607Z</time></trkpt><trkpt lat="45.6675331" lon="8.2433456"><ele>592.0</ele><time>2026-04-19T09:43:13.608Z</time></trkpt><trkpt lat="45.6674963" lon="8.2432426"><ele>592.0</ele><time>2026-04-19T09:43:14.606Z</time></trkpt><trkpt lat="45.6674641" lon="8.2431499"><ele>592.0</ele><time>2026-04-19T09:43:15.607Z</time></trkpt><trkpt lat="45.6674402" lon="8.2430624"><ele>592.0</ele><time>2026-04-19T09:43:16.608Z</time></trkpt><trkpt lat="45.6674173" lon="8.2429701"><ele>592.0</ele><time>2026-04-19T09:43:17.608Z</time></trkpt><trkpt lat="45.6674052" lon="8.2428532"><ele>592.0</ele><time>2026-04-19T09:43:18.608Z</time></trkpt><trkpt lat="45.6673815" lon="8.2427138"><ele>592.0</ele><time>2026-04-19T09:43:19.608Z</time></trkpt><trkpt lat="45.6673668" lon="8.242587"><ele>593.0</ele><time>2026-04-19T09:43:20.607Z</time></trkpt><trkpt lat="45.6673497" lon="8.2424594"><ele>594.0</ele><time>2026-04-19T09:43:21.607Z</time></trkpt><trkpt lat="45.6673349" lon="8.2423114"><ele>595.0</ele><time>2026-04-19T09:43:22.607Z</time></trkpt><trkpt lat="45.66732" lon="8.2421844"><ele>596.0</ele><time>2026-04-19T09:43:23.607Z</time></trkpt><trkpt lat="45.6673062" lon="8.2420544"><ele>597.0</ele><time>2026-04-19T09:43:24.608Z</time></trkpt><trkpt lat="45.6672896" lon="8.2419459"><ele>598.3333333333334</ele><time>2026-04-19T09:43:25.608Z</time></trkpt><trkpt lat="45.6672614" lon="8.2418388"><ele>599.6666666666666</ele><time>2026-04-19T09:43:26.606Z</time></trkpt><trkpt lat="45.6672219" lon="8.2417286"><ele>601.0</ele><time>2026-04-19T09:43:27.607Z</time></trkpt><trkpt lat="45.6671824" lon="8.2416169"><ele>602.3333333333333</ele><time>2026-04-19T09:43:28.608Z</time></trkpt><trkpt lat="45.6671437" lon="8.2415163"><ele>603.6666666666666</ele><time>2026-04-19T09:43:29.607Z</time></trkpt><trkpt lat="45.6671" lon="8.2414434"><ele>605.0</ele><time>2026-04-19T09:43:30.608Z</time></trkpt><trkpt lat="45.6670316" lon="8.2413676"><ele>605.0</ele><time>2026-04-19T09:43:31.608Z</time></trkpt><trkpt lat="45.6669598" lon="8.2413092"><ele>605.0</ele><time>2026-04-19T09:43:32.607Z</time></trkpt><trkpt lat="45.6668667" lon="8.2412876"><ele>605.0</ele><time>2026-04-19T09:43:33.606Z</time></trkpt><trkpt lat="45.6667615" lon="8.2412803"><ele>605.0</ele><time>2026-04-19T09:43:34.608Z</time></trkpt><trkpt lat="45.6666742" lon="8.2412941"><ele>605.0</ele><time>2026-04-19T09:43:35.608Z</time></trkpt><trkpt lat="45.6665872" lon="8.2412956"><ele>609.5</ele><time>2026-04-19T09:43:36.608Z</time></trkpt><trkpt lat="45.6665054" lon="8.2412872"><ele>614.0</ele><time>2026-04-19T09:43:37.607Z</time></trkpt><trkpt lat="45.6664167" lon="8.2412656"><ele>618.5</ele><time>2026-04-19T09:43:38.606Z</time></trkpt><trkpt lat="45.6663314" lon="8.2412347"><ele>623.0</ele><time>2026-04-19T09:43:39.606Z</time></trkpt><trkpt lat="45.6662509" lon="8.2412069"><ele>627.5</ele><time>2026-04-19T09:43:40.608Z</time></trkpt><trkpt lat="45.6661839" lon="8.2411836"><ele>632.0</ele><time>2026-04-19T09:43:41.608Z</time></trkpt><trkpt lat="45.6661117" lon="8.2411904"><ele>635.0000000000001</ele><time>2026-04-19T09:43:42.607Z</time></trkpt><trkpt lat="45.6660446" lon="8.2411982"><ele>638.0</ele><time>2026-04-19T09:43:43.608Z</time></trkpt><trkpt lat="45.6659735" lon="8.2412116"><ele>641.0</ele><time>2026-04-19T09:43:44.606Z</time></trkpt><trkpt lat="45.6659173" lon="8.2412716"><ele>644.0</ele><time>2026-04-19T09:43:45.608Z</time></trkpt><trkpt lat="45.6658578" lon="8.2413219"><ele>647.0</ele><time>2026-04-19T09:43:46.606Z</time></trkpt><trkpt lat="45.6657946" lon="8.2413537"><ele>650.0000000000001</ele><time>2026-04-19T09:43:47.607Z</time></trkpt><trkpt lat="45.6657309" lon="8.241362"><ele>653.0</ele><time>2026-04-19T09:43:48.608Z</time></trkpt><trkpt lat="45.6656726" lon="8.2414106"><ele>653.0</ele><time>2026-04-19T09:43:49.607Z</time></trkpt><trkpt lat="45.665572" lon="8.2414696"><ele>653.0</ele><time>2026-04-19T09:43:51.607Z</time></trkpt><trkpt lat="45.6654787" lon="8.2414194"><ele>653.0</ele><time>2026-04-19T09:43:53.607Z</time></trkpt><trkpt lat="45.6653915" lon="8.2412758"><ele>653.0</ele><time>2026-04-19T09:43:55.607Z</time></trkpt><trkpt lat="45.6653613" lon="8.2411705"><ele>653.0</ele><time>2026-04-19T09:43:56.607Z</time></trkpt><trkpt lat="45.6653386" lon="8.2410782"><ele>653.0</ele><time>2026-04-19T09:43:57.606Z</time></trkpt><trkpt lat="45.6653324" lon="8.2409877"><ele>653.0</ele><time>2026-04-19T09:43:58.607Z</time></trkpt><trkpt lat="45.6653363" lon="8.2408954"><ele>653.0</ele><time>2026-04-19T09:43:59.607Z</time></trkpt><trkpt lat="45.6653454" lon="8.2407949"><ele>653.0</ele><time>2026-04-19T09:44:00.607Z</time></trkpt><trkpt lat="45.6653672" lon="8.2406729"><ele>653.0</ele><time>2026-04-19T09:44:01.607Z</time></trkpt><trkpt lat="45.6653789" lon="8.2405598"><ele>653.0</ele><time>2026-04-19T09:44:02.608Z</time></trkpt><trkpt lat="45.6653788" lon="8.2404407"><ele>655.0</ele><time>2026-04-19T09:44:03.607Z</time></trkpt><trkpt lat="45.6653684" lon="8.2403105"><ele>657.0</ele><time>2026-04-19T09:44:04.607Z</time></trkpt><trkpt lat="45.665318" lon="8.2401838"><ele>659.0</ele><time>2026-04-19T09:44:05.607Z</time></trkpt><trkpt lat="45.6652797" lon="8.240058"><ele>661.0</ele><time>2026-04-19T09:44:06.606Z</time></trkpt><trkpt lat="45.6652446" lon="8.2399261"><ele>663.0</ele><time>2026-04-19T09:44:07.608Z</time></trkpt><trkpt lat="45.665222" lon="8.2397757"><ele>663.1666666666666</ele><time>2026-04-19T09:44:08.608Z</time></trkpt><trkpt lat="45.665199" lon="8.2396367"><ele>663.3333333333334</ele><time>2026-04-19T09:44:09.606Z</time></trkpt><trkpt lat="45.6651716" lon="8.2395237"><ele>663.5</ele><time>2026-04-19T09:44:10.608Z</time></trkpt><trkpt lat="45.6651319" lon="8.2394273"><ele>663.6666666666667</ele><time>2026-04-19T09:44:11.608Z</time></trkpt><trkpt lat="45.6650899" lon="8.2393376"><ele>663.8333333333334</ele><time>2026-04-19T09:44:12.607Z</time></trkpt><trkpt lat="45.6650296" lon="8.2392993"><ele>664.0</ele><time>2026-04-19T09:44:13.605Z</time></trkpt><trkpt lat="45.6649701" lon="8.2392276"><ele>664.0</ele><time>2026-04-19T09:44:14.606Z</time></trkpt><trkpt lat="45.6649132" lon="8.2391376"><ele>664.0</ele><time>2026-04-19T09:44:15.607Z</time></trkpt><trkpt lat="45.6648583" lon="8.2390438"><ele>664.0</ele><time>2026-04-19T09:44:16.605Z</time></trkpt><trkpt lat="45.6648092" lon="8.2389399"><ele>664.0</ele><time>2026-04-19T09:44:17.607Z</time></trkpt><trkpt lat="45.6647578" lon="8.2388501"><ele>664.0</ele><time>2026-04-19T09:44:18.607Z</time></trkpt><trkpt lat="45.6646604" lon="8.2387832"><ele>664.0</ele><time>2026-04-19T09:44:20.608Z</time></trkpt><trkpt lat="45.6645959" lon="8.2387885"><ele>665.8000000000001</ele><time>2026-04-19T09:44:21.607Z</time></trkpt><trkpt lat="45.6645266" lon="8.2387894"><ele>667.6</ele><time>2026-04-19T09:44:22.607Z</time></trkpt><trkpt lat="45.6644604" lon="8.2387923"><ele>669.4</ele><time>2026-04-19T09:44:23.607Z</time></trkpt><trkpt lat="45.6643484" lon="8.2388434"><ele>671.2</ele><time>2026-04-19T09:44:25.608Z</time></trkpt><trkpt lat="45.664248" lon="8.2388664"><ele>673.0</ele><time>2026-04-19T09:44:27.608Z</time></trkpt><trkpt lat="45.6641521" lon="8.2387981"><ele>673.0</ele><time>2026-04-19T09:44:29.606Z</time></trkpt><trkpt lat="45.6640971" lon="8.2387542"><ele>673.0</ele><time>2026-04-19T09:44:30.605Z</time></trkpt><trkpt lat="45.6639745" lon="8.2387139"><ele>673.0</ele><time>2026-04-19T09:44:32.607Z</time></trkpt><trkpt lat="45.6638682" lon="8.2386484"><ele>673.0</ele><time>2026-04-19T09:44:34.607Z</time></trkpt><trkpt lat="45.6638097" lon="8.238498"><ele>673.0</ele><time>2026-04-19T09:44:36.607Z</time></trkpt><trkpt lat="45.6637892" lon="8.238317"><ele>673.0</ele><time>2026-04-19T09:44:38.606Z</time></trkpt><trkpt lat="45.6638" lon="8.2382195"><ele>673.0</ele><time>2026-04-19T09:44:39.607Z</time></trkpt><trkpt lat="45.6638175" lon="8.2381163"><ele>673.0</ele><time>2026-04-19T09:44:40.607Z</time></trkpt><trkpt lat="45.6638302" lon="8.2380083"><ele>673.0</ele><time>2026-04-19T09:44:41.608Z</time></trkpt><trkpt lat="45.6638323" lon="8.237885"><ele>673.0</ele><time>2026-04-19T09:44:42.608Z</time></trkpt><trkpt lat="45.6638376" lon="8.2377455"><ele>673.0</ele><time>2026-04-19T09:44:43.606Z</time></trkpt><trkpt lat="45.6638472" lon="8.2376226"><ele>673.5999999999999</ele><time>2026-04-19T09:44:44.607Z</time></trkpt><trkpt lat="45.663848" lon="8.2375204"><ele>674.1999999999999</ele><time>2026-04-19T09:44:45.608Z</time></trkpt><trkpt lat="45.6637968" lon="8.2373767"><ele>674.8</ele><time>2026-04-19T09:44:47.606Z</time></trkpt><trkpt lat="45.663727" lon="8.2372648"><ele>675.4</ele><time>2026-04-19T09:44:49.607Z</time></trkpt><trkpt lat="45.6636735" lon="8.237132"><ele>676.0</ele><time>2026-04-19T09:44:51.607Z</time></trkpt><trkpt lat="45.6636841" lon="8.2369789"><ele>672.75</ele><time>2026-04-19T09:44:53.607Z</time></trkpt><trkpt lat="45.6637322" lon="8.2368303"><ele>669.5</ele><time>2026-04-19T09:44:55.606Z</time></trkpt><trkpt lat="45.6637753" lon="8.2366693"><ele>666.25</ele><time>2026-04-19T09:44:57.608Z</time></trkpt><trkpt lat="45.6637751" lon="8.236498"><ele>663.0</ele><time>2026-04-19T09:44:59.608Z</time></trkpt><trkpt lat="45.6637729" lon="8.2363232"><ele>660.0</ele><time>2026-04-19T09:45:01.607Z</time></trkpt><trkpt lat="45.6637401" lon="8.2361697"><ele>657.0</ele><time>2026-04-19T09:45:03.607Z</time></trkpt><trkpt lat="45.6636527" lon="8.2360606"><ele>654.0</ele><time>2026-04-19T09:45:05.607Z</time></trkpt><trkpt lat="45.663576" lon="8.235977"><ele>651.0</ele><time>2026-04-19T09:45:07.607Z</time></trkpt><trkpt lat="45.6635143" lon="8.2358887"><ele>648.0</ele><time>2026-04-19T09:45:09.606Z</time></trkpt><trkpt lat="45.6634686" lon="8.2357401"><ele>646.4</ele><time>2026-04-19T09:45:11.607Z</time></trkpt><trkpt lat="45.6634476" lon="8.2356538"><ele>644.8</ele><time>2026-04-19T09:45:12.607Z</time></trkpt><trkpt lat="45.6634176" lon="8.235486"><ele>643.2</ele><time>2026-04-19T09:45:14.607Z</time></trkpt><trkpt lat="45.6633647" lon="8.2353375"><ele>641.6</ele><time>2026-04-19T09:45:16.607Z</time></trkpt><trkpt lat="45.663277" lon="8.235205"><ele>640.0</ele><time>2026-04-19T09:45:18.608Z</time></trkpt><trkpt lat="45.6632096" lon="8.2351381"><ele>639.4285714285714</ele><time>2026-04-19T09:45:19.607Z</time></trkpt><trkpt lat="45.663138" lon="8.2350665"><ele>638.8571428571429</ele><time>2026-04-19T09:45:20.608Z</time></trkpt><trkpt lat="45.6630754" lon="8.2350151"><ele>638.2857142857142</ele><time>2026-04-19T09:45:21.607Z</time></trkpt><trkpt lat="45.663014" lon="8.234968"><ele>637.7142857142858</ele><time>2026-04-19T09:45:22.607Z</time></trkpt><trkpt lat="45.6629547" lon="8.2349322"><ele>637.1428571428572</ele><time>2026-04-19T09:45:23.607Z</time></trkpt><trkpt lat="45.6628933" lon="8.2349063"><ele>636.5714285714286</ele><time>2026-04-19T09:45:24.608Z</time></trkpt><trkpt lat="45.662814" lon="8.2349034"><ele>636.0</ele><time>2026-04-19T09:45:25.606Z</time></trkpt><trkpt lat="45.6627368" lon="8.2348966"><ele>635.5</ele><time>2026-04-19T09:45:26.607Z</time></trkpt><trkpt lat="45.6626647" lon="8.234885"><ele>635.0</ele><time>2026-04-19T09:45:27.606Z</time></trkpt><trkpt lat="45.6625992" lon="8.23486"><ele>634.5</ele><time>2026-04-19T09:45:28.607Z</time></trkpt><trkpt lat="45.6625274" lon="8.2348206"><ele>634.0</ele><time>2026-04-19T09:45:29.608Z</time></trkpt><trkpt lat="45.6624677" lon="8.2347778"><ele>633.5</ele><time>2026-04-19T09:45:30.607Z</time></trkpt><trkpt lat="45.6623848" lon="8.2346717"><ele>633.0</ele><time>2026-04-19T09:45:32.607Z</time></trkpt><trkpt lat="45.6623608" lon="8.2345821"><ele>634.5</ele><time>2026-04-19T09:45:33.606Z</time></trkpt><trkpt lat="45.6623403" lon="8.2344698"><ele>636.0</ele><time>2026-04-19T09:45:34.607Z</time></trkpt><trkpt lat="45.6623253" lon="8.2343626"><ele>637.5</ele><time>2026-04-19T09:45:35.607Z</time></trkpt><trkpt lat="45.6623112" lon="8.2342591"><ele>639.0</ele><time>2026-04-19T09:45:36.607Z</time></trkpt><trkpt lat="45.662236" lon="8.234118"><ele>640.5</ele><time>2026-04-19T09:45:38.606Z</time></trkpt><trkpt lat="45.6621582" lon="8.2340637"><ele>642.0</ele><time>2026-04-19T09:45:39.606Z</time></trkpt><trkpt lat="45.6620761" lon="8.2340113"><ele>642.0</ele><time>2026-04-19T09:45:40.608Z</time></trkpt><trkpt lat="45.6619442" lon="8.2339929"><ele>642.0</ele><time>2026-04-19T09:45:41.606Z</time></trkpt><trkpt lat="45.6618249" lon="8.2339601"><ele>642.0</ele><time>2026-04-19T09:45:42.607Z</time></trkpt><trkpt lat="45.6617047" lon="8.2339363"><ele>642.0</ele><time>2026-04-19T09:45:43.607Z</time></trkpt><trkpt lat="45.6615602" lon="8.2339516"><ele>642.0</ele><time>2026-04-19T09:45:44.607Z</time></trkpt><trkpt lat="45.6614368" lon="8.2339637"><ele>642.0</ele><time>2026-04-19T09:45:45.606Z</time></trkpt><trkpt lat="45.6613394" lon="8.233982"><ele>642.0</ele><time>2026-04-19T09:45:46.606Z</time></trkpt><trkpt lat="45.6612585" lon="8.2339789"><ele>642.0</ele><time>2026-04-19T09:45:47.607Z</time></trkpt><trkpt lat="45.6611641" lon="8.2339049"><ele>642.0</ele><time>2026-04-19T09:45:49.607Z</time></trkpt><trkpt lat="45.6611161" lon="8.2338354"><ele>649.3333333333334</ele><time>2026-04-19T09:45:50.606Z</time></trkpt><trkpt lat="45.6610797" lon="8.2337402"><ele>656.6666666666666</ele><time>2026-04-19T09:45:51.608Z</time></trkpt><trkpt lat="45.6610349" lon="8.2336667"><ele>664.0</ele><time>2026-04-19T09:45:52.607Z</time></trkpt><trkpt lat="45.6609745" lon="8.2336218"><ele>671.3333333333333</ele><time>2026-04-19T09:45:53.608Z</time></trkpt><trkpt lat="45.6608986" lon="8.2335927"><ele>678.6666666666666</ele><time>2026-04-19T09:45:54.606Z</time></trkpt><trkpt lat="45.6608298" lon="8.2335809"><ele>686.0</ele><time>2026-04-19T09:45:55.607Z</time></trkpt><trkpt lat="45.660713" lon="8.2336439"><ele>686.0</ele><time>2026-04-19T09:45:57.607Z</time></trkpt><trkpt lat="45.6606567" lon="8.2337471"><ele>686.0</ele><time>2026-04-19T09:45:58.607Z</time></trkpt><trkpt lat="45.6605954" lon="8.2338118"><ele>686.0</ele><time>2026-04-19T09:45:59.607Z</time></trkpt><trkpt lat="45.660531" lon="8.2339029"><ele>686.0</ele><time>2026-04-19T09:46:00.608Z</time></trkpt><trkpt lat="45.660477" lon="8.2339976"><ele>686.0</ele><time>2026-04-19T09:46:01.607Z</time></trkpt><trkpt lat="45.660434" lon="8.2340956"><ele>686.0</ele><time>2026-04-19T09:46:02.606Z</time></trkpt><trkpt lat="45.6603908" lon="8.2341738"><ele>683.1999999999999</ele><time>2026-04-19T09:46:03.606Z</time></trkpt><trkpt lat="45.6603387" lon="8.2342325"><ele>680.4</ele><time>2026-04-19T09:46:04.606Z</time></trkpt><trkpt lat="45.6602238" lon="8.2342793"><ele>677.6</ele><time>2026-04-19T09:46:06.607Z</time></trkpt><trkpt lat="45.6601405" lon="8.2342668"><ele>674.8</ele><time>2026-04-19T09:46:07.608Z</time></trkpt><trkpt lat="45.6600534" lon="8.2342596"><ele>672.0</ele><time>2026-04-19T09:46:08.606Z</time></trkpt><trkpt lat="45.6599598" lon="8.2342676"><ele>672.0</ele><time>2026-04-19T09:46:09.608Z</time></trkpt><trkpt lat="45.6598556" lon="8.2342772"><ele>672.0</ele><time>2026-04-19T09:46:10.608Z</time></trkpt><trkpt lat="45.6597714" lon="8.2343229"><ele>672.0</ele><time>2026-04-19T09:46:11.606Z</time></trkpt><trkpt lat="45.6596842" lon="8.2343862"><ele>672.0</ele><time>2026-04-19T09:46:12.607Z</time></trkpt><trkpt lat="45.6595825" lon="8.2344647"><ele>672.0</ele><time>2026-04-19T09:46:13.608Z</time></trkpt><trkpt lat="45.6595017" lon="8.2345221"><ele>671.6666666666666</ele><time>2026-04-19T09:46:14.606Z</time></trkpt><trkpt lat="45.6594217" lon="8.2345616"><ele>671.3333333333334</ele><time>2026-04-19T09:46:15.607Z</time></trkpt><trkpt lat="45.6593393" lon="8.2346143"><ele>671.0</ele><time>2026-04-19T09:46:16.607Z</time></trkpt><trkpt lat="45.659267" lon="8.2346757"><ele>670.6666666666667</ele><time>2026-04-19T09:46:17.607Z</time></trkpt><trkpt lat="45.6591944" lon="8.2347384"><ele>670.3333333333334</ele><time>2026-04-19T09:46:18.606Z</time></trkpt><trkpt lat="45.6591533" lon="8.2348302"><ele>670.0</ele><time>2026-04-19T09:46:19.607Z</time></trkpt><trkpt lat="45.6591133" lon="8.234929"><ele>670.0</ele><time>2026-04-19T09:46:20.607Z</time></trkpt><trkpt lat="45.6590822" lon="8.2350185"><ele>670.0</ele><time>2026-04-19T09:46:21.608Z</time></trkpt><trkpt lat="45.6590552" lon="8.2351024"><ele>670.0</ele><time>2026-04-19T09:46:22.607Z</time></trkpt><trkpt lat="45.6590062" lon="8.2351874"><ele>670.0</ele><time>2026-04-19T09:46:24.606Z</time></trkpt><trkpt lat="45.6589776" lon="8.2350985"><ele>670.0</ele><time>2026-04-19T09:46:27.607Z</time></trkpt><trkpt lat="45.6589959" lon="8.2349665"><ele>670.0</ele><time>2026-04-19T09:46:29.606Z</time></trkpt><trkpt lat="45.6590359" lon="8.2347854"><ele>670.0</ele><time>2026-04-19T09:46:31.607Z</time></trkpt><trkpt lat="45.6590696" lon="8.2346787"><ele>670.0</ele><time>2026-04-19T09:46:32.607Z</time></trkpt><trkpt lat="45.6591069" lon="8.2345692"><ele>670.0</ele><time>2026-04-19T09:46:33.607Z</time></trkpt><trkpt lat="45.6591305" lon="8.2344645"><ele>670.0</ele><time>2026-04-19T09:46:34.606Z</time></trkpt><trkpt lat="45.6591712" lon="8.2343695"><ele>670.0</ele><time>2026-04-19T09:46:35.607Z</time></trkpt><trkpt lat="45.6592216" lon="8.2342797"><ele>670.0</ele><time>2026-04-19T09:46:36.606Z</time></trkpt><trkpt lat="45.659269" lon="8.2341945"><ele>670.0</ele><time>2026-04-19T09:46:37.608Z</time></trkpt><trkpt lat="45.6593112" lon="8.2341113"><ele>670.0</ele><time>2026-04-19T09:46:38.608Z</time></trkpt><trkpt lat="45.6593656" lon="8.2340245"><ele>670.0</ele><time>2026-04-19T09:46:39.606Z</time></trkpt><trkpt lat="45.6594162" lon="8.2339387"><ele>670.0</ele><time>2026-04-19T09:46:40.607Z</time></trkpt><trkpt lat="45.659464" lon="8.2338668"><ele>670.0</ele><time>2026-04-19T09:46:41.608Z</time></trkpt><trkpt lat="45.6595243" lon="8.2337865"><ele>670.0</ele><time>2026-04-19T09:46:42.606Z</time></trkpt><trkpt lat="45.6595728" lon="8.2337047"><ele>675.2</ele><time>2026-04-19T09:46:43.606Z</time></trkpt><trkpt lat="45.6596282" lon="8.2336042"><ele>680.4</ele><time>2026-04-19T09:46:44.607Z</time></trkpt><trkpt lat="45.6596846" lon="8.2334816"><ele>685.5999999999999</ele><time>2026-04-19T09:46:45.606Z</time></trkpt><trkpt lat="45.659752" lon="8.2333493"><ele>690.8</ele><time>2026-04-19T09:46:46.607Z</time></trkpt><trkpt lat="45.6598116" lon="8.2332387"><ele>696.0</ele><time>2026-04-19T09:46:47.608Z</time></trkpt><trkpt lat="45.6598739" lon="8.2331414"><ele>696.4</ele><time>2026-04-19T09:46:48.607Z</time></trkpt><trkpt lat="45.6599433" lon="8.2330393"><ele>696.8</ele><time>2026-04-19T09:46:49.607Z</time></trkpt><trkpt lat="45.6600087" lon="8.2329382"><ele>697.1999999999999</ele><time>2026-04-19T09:46:50.607Z</time></trkpt><trkpt lat="45.6600766" lon="8.2328276"><ele>697.5999999999999</ele><time>2026-04-19T09:46:51.607Z</time></trkpt><trkpt lat="45.66017" lon="8.2327041"><ele>698.0</ele><time>2026-04-19T09:46:52.606Z</time></trkpt><trkpt lat="45.6602475" lon="8.2325977"><ele>699.0</ele><time>2026-04-19T09:46:53.607Z</time></trkpt><trkpt lat="45.660308" lon="8.2325397"><ele>700.0</ele><time>2026-04-19T09:46:54.607Z</time></trkpt><trkpt lat="45.6603777" lon="8.2324693"><ele>701.0</ele><time>2026-04-19T09:46:55.607Z</time></trkpt><trkpt lat="45.6604299" lon="8.232391"><ele>702.0</ele><time>2026-04-19T09:46:56.607Z</time></trkpt><trkpt lat="45.660485" lon="8.2323261"><ele>703.0</ele><time>2026-04-19T09:46:57.606Z</time></trkpt><trkpt lat="45.6605526" lon="8.2322725"><ele>704.0</ele><time>2026-04-19T09:46:58.607Z</time></trkpt><trkpt lat="45.6606343" lon="8.2322289"><ele>704.0</ele><time>2026-04-19T09:46:59.606Z</time></trkpt><trkpt lat="45.6607213" lon="8.2321892"><ele>704.0</ele><time>2026-04-19T09:47:00.607Z</time></trkpt><trkpt lat="45.660799" lon="8.2321478"><ele>704.0</ele><time>2026-04-19T09:47:01.606Z</time></trkpt><trkpt lat="45.6608661" lon="8.232106"><ele>704.0</ele><time>2026-04-19T09:47:02.607Z</time></trkpt><trkpt lat="45.6609373" lon="8.2320644"><ele>704.0</ele><time>2026-04-19T09:47:03.607Z</time></trkpt><trkpt lat="45.6609994" lon="8.2320235"><ele>704.0</ele><time>2026-04-19T09:47:04.607Z</time></trkpt><trkpt lat="45.661054" lon="8.2319714"><ele>703.5</ele><time>2026-04-19T09:47:05.607Z</time></trkpt><trkpt lat="45.6611171" lon="8.2319274"><ele>703.0</ele><time>2026-04-19T09:47:06.608Z</time></trkpt><trkpt lat="45.6611863" lon="8.2319032"><ele>702.5</ele><time>2026-04-19T09:47:07.607Z</time></trkpt><trkpt lat="45.6613145" lon="8.2318954"><ele>702.0</ele><time>2026-04-19T09:47:09.606Z</time></trkpt><trkpt lat="45.6613821" lon="8.2318843"><ele>701.5</ele><time>2026-04-19T09:47:10.607Z</time></trkpt><trkpt lat="45.6614485" lon="8.2318682"><ele>701.0</ele><time>2026-04-19T09:47:11.607Z</time></trkpt><trkpt lat="45.6615255" lon="8.2318034"><ele>701.0</ele><time>2026-04-19T09:47:12.606Z</time></trkpt><trkpt lat="45.6615779" lon="8.2317207"><ele>701.0</ele><time>2026-04-19T09:47:13.607Z</time></trkpt><trkpt lat="45.6616266" lon="8.2316196"><ele>701.0</ele><time>2026-04-19T09:47:14.607Z</time></trkpt><trkpt lat="45.6616736" lon="8.2315088"><ele>701.0</ele><time>2026-04-19T09:47:15.607Z</time></trkpt><trkpt lat="45.6617324" lon="8.2313914"><ele>701.0</ele><time>2026-04-19T09:47:16.608Z</time></trkpt><trkpt lat="45.6617798" lon="8.2312796"><ele>701.0</ele><time>2026-04-19T09:47:17.606Z</time></trkpt><trkpt lat="45.6618168" lon="8.2311558"><ele>699.0</ele><time>2026-04-19T09:47:18.606Z</time></trkpt><trkpt lat="45.6618557" lon="8.231039"><ele>697.0</ele><time>2026-04-19T09:47:19.608Z</time></trkpt><trkpt lat="45.6618849" lon="8.2309408"><ele>695.0</ele><time>2026-04-19T09:47:20.606Z</time></trkpt><trkpt lat="45.6619174" lon="8.2308489"><ele>693.0</ele><time>2026-04-19T09:47:21.606Z</time></trkpt><trkpt lat="45.661926" lon="8.2307472"><ele>691.0</ele><time>2026-04-19T09:47:22.607Z</time></trkpt><trkpt lat="45.6619549" lon="8.2306503"><ele>689.0</ele><time>2026-04-19T09:47:23.607Z</time></trkpt><trkpt lat="45.6620019" lon="8.2304897"><ele>686.0</ele><time>2026-04-19T09:47:25.606Z</time></trkpt><trkpt lat="45.6620829" lon="8.2303872"><ele>683.0</ele><time>2026-04-19T09:47:27.607Z</time></trkpt><trkpt lat="45.6621812" lon="8.2303505"><ele>680.0</ele><time>2026-04-19T09:47:29.607Z</time></trkpt><trkpt lat="45.6622535" lon="8.2303738"><ele>677.0</ele><time>2026-04-19T09:47:30.607Z</time></trkpt><trkpt lat="45.6623179" lon="8.2304026"><ele>674.0</ele><time>2026-04-19T09:47:31.608Z</time></trkpt><trkpt lat="45.662403" lon="8.2305266"><ele>674.0</ele><time>2026-04-19T09:47:33.607Z</time></trkpt><trkpt lat="45.662436" lon="8.2306087"><ele>674.0</ele><time>2026-04-19T09:47:34.607Z</time></trkpt><trkpt lat="45.662497" lon="8.230759"><ele>674.0</ele><time>2026-04-19T09:47:36.607Z</time></trkpt><trkpt lat="45.6625652" lon="8.230875"><ele>674.0</ele><time>2026-04-19T09:47:38.607Z</time></trkpt><trkpt lat="45.6626663" lon="8.2308732"><ele>674.0</ele><time>2026-04-19T09:47:40.606Z</time></trkpt><trkpt lat="45.6626594" lon="8.2307461"><ele>674.0</ele><time>2026-04-19T09:47:42.606Z</time></trkpt><trkpt lat="45.6626265" lon="8.2306571"><ele>674.0</ele><time>2026-04-19T09:47:43.607Z</time></trkpt><trkpt lat="45.6625993" lon="8.2305645"><ele>674.0</ele><time>2026-04-19T09:47:44.607Z</time></trkpt><trkpt lat="45.6625892" lon="8.2304675"><ele>674.0</ele><time>2026-04-19T09:47:45.605Z</time></trkpt><trkpt lat="45.66255" lon="8.2302996"><ele>674.0</ele><time>2026-04-19T09:47:47.607Z</time></trkpt><trkpt lat="45.6625227" lon="8.2302184"><ele>674.0</ele><time>2026-04-19T09:47:48.607Z</time></trkpt><trkpt lat="45.6624757" lon="8.2301343"><ele>674.0</ele><time>2026-04-19T09:47:49.607Z</time></trkpt><trkpt lat="45.6624161" lon="8.2300407"><ele>674.0</ele><time>2026-04-19T09:47:50.606Z</time></trkpt><trkpt lat="45.6623535" lon="8.2299436"><ele>674.0</ele><time>2026-04-19T09:47:51.607Z</time></trkpt><trkpt lat="45.662298" lon="8.2298495"><ele>674.0</ele><time>2026-04-19T09:47:52.607Z</time></trkpt><trkpt lat="45.6622438" lon="8.229769"><ele>674.0</ele><time>2026-04-19T09:47:53.607Z</time></trkpt><trkpt lat="45.6621852" lon="8.2297226"><ele>674.0</ele><time>2026-04-19T09:47:54.607Z</time></trkpt><trkpt lat="45.6621263" lon="8.2296775"><ele>670.1666666666666</ele><time>2026-04-19T09:47:55.607Z</time></trkpt><trkpt lat="45.6620588" lon="8.2296761"><ele>666.3333333333333</ele><time>2026-04-19T09:47:56.607Z</time></trkpt><trkpt lat="45.6619844" lon="8.2296638"><ele>662.5</ele><time>2026-04-19T09:47:57.608Z</time></trkpt><trkpt lat="45.6619004" lon="8.2296501"><ele>658.6666666666666</ele><time>2026-04-19T09:47:58.607Z</time></trkpt><trkpt lat="45.6618193" lon="8.2296289"><ele>654.8333333333334</ele><time>2026-04-19T09:47:59.606Z</time></trkpt><trkpt lat="45.6617475" lon="8.2295919"><ele>651.0</ele><time>2026-04-19T09:48:00.606Z</time></trkpt><trkpt lat="45.6616754" lon="8.2295604"><ele>649.5999999999999</ele><time>2026-04-19T09:48:01.607Z</time></trkpt><trkpt lat="45.6615393" lon="8.2295565"><ele>648.2</ele><time>2026-04-19T09:48:03.608Z</time></trkpt><trkpt lat="45.6614665" lon="8.2295651"><ele>646.8</ele><time>2026-04-19T09:48:04.607Z</time></trkpt><trkpt lat="45.6613657" lon="8.2296431"><ele>645.4000000000001</ele><time>2026-04-19T09:48:06.606Z</time></trkpt><trkpt lat="45.6613053" lon="8.2297582"><ele>644.0</ele><time>2026-04-19T09:48:08.605Z</time></trkpt><trkpt lat="45.6612482" lon="8.229708"><ele>644.0</ele><time>2026-04-19T09:48:12.607Z</time></trkpt><trkpt lat="45.6612844" lon="8.2295684"><ele>644.0</ele><time>2026-04-19T09:48:14.607Z</time></trkpt><trkpt lat="45.6613091" lon="8.229448"><ele>644.0</ele><time>2026-04-19T09:48:16.606Z</time></trkpt><trkpt lat="45.6612562" lon="8.2293699"><ele>644.0</ele><time>2026-04-19T09:48:19.607Z</time></trkpt><trkpt lat="45.6612247" lon="8.2294834"><ele>644.0</ele><time>2026-04-19T09:48:21.607Z</time></trkpt><trkpt lat="45.6611881" lon="8.2295834"><ele>644.0</ele><time>2026-04-19T09:48:23.606Z</time></trkpt><trkpt lat="45.6611161" lon="8.2295524"><ele>644.0</ele><time>2026-04-19T09:48:26.605Z</time></trkpt><trkpt lat="45.6611208" lon="8.2294556"><ele>644.0</ele><time>2026-04-19T09:48:28.607Z</time></trkpt><trkpt lat="45.6611704" lon="8.2293534"><ele>644.0</ele><time>2026-04-19T09:48:30.607Z</time></trkpt><trkpt lat="45.6611719" lon="8.229202"><ele>644.0</ele><time>2026-04-19T09:48:32.606Z</time></trkpt><trkpt lat="45.6611423" lon="8.2291216"><ele>644.0</ele><time>2026-04-19T09:48:33.608Z</time></trkpt><trkpt lat="45.6611073" lon="8.2290381"><ele>644.0</ele><time>2026-04-19T09:48:34.607Z</time></trkpt><trkpt lat="45.6610688" lon="8.2289255"><ele>639.5</ele><time>2026-04-19T09:48:35.607Z</time></trkpt><trkpt lat="45.6610229" lon="8.2288161"><ele>635.0</ele><time>2026-04-19T09:48:36.607Z</time></trkpt><trkpt lat="45.6610065" lon="8.2286902"><ele>630.5</ele><time>2026-04-19T09:48:37.607Z</time></trkpt><trkpt lat="45.6609909" lon="8.228566"><ele>626.0</ele><time>2026-04-19T09:48:38.607Z</time></trkpt><trkpt lat="45.6609833" lon="8.2284426"><ele>621.5</ele><time>2026-04-19T09:48:39.607Z</time></trkpt><trkpt lat="45.6609722" lon="8.2283223"><ele>617.0</ele><time>2026-04-19T09:48:40.607Z</time></trkpt><trkpt lat="45.6609505" lon="8.2281702"><ele>617.0</ele><time>2026-04-19T09:48:42.606Z</time></trkpt><trkpt lat="45.6608703" lon="8.2280702"><ele>617.0</ele><time>2026-04-19T09:48:44.607Z</time></trkpt><trkpt lat="45.6607848" lon="8.2280415"><ele>617.0</ele><time>2026-04-19T09:48:46.607Z</time></trkpt><trkpt lat="45.660701" lon="8.2281046"><ele>617.0</ele><time>2026-04-19T09:48:48.607Z</time></trkpt><trkpt lat="45.6606674" lon="8.2281861"><ele>617.0</ele><time>2026-04-19T09:48:49.607Z</time></trkpt><trkpt lat="45.6606344" lon="8.2282682"><ele>617.0</ele><time>2026-04-19T09:48:50.607Z</time></trkpt><trkpt lat="45.6606118" lon="8.2283558"><ele>617.0</ele><time>2026-04-19T09:48:51.606Z</time></trkpt><trkpt lat="45.6605564" lon="8.2284923"><ele>617.0</ele><time>2026-04-19T09:48:53.607Z</time></trkpt><trkpt lat="45.6604906" lon="8.2284957"><ele>617.0</ele><time>2026-04-19T09:48:57.607Z</time></trkpt><trkpt lat="45.6604762" lon="8.2283997"><ele>617.0</ele><time>2026-04-19T09:48:59.606Z</time></trkpt><trkpt lat="45.6604967" lon="8.2282991"><ele>617.0</ele><time>2026-04-19T09:49:02.606Z</time></trkpt></trkseg></trk></gpx>